     2              OBSERVATION DATA                        RINEX VERSION / TYPE
ASHCAN V. 1.94 20000418 20:08:51UTC                         PGM / RUN BY / DATE
HCTM HECTOR_MOBILE                                          MARKER NAME
AAB                                                         OBSERVER / AGENCY
LP02788 ASHTECH Z-XII3 CC00 1D02                            REC # / TYPE / VERS
CR519991896 ASH701945B_M                                    ANT # / TYPE
        0.0000        0.0000        0.0000                  APPROX POSITION XYZ
        0.0000        0.0000        0.0000                  ANTENNA: DELTA H/E/N
     1     1                                                WAVELENGTH FACT L1/2
     5    L1    L2    C1    P1    P2                        # / TYPES OF OBSERV
  2000     4    17    20     0   27.000000                  TIME OF FIRST OBS
  2000     4    17    22     4   54.000000                  TIME OF LAST OBS
     1                                                      INTERVAL
                                                            END OF HEADER
 00  4 17 20  0 27.0000000  0  7 24  4  6  5 30 10  9                0.000000000
    -89721.913 9    -60982.64947  20591152.344    20591152.0324   20591164.2784
    342588.646 9    267842.43245  23089535.511    23089535.4264   23089547.7384
  -1001654.083 9   -295351.19945  23646821.355    23646821.2764   23646841.2084
   -482633.781 9   -358130.23747  20226730.111    20226729.4874   20226741.6224
  -1046636.271 9   -785462.92846  21660197.386    21660197.6384   21660211.0354
  -1037519.608 9   -773464.79146  21884683.459    21884682.5514   21884698.6624
    314848.108 9    246559.62145  24096921.370    24096921.0884   24096945.6504
 00  4 17 20  0 28.0000000  0  7 24  4  6  5 30 10  9                0.000000000
    -88276.364 9    -59856.24947  20591427.417    20591427.1124   20591439.3584
    345761.460 9    270314.75945  23090139.304    23090139.2204   23090151.5204
  -1003986.531 9   -297168.68445  23646377.523    23646377.4844   23646397.3714
   -482760.133 9   -358228.69847  20226706.062    20226705.4434   20226717.5744
  -1049077.040 9   -787364.82146  21659732.925    21659733.1704   21659746.5764
  -1040042.212 9   -775430.45346  21884203.419    21884202.5034   21884218.6374
    317897.114 9    248935.45045  24097501.568    24097501.2954   24097525.8484
 00  4 17 20  0 29.0000000  0  7 24  4  6  5 30 10  9                0.000000000
    -86830.378 9    -58729.50547  20591702.585    20591702.2814   20591714.5354
    348934.373 9    272787.15145  23090743.081    23090742.9834   23090755.2994
  -1006318.950 9   -298986.14745  23645933.695    23645933.6414   23645953.5504
   -482885.843 9   -358326.65547  20226682.147    20226681.5304   20226693.6504
  -1051517.412 9   -789266.40546  21659268.525    21659268.7614   21659282.1744
  -1042564.329 9   -777395.73346  21883723.483    21883722.5744   21883738.7054
    320946.133 9    251311.29045  24098081.788    24098081.5434   24098106.0734
 00  4 17 20  0 30.0000000  0  7 24  4  6  5 30 10  9                0.000000000
    -85384.001 9    -57602.45747  20591977.831    20591977.5304   20591989.7674
    352107.416 9    275259.64845  23091346.885    23091346.7824   23091359.1054
  -1008651.375 9   -300803.61745  23645489.837    23645489.7584   23645509.7004
   -483010.931 9   -358424.12247  20226658.329    20226657.7164   20226669.8344
  -1053957.432 9   -791167.71846  21658804.203    21658804.4334   21658817.8494
  -1045086.011 9   -779360.67646  21883243.620    21883242.7074   21883258.8544
    323995.139 9    253687.11645  24098662.005    24098661.7734   24098686.2694
 00  4 17 20  0 31.0000000  0  7 24  4  6  5 30 10  9                0.000000000
    -83937.199 9    -56475.07847  20592253.126    20592252.8304   20592265.0564
    355280.566 9    277732.23045  23091950.732    23091950.6344   23091962.9444
  -1010983.795 9   -302621.07945  23645046.004    23645045.8854   23645065.8534
   -483135.359 9   -358521.08147  20226634.679    20226634.0724   20226646.1834
  -1056397.078 9   -793068.73246  21658339.961    21658340.1834   21658353.6014
  -1047607.197 9   -781325.23146  21882763.846    21882762.9484   21882779.0614
    327044.161 9    256062.95745  24099242.239    24099241.9934   24099266.5034
 00  4 17 20  0 32.0000000  0  7 24  4  6  5 30 10  9                0.000000000
    -82489.967 9    -55347.36647  20592528.554    20592528.2494   20592540.4834
    358453.854 9    280204.91955  23092554.606    23092554.5264   23092566.8135
  -1013316.179 9   -304438.51645  23644602.154    23644602.0134   23644621.9924
   -483259.135 9   -358617.53047  20226611.120    20226610.5094   20226622.6304
  -1058836.322 9   -794969.44146  21657875.767    21657875.9854   21657889.4264
  -1050127.891 9   -783289.40646  21882284.170    21882283.2704   21882299.3734
    330093.194 9    258438.80445  24099822.456    24099822.1814   24099846.7424
 00  4 17 20  0 33.0000000  0  7 24  4  6  5 30 10  9               -0.000000003
    -81042.310 9    -54219.31947  20592804.025    20592803.7194   20592815.9684
    361627.274 9    282677.72945  23093158.487    23093158.4284   23093170.6984
  -1015648.534 9   -306255.93345  23644158.330    23644158.1514   23644178.1514
   -483382.269 9   -358713.48147  20226587.687    20226587.0754   20226599.2024
  -1061275.176 9   -796869.84646  21657411.671    21657411.8864   21657425.3364
  -1052648.127 9   -785253.23346  21881804.579    21881803.6734   21881819.7734
    333142.227 9    260814.65845  24100402.671    24100402.3794   24100426.9714
 00  4 17 20  0 34.0000000  0  7 24  4  6  5 30 10  9                0.000000030
    -79594.250 9    -53090.96147  20593079.567    20593079.2584   20593091.5044
    364800.818 9    285150.62545  23093762.391    23093762.3404   23093774.5954
  -1017980.896 9   -308073.35645  23643714.492    23643714.2384   23643734.2884
   -483504.727 9   -358808.90047  20226564.377    20226563.7614   20226575.8894
  -1063713.669 9   -798769.96646  21656947.634    21656947.8474   21656961.3024
  -1055167.849 9   -787216.62946  21881325.113    21881324.2054   21881340.3004
    336191.282 9    263190.52845  24100982.917    24100982.6074   24101007.2244
 00  4 17 20  0 35.0000000  0  7 24  4  6  5 30 10  9               -0.000000033
    -78145.753 9    -51962.26047  20593355.213    20593354.9074   20593367.1424
    367974.490 9    287623.63345  23094366.329    23094366.2634   23094378.5194
  -1020313.223 9   -309890.74245  23643270.679    23643270.3654   23643290.4694
   -483626.548 9   -358903.82647  20226541.207    20226540.5874   20226552.7084
  -1066151.782 9   -800669.78046  21656483.697    21656483.9184   21656497.3734
  -1057687.099 9   -789179.67946  21880845.699    21880844.7864   21880860.8814
    339240.338 9    265566.39945  24101563.135    24101562.8244   24101587.4504
 00  4 17 20  0 36.0000000  0  7 24  4  6  5 30 10  9               -0.000000034
    -76696.803 9    -50833.21147  20593630.933    20593630.6264   20593642.8684
    371148.337 9    290096.74845  23094970.302    23094970.2454   23094982.4994
  -1022645.490 9   -311708.08545  23642826.846    23642826.4734   23642846.5984
   -483747.682 9   -358998.21547  20226518.149    20226517.5334   20226529.6414
  -1068589.455 9   -802569.26746  21656019.813    21656020.0304   21656033.4964
  -1060205.823 9   -791142.31146  21880366.395    21880365.4794   21880381.5594
    342289.444 9    267942.31145  24102143.387    24102143.0734   24102167.7154
 00  4 17 20  0 37.0000000  0  7 24  4  6  5 30 10  9               -0.000000035
    -75247.418 9    -49703.81947  20593906.766    20593906.4554   20593918.6994
    374322.322 9    292569.97345  23095574.288    23095574.2244   23095586.4644
  -1024977.739 9   -313525.41745  23642383.040    23642382.5904   23642402.7454
   -483868.142 9   -359092.07747  20226495.229    20226494.6194   20226506.7384
  -1071026.769 9   -804468.47046  21655555.997    21655556.2204   21655569.6764
  -1062724.067 9   -793104.57846  21879887.183    21879886.2804   21879902.3644
    345338.565 9    270318.23145  24102723.624    24102723.2934   24102747.9514
 00  4 17 20  0 38.0000000  0  7 24  4  6  5 30 10  9               -0.000000037
    -73797.651 9    -48574.13047  20594182.625    20594182.3044   20594194.5634
    377496.403 9    295043.26545  23096178.302    23096178.2494   23096190.4604
  -1027310.003 9   -315342.75845  23641939.214    23641938.6974   23641958.8924
   -483987.998 9   -359185.47447  20226472.419    20226471.8154   20226483.9154
  -1073463.721 9   -806367.39046  21655092.274    21655092.5114   21655105.9404
  -1065241.876 9   -795066.50246  21879408.047    21879407.1324   21879423.2144
    348387.657 9    272694.13345  24103303.851    24103303.5104   24103328.1814
 00  4 17 20  0 39.0000000  0  7 24  4  6  5 30 10  9               -0.000000039
    -72347.437 9    -47444.09247  20594458.607    20594458.2934   20594470.5334
    380670.651 9    297516.70645  23096782.338    23096782.2714   23096794.4834
  -1029642.236 9   -317160.07445  23641495.396    23641494.8244   23641515.0544
   -484107.192 9   -359278.35147  20226449.741    20226449.1214   20226461.2524
  -1075900.283 9   -808266.01046  21654628.598    21654628.8234   21654642.2584
  -1067759.200 9   -797028.05846  21878929.031    21878928.1234   21878944.2114
    351436.770 9    275070.03545  24103884.085    24103883.7374   24103908.3994
 00  4 17 20  0 40.0000000  0  7 24  4  6  5 30 10  9               -0.000000040
    -70896.773 9    -46313.70447  20594734.643    20594734.3224   20594746.5774
    383845.055 9    299990.26945  23097386.418    23097386.3514   23097398.5434
  -1031974.473 9   -318977.39545  23641051.602    23641051.0014   23641071.2514
   -484225.710 9   -359370.70347  20226427.190    20226426.5764   20226438.6874
  -1078336.475 9   -810164.34146  21654165.018    21654165.2434   21654178.6714
  -1070276.049 9   -798989.21846  21878450.065    21878449.1554   21878465.2524
    354485.881 9    277445.95345  24104464.335    24104463.9964   24104488.6584
 00  4 17 20  0 41.0000000  0  7 24  4  6  5 30 10  9               -0.000000041
    -69445.678 9    -45182.98547  20595010.796    20595010.4914   20595022.7174
    387019.583 9    302463.92245  23097990.502    23097990.4354   23098002.6284
  -1034306.678 9   -320794.68545  23640607.779    23640607.1404   23640627.3964
   -484343.577 9   -359462.55147  20226404.756    20226404.1524   20226416.2624
  -1080772.274 9   -812062.36346  21653701.504    21653701.7254   21653715.1634
  -1072792.428 9   -800950.02746  21877971.213    21877970.3164   21877986.4054
    357535.045 9    279821.91145  24105044.580    24105044.2354   24105068.8974
 00  4 17 20  0 42.0000000  0  7 24  4  6  5 30 10  9               -0.000000043
    -67994.139 9    -44051.91847  20595286.996    20595286.6804   20595298.9144
    390194.285 9    304937.72745  23098594.646    23098594.5744   23098606.7804
  -1036638.834 9   -322611.94745  23640163.977    23640163.2474   23640183.5544
   -484460.773 9   -359553.87347  20226382.471    20226381.8574   20226393.9784
  -1083207.658 9   -813960.05846  21653238.065    21653238.2854   21653251.7264
  -1075308.325 9   -802910.46146  21877492.457    21877491.5484   21877507.6404
    360584.229 9    282197.89245  24105624.843    24105624.4934   24105649.1644
 00  4 17 20  0 43.0000000  0  7 24  4  6  5 30 10  9               -0.000000044
    -66542.148 9    -42920.48847  20595563.317    20595562.9894   20595575.2354
    393369.098 9    307411.60545  23099198.799    23099198.7284   23099210.9214
  -1038971.006 9   -324429.21445  23639720.174    23639719.3444   23639739.7454
   -484577.312 9   -359644.67847  20226360.286    20226359.6734   20226371.7924
  -1085642.697 9   -815857.49346  21652774.694    21652774.9254   21652788.3424
  -1077823.766 9   -804870.54446  21877013.762    21877012.8594   21877028.9344
    363633.412 9    284573.85445  24106205.099    24106204.7414   24106229.3994
 00  4 17 20  0 44.0000000  0  7 24  4  6  5 30 10  9               -0.000000046
    -65089.696 9    -41788.71147  20595839.698    20595839.3674   20595851.6194
    396544.085 9    309885.61745  23099802.962    23099802.8814   23099815.0894
  -1041303.124 9   -326246.44345  23639276.395    23639275.5314   23639295.9574
   -484693.166 9   -359734.95447  20226338.229    20226337.6084   20226349.7384
  -1088077.301 9   -817754.59046  21652311.386    21652311.6264   21652325.0224
  -1080338.717 9   -806830.23346  21876535.186    21876534.2814   21876550.3624
    366682.650 9    286949.86645  24106785.353    24106784.9994   24106809.6484
 00  4 17 20  0 45.0000000  0  7 24  4  6  5 30 10  9               -0.000000048
    -63636.891 9    -40656.65647  20596116.164    20596115.8364   20596128.0774
    399719.135 9    312359.68845  23100407.151    23100407.0324   23100419.2814
  -1043635.266 9   -328063.69245  23638832.598    23638831.7274   23638852.1544
   -484808.439 9   -359824.77347  20226316.295    20226315.6834   20226327.7964
  -1090511.570 9   -819651.41846  21651848.155    21651848.3874   21651861.7884
  -1082853.256 9   -808789.60146  21876056.676    21876055.7624   21876071.8624
    369731.839 9    289325.83645  24107365.595    24107365.2484   24107389.8894
 00  4 17 20  0 46.0000000  0  7 24  4  6  5 30 10  9               -0.000000049
    -62183.610 9    -39524.22847  20596392.723    20596392.3944   20596404.6264
    402894.363 9    314833.87745  23101011.383    23101011.2534   23101023.5104
  -1045967.359 9   -329880.90045  23638388.808    23638387.9354   23638408.3534
   -484923.008 9   -359914.05247  20226294.513    20226293.8984   20226306.0144
  -1092945.420 9   -821547.91146  21651385.017    21651385.2394   21651398.6544
  -1085367.293 9   -810748.59046  21875578.279    21875577.3634   21875593.4654
    372781.081 9    291701.85245  24107945.861    24107945.5164   24107970.1604
 00  4 17 20  0 47.0000000  0  7 24  4  6  5 30 10  9               -0.000000051
    -60729.896 9    -38391.46147  20596669.346    20596669.0234   20596681.2514
    406069.744 9    317308.20045  23101615.639    23101615.5054   23101627.7624
  -1048299.433 9   -331698.09745  23637945.012    23637944.1224   23637964.5464
   -485036.942 9   -360002.83147  20226272.828    20226272.2134   20226284.3284
  -1095378.879 9   -823444.11046  21650921.959    21650922.1694   21650935.5854
  -1087880.871 9   -812707.21846  21875099.937    21875099.0444   21875115.1064
    375830.334 9    294077.87845  24108526.103    24108525.7364   24108550.3994
 00  4 17 20  0 48.0000000  0  7 24  4  6  5 30 10  9               -0.000000052
    -59275.685 9    -37258.31047  20596946.074    20596945.7514   20596957.9734
    409245.323 9    319782.68545  23102219.956    23102219.8254   23102232.0814
  -1050631.412 9   -333515.21845  23637501.263    23637500.3794   23637520.7784
   -485150.171 9   -360091.06147  20226251.271    20226250.6584   20226262.7794
  -1097811.875 9   -825339.94646  21650458.952    21650459.1594   21650472.5764
  -1090393.918 9   -814665.43946  21874621.719    21874620.8154   21874636.8854
    378879.671 9    296453.96645  24109106.387    24109106.0134   24109130.6684
 00  4 17 20  0 49.0000000  0  7 24  4  6  5 30 10  9               -0.000000053
    -57821.027 9    -36124.81147  20597222.897    20597222.5704   20597234.8014
    412421.036 9    322257.26345  23102824.275    23102824.1304   23102836.3814
  -1052963.394 9   -335332.33945  23637057.476    23637056.5974   23637076.9624
   -485262.740 9   -360178.77647  20226229.852    20226229.2234   20226241.3454
  -1100244.495 9   -827235.49646  21649996.047    21649996.2504   21650009.6754
  -1092906.498 9   -816623.28546  21874143.588    21874142.6864   21874158.7604
    381929.025 9    298830.06945  24109686.664    24109686.2914   24109710.9404
 00  4 17 20  0 50.0000000  0  7 24  4  6  5 30 10  9               -0.000000055
    -56365.904 9    -34990.94947  20597499.774    20597499.4484   20597511.6814
    415596.882 9    324731.95045  23103428.614    23103428.4394   23103440.6904
  -1055295.303 9   -337149.40745  23636613.721    23636612.8344   23636633.1854
   -485374.637 9   -360265.97147  20226208.569    20226207.9484   20226220.0724
  -1102676.681 9   -829130.70746  21649533.207    21649533.4104   21649546.8424
  -1095418.587 9   -818580.74846  21873665.563    21873664.6674   21873680.7264
    384978.420 9    301206.20545  24110266.958    24110266.5894   24110291.2384
 00  4 17 20  0 51.0000000  0  7 24  4  6  5 30 10  9               -0.000000056
    -54910.393 9    -33856.78347  20597776.764    20597776.4364   20597788.6824
    418772.839 9    327206.71045  23104032.984    23104032.8114   23104045.0474
  -1057627.242 9   -338966.49345  23636169.961    23636169.0814   23636189.4164
   -485485.941 9   -360352.70047  20226187.381    20226186.7524   20226198.8804
  -1105108.516 9   -831025.64046  21649070.465    21649070.6704   21649084.0874
  -1097930.247 9   -820537.87846  21873187.591    21873186.7084   21873202.7584
    388027.798 9    303582.31845  24110847.248    24110846.8874   24110871.5344
 00  4 17 20  0 52.0000000  0  7 24  4  6  5 30 10  9               -0.000000058
    -53454.493 9    -32722.31847  20598053.804    20598053.4744   20598065.7074
    421948.856 9    329681.52845  23104637.362    23104637.2204   23104649.4454
  -1059959.234 9   -340783.62545  23635726.183    23635725.2984   23635745.6494
   -485596.637 9   -360438.95347  20226166.323    20226165.6974   20226177.8124
  -1107540.028 9   -832920.31746  21648607.750    21648607.9614   21648621.3574
  -1100441.505 9   -822494.70146  21872709.701    21872708.8184   21872724.8654
    391077.120 9    305958.39445  24111427.510    24111427.1454   24111451.8084
 00  4 17 20  0 53.0000000  0  7 24  4  6  5 30 10  9               -0.000000060
    -51998.071 9    -31587.44547  20598330.955    20598330.6234   20598342.8554
    425125.111 9    332156.52445  23105241.781    23105241.6584   23105253.8774
  -1062291.106 9   -342600.66145  23635282.426    23635281.5354   23635301.8914
   -485706.592 9   -360524.63447  20226145.411    20226144.7914   20226156.9064
  -1109971.043 9   -834814.62246  21648145.152    21648145.3514   21648158.7494
  -1102952.204 9   -824451.08346  21872231.953    21872231.0704   21872247.1114
    394126.590 9    308334.59045  24112007.825    24112007.4734   24112032.1474
 00  4 17 20  0 54.0000000  0  7 24  4  6  5 30 10  9               -0.000000061
    -50541.270 9    -30452.27647  20598608.187    20598607.8514   20598620.0884
    428301.509 9    334631.64445  23105846.220    23105846.0474   23105858.3294
  -1064622.959 9   -344417.67945  23634838.694    23634837.8134   23634858.1594
   -485815.922 9   -360609.82547  20226124.603    20226123.9864   20226136.1034
  -1112401.676 9   -836708.60346  21647682.607    21647682.8014   21647696.2034
  -1105462.460 9   -826407.11546  21871754.245    21871753.3614   21871769.4074
    397176.056 9    310710.78345  24112588.099    24112587.7714   24112612.4434
 00  4 17 20  0 55.0000000  0  7 24  4  6  5 30 10  9               -0.000000062
    -49084.022 9    -29316.75347  20598885.478    20598885.1484   20598897.3754
    431478.050 9    337106.86545  23106450.697    23106450.5074   23106462.8204
  -1066954.798 9   -346234.68545  23634394.949    23634394.0794   23634414.3984
   -485924.577 9   -360694.49747  20226103.908    20226103.2804   20226115.4114
  -1114831.914 9   -838602.30046  21647220.162    21647220.3614   21647233.7634
  -1107972.245 9   -828362.77646  21871276.661    21871275.7914   21871291.8194
    400225.544 9    313086.99845  24113168.407    24113168.0994   24113192.7704
 00  4 17 20  0 56.0000000  0  7 24  4  6  5 30 10  9               -0.000000064
    -47626.389 9    -28180.93647  20599162.875    20599162.5374   20599174.7864
    434654.692 9    339582.16445  23107055.203    23107055.0004   23107067.3094
  -1069286.613 9   -348051.67245  23633951.199    23633950.3564   23633970.6394
   -486032.613 9   -360778.67747  20226083.371    20226082.7344   20226094.8734
  -1117261.762 9   -840495.68346  21646757.769    21646757.9714   21646771.3634
  -1110481.586 9   -830318.10546  21870799.137    21870798.2624   21870814.2914
    403275.035 9    315463.20945  24113748.721    24113748.4364   24113773.1034
 00  4 17 20  0 57.0000000  0  7 24  4  6  5 30 10  9               -0.000000065
    -46168.251 9    -27044.72747  20599440.347    20599440.0054   20599452.2594
    437831.568 9    342057.63845  23107659.736    23107659.5214   23107671.8354
  -1071618.320 9   -349868.57945  23633507.494    23633506.6734   23633526.9274
   -486139.931 9   -360862.30447  20226062.951    20226062.3194   20226074.4634
  -1119691.150 9   -842388.72046  21646295.476    21646295.6624   21646309.0584
  -1112990.415 9   -832273.03246  21870321.701    21870320.8234   21870336.8614
    406324.610 9    317839.49045  24114329.049    24114328.7954   24114353.4444
 00  4 17 20  0 58.0000000  0  7 24  4  6  5 30 10  9               -0.000000067
    -44709.717 9    -25908.20447  20599717.879    20599717.5324   20599729.7814
    441008.556 9    344533.21445  23108264.292    23108264.0714   23108276.3744
  -1073950.029 9   -351685.48745  23633063.770    23633062.9714   23633083.1984
   -486246.605 9   -360945.42447  20226042.644    20226042.0124   20226054.1384
  -1122120.205 9   -844281.48346  21645833.254    21645833.4324   21645846.8284
  -1115498.793 9   -834227.60146  21869844.395    21869843.5034   21869859.5534
    409374.204 9    320215.78645  24114909.357    24114909.1354   24114933.7634
 00  4 17 20  0 59.0000000  0  7 24  4  6  5 30 10  9               -0.000000068
    -43250.785 9    -24771.37047  20599995.528    20599995.1804   20600007.4254
    444185.678 9    347008.89345  23108868.888    23108868.6734   23108880.9664
  -1076281.712 9   -353502.37545  23632620.076    23632619.2794   23632639.5244
   -486352.656 9   -361028.06347  20226022.461    20226021.8364   20226033.9704
  -1124548.867 9   -846173.93646  21645371.086    21645371.2714   21645384.6544
  -1118006.721 9   -836181.83346  21869367.145    21869366.2534   21869382.2994
    412423.792 9    322592.07345  24115489.704    24115489.4934   24115514.1094
 00  4 17 20  1  0.0000000  0  7 24  4  6  5 30 10  9               -0.000000070
    -41791.374 9    -23634.16947  20600273.217    20600272.8774   20600285.1254
    447363.003 9    349484.74445  23109473.523    23109473.3244   23109485.6204
  -1078613.300 9   -355319.19145  23632176.372    23632175.5464   23632195.8264
   -486458.002 9   -361110.15147  20226002.402    20226001.7604   20226013.9064
  -1126977.073 9   -848066.04446  21644909.027    21644909.2114   21644922.5904
  -1120514.138 9   -838135.66146  21868889.986    21868889.0934   21868905.1464
    415473.452 9    324968.41545  24116070.040    24116069.8134   24116094.4534
 00  4 17 20  1  1.0000000  0  7 24  4  6  5 30 10  9               -0.000000071
    -40331.555 9    -22496.64747  20600551.017    20600550.6854   20600562.9184
    450540.492 9    351960.72245  23110078.183    23110077.9854   23110090.3064
  -1080944.857 9   -357135.98545  23631732.671    23631731.8234   23631752.1194
   -486562.683 9   -361191.72047  20225982.484    20225981.8544   20225993.9784
  -1129404.905 9   -849957.85946  21644447.023    21644447.2114   21644460.5834
  -1123021.096 9   -840089.11846  21868412.915    21868412.0234   21868428.0824
    418523.150 9    327344.78245  24116650.386    24116650.1414   24116674.7834
 00  4 17 20  1  2.0000000  0  7 24  4  6  5 30 10  9               -0.000000072
    -38871.314 9    -21358.79847  20600828.888    20600828.5434   20600840.7954
    453718.092 9    354436.77545  23110682.849    23110682.6764   23110694.9864
  -1083276.380 9   -358952.74345  23631289.014    23631288.1414   23631308.4694
   -486666.733 9   -361272.79847  20225962.683    20225962.0584   20225974.1914
  -1131832.344 9   -851849.37246  21643985.094    21643985.2814   21643998.6514
  -1125527.592 9   -842042.23846  21867935.962    21867935.0834   21867951.1164
    421572.882 9    329721.17645  24117230.734    24117230.4694   24117255.1104
 00  4 17 20  1  3.0000000  0  7 24  4  6  5 30 10  9               -0.000000074
    -37410.598 9    -20220.58047  20601106.860    20601106.5304   20601118.7604
    456895.928 9    356913.01745  23111287.590    23111287.4194   23111299.7464
  -1085607.810 9   -360769.43145  23630845.343    23630844.4574   23630864.7854
   -486770.079 9   -361353.32947  20225943.039    20225942.4014   20225954.5484
  -1134259.325 9   -853740.52446  21643523.257    21643523.4414   21643536.8004
  -1128033.570 9   -843994.93946  21867459.070    21867458.1844   21867474.2264
    424622.696 9    332097.63545  24117811.106    24117810.8274   24117835.4824
 00  4 17 20  1  4.0000000  0  7 24  4  6  5 30 10  9               -0.000000075
    -35949.484 9    -19082.04547  20601384.896    20601384.5684   20601396.8004
    460073.863 9    359389.32045  23111892.332    23111892.1794   23111904.4864
  -1087939.225 9   -362586.11145  23630401.694    23630400.8144   23630421.1364
   -486872.795 9   -361433.36647  20225923.491    20225922.8554   20225934.9994
  -1136685.960 9   -855631.40446  21643061.497    21643061.6904   21643075.0374
  -1130539.102 9   -845947.28946  21866982.282    21866981.3954   21866997.4284
    427672.540 9    334474.11645  24118391.489    24118391.2154   24118415.8544
 00  4 17 20  1  5.0000000  0  7 24  4  6  5 30 10  9               -0.000000076
    -34488.016 9    -17943.23747  20601663.028    20601662.6964   20601674.9344
    463251.879 9    361865.68845  23112497.064    23112496.9214   23112509.2154
  -1090270.670 9   -364402.81145  23629958.013    23629957.1414   23629977.4594
   -486974.937 9   -361512.95847  20225904.053    20225903.4084   20225915.5704
  -1139112.256 9   -857522.02446  21642599.780    21642599.9604   21642613.3104
  -1133044.225 9   -847899.34146  21866505.559    21866504.6644   21866520.6954
    430722.351 9    336850.58145  24118971.861    24118971.5544   24118996.2304
 00  4 17 20  1  6.0000000  0  7 24  4  6  5 30 10  9               -0.000000078
    -33026.060 9    -16804.05247  20601941.231    20601940.9034   20601953.1364
    466430.128 9    364342.23245  23113101.870    23113101.7134   23113113.9994
  -1092601.981 9   -366219.41145  23629514.396    23629513.5294   23629533.8404
   -487076.351 9   -361591.98347  20225884.750    20225884.1124   20225896.2544
  -1141538.070 9   -859412.26246  21642138.168    21642138.3494   21642151.7014
  -1135548.795 9   -849850.94446  21866028.970    21866028.0844   21866044.1054
    433772.290 9    339227.13745  24119552.265    24119551.9334   24119576.6334
 00  4 17 20  1  7.0000000  0  7 24  4  6  5 30 10  9               -0.000000079
    -31563.685 9    -15664.53847  20602219.492    20602219.1604   20602231.3964
    469608.503 9    366818.87345  23113706.707    23113706.5444   23113718.8464
  -1094933.269 9   -368035.99145  23629070.756    23629069.8954   23629090.1934
   -487177.142 9   -361670.52047  20225865.560    20225864.9254   20225877.0674
  -1143963.522 9   -861302.22046  21641676.624    21641676.7994   21641690.1454
  -1138052.917 9   -851802.19946  21865552.455    21865551.5744   21865567.5934
    436822.239 9    341603.69845  24120132.661    24120132.3204   24120157.0324
 00  4 17 20  1  8.0000000  0  7 24  4  6  5 30 10  9               -0.000000080
    -30100.912 9    -14524.71647  20602497.868    20602497.5384   20602509.7654
    472787.004 9    369295.62445  23114311.537    23114311.3844   23114323.6874
  -1097264.539 9   -369852.56245  23628627.122    23628626.2724   23628646.5544
   -487277.314 9   -361748.57447  20225846.523    20225845.8884   20225858.0254
  -1146388.582 9   -863191.86546  21641215.146    21641215.3284   21641228.6744
  -1140556.573 9   -853753.07946  21865075.996    21865075.1234   21865091.1304
    439872.219 9    343980.28645  24120713.077    24120712.7284   24120737.4514
 00  4 17 20  1  9.0000000  0  7 24  4  6  5 30 10  9               -0.000000081
    -28637.645 9    -13384.50547  20602776.311    20602775.9854   20602788.2044
    475965.724 9    371772.55345  23114916.451    23114916.3054   23114928.6034
  -1099595.686 9   -371669.03545  23628183.521    23628182.6994   23628202.9444
   -487376.774 9   -361826.07947  20225827.579    20225826.9514   20225839.0894
  -1148813.167 9   -865081.14646  21640753.766    21640753.9484   21640767.2924
  -1143059.682 9   -855703.55446  21864599.667    21864598.7844   21864614.7874
    442922.306 9    346356.95945  24121293.495    24121293.1264   24121317.8764
 00  4 17 20  1 10.0000000  0  7 24  4  6  5 30 10  9               -0.000000082
    -27174.023 9    -12244.02347  20603054.844    20603054.5124   20603066.7504
    479144.536 9    374249.54145  23115521.357    23115521.2274   23115533.5074
  -1101926.881 9   -373485.54145  23627739.897    23627739.0764   23627759.3024
   -487475.656 9   -361903.12647  20225808.777    20225808.1544   20225820.2864
  -1151237.454 9   -866970.20646  21640292.451    21640292.6274   21640305.9824
  -1145562.373 9   -857653.69646  21864123.441    21864122.5634   21864138.5434
    445972.353 9    348733.61445  24121873.892    24121873.5244   24121898.2804
 00  4 17 20  1 11.0000000  0  7 24  4  6  5 30 10  9               -0.000000084
    -25709.912 9    -11103.15647  20603333.448    20603333.1194   20603345.3414
    482323.541 9    376726.70645  23116126.289    23116126.1504   23116138.4554
  -1104257.988 9   -375301.97545  23627296.287    23627295.4934   23627315.6874
   -487573.859 9   -361979.65147  20225790.079    20225789.4574   20225801.5944
  -1153661.290 9   -868858.90746  21639831.188    21639831.3574   21639844.7154
  -1148064.552 9   -859603.43946  21863647.282    21863646.4034   21863662.3704
    449022.483 9    351110.32145  24122454.322    24122453.9624   24122478.7014
 00  4 17 20  1 12.0000000  0  7 24  4  6  5 30 10  9               -0.000000085
    -24245.373 9     -9961.96047  20603612.136    20603611.8074   20603624.0414
    485502.700 9    379203.99145  23116731.283    23116731.1214   23116743.4414
  -1106589.060 9   -377118.38945  23626852.687    23626851.9204   23626872.0654
   -487671.420 9   -362055.67147  20225771.500    20225770.8604   20225783.0154
  -1156084.731 9   -870747.29246  21639370.051    21639370.2064   21639383.5944
  -1150566.255 9   -861552.81746  21863171.225    21863170.3334   21863186.3034
    452072.655 9    353487.06745  24123034.758    24123034.3614   24123059.1204
 00  4 17 20  1 13.0000000  0  7 24  4  6  5 30 10  9               -0.000000086
    -22780.448 9     -8820.45747  20603890.909    20603890.5834   20603902.8164
    488682.001 9    381681.36545  23117336.264    23117336.0924   23117348.4084
  -1108920.148 9   -378934.82045  23626409.095    23626408.3674   23626428.4734
   -487768.362 9   -362131.21047  20225753.076    20225752.4434   20225764.5964
  -1158507.826 9   -872635.42746  21638908.933    21638909.1054   21638922.4614
  -1153067.513 9   -863501.83846  21862695.237    21862694.3324   21862710.3084
    455122.847 9    355863.82545  24123615.202    24123614.8094   24123639.5424
 00  4 17 20  1 14.0000000  0  7 24  4  6  5 30 10  9               -0.000000087
    -21315.083 9     -7678.61047  20604169.771    20604169.4404   20604181.6734
    491861.441 9    384158.85345  23117941.293    23117941.1124   23117953.4284
  -1111251.194 9   -380751.21545  23625965.503    23625964.8044   23625984.8744
   -487864.663 9   -362206.24847  20225734.729    20225734.1064   20225746.2374
  -1160930.518 9   -874523.23046  21638447.923    21638448.0944   21638461.4544
  -1155568.286 9   -865450.49846  21862219.366    21862218.4614   21862234.4214
    458173.081 9    358240.62345  24124195.651    24124195.2374   24124219.9984
 00  4 17 20  1 15.0000000  0  7 24  4  6  5 30 10  9               -0.000000088
    -19849.274 9     -6536.42447  20604448.684    20604448.3474   20604460.5784
    495041.047 9    386636.45345  23118546.366    23118546.1824   23118558.5074
  -1113582.172 9   -382567.55945  23625521.923    23625521.2424   23625541.2914
   -487960.299 9   -362280.76847  20225716.538    20225715.9084   20225728.0534
  -1163352.792 9   -876410.70446  21637986.974    21637987.1434   21638000.5164
  -1158068.556 9   -867398.75246  21861743.580    21861742.6714   21861758.6334
    461223.367 9    360617.44545  24124776.132    24124775.7064   24124800.4794
 00  4 17 20  1 16.0000000  0  7 24  4  6  5 30 10  9               -0.000000089
    -18383.032 9     -5393.89647  20604727.700    20604727.3744   20604739.5954
    498220.856 9    389114.20145  23119151.451    23119151.2844   23119163.6034
  -1115913.113 9   -384383.86745  23625078.363    23625077.6794   23625097.7394
   -488055.287 9   -362354.79147  20225698.447    20225697.8114   20225709.9674
  -1165774.693 9   -878297.90746  21637526.105    21637526.2724   21637539.6414
  -1160568.342 9   -869346.62346  21861267.885    21861266.9704   21861282.9204
    464273.709 9    362994.31745  24125356.595    24125356.1634   24125380.9564
 00  4 17 20  1 17.0000000  0  7 24  4  6  5 30 10  9               -0.000000090
    -16916.405 9     -4251.06947  20605006.807    20605006.4814   20605018.7034
    501400.763 9    391592.05245  23119756.596    23119756.4164   23119768.7494
  -1118244.050 9   -386200.17345  23624634.793    23624634.1074   23624654.1644
   -488149.672 9   -362428.33547  20225680.493    20225679.8734   20225692.0204
  -1168196.236 9   -880184.82146  21637065.308    21637065.4714   21637078.8444
  -1163067.692 9   -871294.15546  21860792.262    21860791.3504   21860807.3094
    467324.028 9    365371.17245  24125937.051    24125936.6214   24125961.4354
 00  4 17 20  1 18.0000000  0  7 24  4  6  5 30 10  9               -0.000000091
    -15449.304 9     -3107.87447  20605285.977    20605285.6384   20605297.8794
    504580.889 9    394070.06645  23120361.732    23120361.5394   23120373.8874
  -1120574.901 9   -388016.41545  23624191.253    23624190.5444   23624210.6114
   -488243.371 9   -362501.34747  20225662.665    20225662.0454   20225674.1884
  -1170617.330 9   -882071.38346  21636604.574    21636604.7414   21636618.1064
  -1165566.509 9   -873241.28246  21860316.753    21860315.8294   21860331.8034
    470374.448 9    367748.10045  24126517.542    24126517.1184   24126541.9464
 00  4 17 20  1 19.0000000  0  7 24  4  6  5 30 10  9               -0.000000092
    -13981.798 9     -1964.36547  20605565.249    20605564.9144   20605577.1504
    507761.159 9    396548.19845  23120966.930    23120966.7104   23120979.1014
  -1122905.763 9   -389832.66245  23623747.697    23623746.9714   23623767.0494
   -488336.468 9   -362573.89047  20225644.941    20225644.3084   20225656.4724
  -1173038.111 9   -883957.70446  21636143.936    21636144.0894   21636157.4714
  -1168064.894 9   -875188.06946  21859841.323    21859840.3974   21859856.3634
    473424.868 9    370125.03445  24127098.041    24127097.6354   24127122.4534
 00  4 17 20  1 20.0000000  0  7 24  4  6  5 30 10  9               -0.000000093
    -12513.879 9      -820.53047  20605844.580    20605844.2314   20605856.4904
    510941.529 9    399026.43345  23121572.131    23121571.8714   23121584.3244
  -1125236.589 9   -391648.88245  23623304.152    23623303.4094   23623323.5004
   -488428.945 9   -362645.95147  20225627.342    20225626.7204   20225638.8614
  -1175458.511 9   -885843.73146  21635683.330    21635683.4984   21635696.8744
  -1170562.827 9   -877134.51146  21859365.977    21859365.0474   21859381.0204
    476475.294 9    372501.97145  24127678.510    24127678.1334   24127702.9504
 00  4 17 20  1 21.0000000  0  7 24  4  6  5 30 10  9               -0.000000094
    -11045.487 9       323.67147  20606123.997    20606123.6574   20606135.8894
    514122.098 9    401504.78945  23122177.372    23122177.0814   23122189.5784
  -1127567.341 9   -393465.05045  23622860.607    23622859.8354   23622879.9394
   -488520.736 9   -362717.47947  20225609.889    20225609.2724   20225621.4244
  -1177878.465 9   -887729.40446  21635222.822    21635222.9874   21635236.3604
  -1173060.222 9   -879080.52546  21858890.748    21858889.8254   21858905.7844
    479525.808 9    374878.97145  24128259.012    24128258.6624   24128283.4544
 00  4 17 20  1 22.0000000  0  7 24  4  6  5 30 10  9               -0.000000095
     -9576.684 9      1468.19447  20606403.518    20606403.1844   20606415.4214
    517302.779 9    403983.23545  23122782.658    23122782.3794   23122794.8874
  -1129898.073 9   -395281.20245  23622417.064    23622416.2724   23622436.3844
   -488611.916 9   -362788.52447  20225592.519    20225591.8944   20225604.0584
  -1180298.080 9   -889614.81246  21634762.411    21634762.5664   21634775.9344
  -1175557.170 9   -881026.18746  21858415.590    21858414.6644   21858430.6264
    482576.332 9    377255.98545  24128839.521    24128839.1904   24128863.9804
 00  4 17 20  1 23.0000000  0  7 24  4  6  5 30 10  9               -0.000000096
     -8107.461 9      2613.04547  20606683.097    20606682.7604   20606694.9954
    520483.575 9    406461.78145  23123387.926    23123387.6704   23123400.1844
  -1132228.762 9   -397097.31845  23621973.570    23621972.7694   23621992.8764
   -488702.477 9   -362859.09047  20225575.298    20225574.6764   20225586.8374
  -1182717.303 9   -891499.91746  21634302.050    21634302.1954   21634315.5754
  -1178053.631 9   -882971.47546  21857940.537    21857939.6044   21857955.5754
    485626.894 9    379633.03245  24129420.037    24129419.7294   24129444.5074
 00  4 17 20  1 24.0000000  0  7 24  4  6  5 30 10  9               -0.000000096
     -6637.765 9      3758.25747  20606962.778    20606962.4374   20606974.6754
    523664.603 9    408940.51445  23123993.258    23123993.0134   23124005.5454
  -1134559.371 9   -398913.37145  23621530.053    23621529.2464   23621549.3624
   -488792.358 9   -362929.12547  20225558.194    20225557.5774   20225569.7254
  -1185136.077 9   -893384.67346  21633841.760    21633841.9034   21633855.2824
  -1180549.564 9   -884916.35846  21857465.571    21857464.6424   21857480.6074
    488677.545 9    382010.14545  24130000.577    24130000.2764   24130025.0614
 00  4 17 20  1 25.0000000  0  7 24  4  6  5 30 10  9               -0.000000097
     -5167.671 9      4903.78747  20607242.522    20607242.1834   20607254.4264
    526845.765 9    411419.33545  23124598.632    23124598.4024   23124610.9324
  -1136889.937 9   -400729.38945  23621086.551    23621085.7534   23621105.8644
   -488881.632 9   -362998.69347  20225541.209    20225540.5994   20225552.7384
  -1187554.515 9   -895269.16646  21633381.557    21633381.7024   21633395.0734
  -1183045.040 9   -886860.87446  21856990.695    21856989.7714   21857005.7314
    491728.197 9    384387.26145  24130581.122    24130580.8354   24130605.6094
 00  4 17 20  1 26.0000000  0  7 24  4  6  5 30 10  9               -0.000000098
     -3697.191 9      6049.61447  20607522.350    20607522.0094   20607534.2584
    530027.040 9    413898.24045  23125204.001    23125203.7944   23125216.3054
  -1139220.492 9   -402545.40645  23620643.057    23620642.2504   23620662.3674
   -488970.297 9   -363067.78447  20225524.343    20225523.7414   20225535.8804
  -1189972.577 9   -897153.38046  21632921.389    21632921.5314   21632934.9184
  -1185540.046 9   -888805.03646  21856515.896    21856514.9604   21856530.9474
    494778.856 9    386764.38445  24131161.636    24131161.3534   24131186.1264
 00  4 17 20  1 27.0000000  0  7 24  4  6  5 30 10  9               -0.000000099
     -2226.204 9      7195.83447  20607802.283    20607801.9454   20607814.1864
    533208.553 9    416377.34645  23125809.440    23125809.2454   23125821.7594
  -1141550.915 9   -404361.31845  23620199.596    23620198.7874   23620218.9024
   -489058.240 9   -363136.30947  20225507.612    20225507.0134   20225519.1554
  -1192390.156 9   -899037.19946  21632461.363    21632461.4894   21632474.8784
  -1188034.491 9   -890748.74046  21856041.213    21856040.2884   21856056.2614
    497829.651 9    389141.61245  24131742.198    24131741.9024   24131766.6904
 00  4 17 20  1 28.0000000  0  7 24  4  6  5 30 10  9               -0.000000099
      -754.913 9      8342.30147  20608082.259    20608081.9224   20608094.1614
    536390.112 9    418856.49445  23126414.853    23126414.6664   23126427.2054
  -1143881.391 9   -406177.26945  23619756.116    23619755.3244   23619775.4204
   -489145.664 9   -363204.43247  20225490.969    20225490.3644   20225502.5074
  -1194807.486 9   -900920.83846  21632001.334    21632001.4574   21632014.8404
  -1190528.567 9   -892692.16746  21855566.629    21855565.6974   21855581.6744
    500880.369 9    391518.78145  24132322.740    24132322.4404   24132347.2544
 00  4 17 20  1 29.0000000  0  7 24  4  6  5 30 10  9               -0.000000100
       716.863 9      9489.13847  20608362.332    20608361.9984   20608374.2264
    539571.875 9    421335.78445  23127020.343    23127020.1384   23127032.6844
  -1146211.760 9   -407993.13845  23619312.663    23619311.8704   23619331.9604
   -489232.400 9   -363272.02047  20225474.460    20225473.8564   20225485.9924
  -1197224.357 9   -902804.10646  21631541.426    21631541.5464   21631554.9214
  -1193022.109 9   -894635.18546  21855092.100    21855091.1554   21855107.1484
    503931.183 9    393896.01245  24132903.330    24132903.0374   24132927.8384
 00  4 17 20  1 30.0000000  0  7 24  4  6  5 30 10  9               -0.000000101
      2189.068 9     10636.31347  20608642.486    20608642.1544   20608654.3864
    542753.805 9    423815.20245  23127625.844    23127625.6294   23127638.1794
  -1148542.058 9   -409808.95045  23618869.225    23618868.4284   23618888.5094
   -489318.495 9   -363339.11047  20225458.084    20225457.4874   20225469.6154
  -1199640.818 9   -904687.04946  21631081.596    21631081.7144   21631095.0874
  -1195515.149 9   -896577.80646  21854617.680    21854616.7444   21854632.7284
    506982.041 9    396273.29645  24133483.889    24133483.6074   24133508.4094
 00  4 17 20  1 31.0000000  0  7 24  4  6  5 30 10  9               -0.000000101
      3661.667 9     11783.79547  20608922.714    20608922.3804   20608934.6104
    545935.890 9    426294.74845  23128231.376    23128231.1584   23128243.7074
  -1150872.299 9   -411624.72145  23618425.793    23618425.0044   23618445.0764
   -489403.968 9   -363405.70647  20225441.815    20225441.2184   20225453.3524
  -1202056.912 9   -906569.71646  21630621.806    21630621.9224   21630635.2954
  -1198007.719 9   -898520.05446  21854143.375    21854142.4324   21854158.4314
    510032.935 9    398650.60745  24134064.472    24134064.1654   24134088.9894
 00  4 17 20  1 32.0000000  0  7 24  4  6  5 30 10  9               -0.000000102
      5134.614 9     12931.54747  20609203.000    20609202.6564   20609214.9044
    549118.054 9    428774.32845  23128836.926    23128836.7194   23128849.2364
  -1153202.526 9   -413440.47445  23617982.361    23617981.5724   23618001.6374
   -489488.865 9   -363471.85847  20225425.671    20225425.0604   20225437.1984
  -1204472.654 9   -908452.11846  21630162.115    21630162.2504   21630175.6164
  -1200499.859 9   -900461.98746  21853669.133    21853668.1904   21853684.1854
    513083.820 9    401027.90945  24134645.054    24134644.7324   24134669.5564
 00  4 17 20  1 33.0000000  0  7 24  4  6  5 30 10  9               -0.000000102
      6608.017 9     14079.65247  20609483.373    20609483.0324   20609495.2804
    552300.411 9    431254.07545  23129442.501    23129442.3004   23129454.7874
  -1155532.634 9   -415256.12845  23617538.942    23617538.1584   23617558.2374
   -489573.089 9   -363537.48747  20225409.645    20225409.0504   20225421.1804
  -1206887.949 9   -910334.16646  21629702.490    21629702.6194   21629715.9944
  -1202991.471 9   -902403.49046  21853194.988    21853194.0584   21853210.0374
    516134.793 9    403405.26945  24135225.642    24135225.3194   24135250.1444
 00  4 17 20  1 34.0000000  0  7 24  4  6  5 30 10  9               -0.000000103
      8081.794 9     15228.04947  20609763.825    20609763.4874   20609775.7224
    555482.890 9    433733.95045  23130048.115    23130047.9114   23130060.3854
  -1157862.696 9   -417071.74945  23617095.546    23617094.7464   23617114.8394
   -489656.714 9   -363602.64847  20225393.720    20225393.1124   20225405.2664
  -1209302.873 9   -912215.91346  21629242.940    21629243.0764   21629256.4434
  -1205482.620 9   -904344.63246  21852720.932    21852719.9974   21852735.9894
    519185.767 9    405782.63045  24135806.251    24135805.9374   24135830.7414
 00  4 17 20  1 35.0000000  0  7 24  4  6  5 30 10  9               -0.000000103
      9555.958 9     16376.74647  20610044.371    20610044.0434   20610056.2614
    558665.520 9    436213.92345  23130653.749    23130653.5504   23130665.9934
  -1160192.692 9   -418887.32445  23616652.169    23616651.3634   23616671.4654
   -489739.710 9   -363667.32247  20225377.915    20225377.3234   20225389.4554
  -1211717.394 9   -914097.35746  21628783.465    21628783.5954   21628796.9584
  -1207973.282 9   -906285.40846  21852246.988    21852246.0454   21852262.0324
    522236.771 9    408160.01945  24136386.851    24136386.5564   24136411.3184
 00  4 17 20  1 36.0000000  0  7 24  4  6  5 30 10  9               -0.000000104
     11030.491 9     17525.73547  20610324.961    20610324.6294   20610336.8524
    561848.248 9    438693.96645  23131259.408    23131259.2414   23131271.6324
  -1162522.675 9   -420702.88545  23616208.794    23616207.9794   23616228.0874
   -489822.127 9   -363731.54447  20225362.255    20225361.6634   20225373.7874
  -1214131.555 9   -915978.51646  21628324.078    21628324.2034   21628337.5584
  -1210463.511 9   -908225.84746  21851773.096    21851772.1734   21851788.1264
    525287.774 9    410537.41745  24136967.428    24136967.1254   24136991.8914
 00  4 17 20  1 37.0000000  0  7 24  4  6  5 30 10  9               -0.000000104
     12505.478 9     18675.07247  20610605.626    20610605.2854   20610617.5224
    565031.150 9    441174.13545  23131865.113    23131864.9624   23131877.3424
  -1164852.547 9   -422518.36345  23615765.437    23615764.6164   23615784.7224
   -489903.879 9   -363795.24947  20225346.684    20225346.0944   20225358.2254
  -1216545.283 9   -917859.33646  21627864.739    21627864.8714   21627878.2224
  -1212953.215 9   -910165.87046  21851299.315    21851298.3814   21851314.3484
    528338.833 9    412914.85545  24137548.040    24137547.7694   24137572.4824
 00  4 17 20  1 38.0000000  0  7 24  4  6  5 30 10  9               -0.000000105
     13980.863 9     19824.72647  20610886.395    20610886.0604   20610898.2804
    568214.201 9    443654.44845  23132470.803    23132470.6544   23132483.0324
  -1167182.350 9   -424333.78645  23615322.084    23615321.2734   23615341.3614
   -489985.014 9   -363858.46947  20225331.264    20225330.6654   20225342.7874
  -1218958.599 9   -919739.83646  21627405.508    21627405.6394   21627418.9994
  -1215442.430 9   -912105.50846  21850825.644    21850824.7094   21850840.6664
    531389.917 9    415292.30745  24138128.666    24138128.4384   24138153.0874
 00  4 17 20  1 39.0000000  0  7 24  4  6  5 30 10  9               -0.000000105
     15456.599 9     20974.64847  20611167.225    20611166.8864   20611179.0994
    571397.363 9    446134.81945  23133076.552    23133076.3864   23133088.7784
  -1169512.119 9   -426149.17945  23614878.765    23614877.9414   23614898.0274
   -490065.561 9   -363921.23347  20225315.921    20225315.3164   20225327.4534
  -1221371.534 9   -921620.05546  21626946.327    21626946.4574   21626959.8304
  -1217931.198 9   -914044.80246  21850352.036    21850351.1074   21850367.0564
    534441.011 9    417669.76245  24138709.265    24138709.0764   24138733.6744
 00  4 17 20  1 40.0000000  0  7 24  4  6  5 30 10  9               -0.000000105
     16932.745 9     22124.89347  20611448.118    20611447.7814   20611459.9854
    574580.688 9    448615.33545  23133682.316    23133682.1454   23133694.5224
  -1171841.819 9   -427964.52145  23614435.434    23614434.5984   23614454.6844
   -490145.477 9   -363983.50947  20225300.735    20225300.1264   20225312.2734
  -1223784.084 9   -923499.96646  21626487.237    21626487.3744   21626500.7344
  -1220419.479 9   -915983.70246  21849878.522    21849877.5954   21849893.5364
    537492.108 9    420047.22545  24139289.878    24139289.7264   24139314.2724
 00  4 17 20  1 41.0000000  0  7 24  4  6  5 30 10  9               -0.000000106
     18409.293 9     23275.44847  20611729.102    20611728.7574   20611740.9864
    577764.140 9    451095.95945  23134288.127    23134287.9464   23134300.3224
  -1174171.445 9   -429779.81045  23613992.114    23613991.2654   23614011.3484
   -490224.766 9   -364045.29047  20225285.632    20225285.0264   20225297.1764
  -1226196.222 9   -925379.54746  21626028.216    21626028.3524   21626041.7174
  -1222907.282 9   -917922.24046  21849405.108    21849404.1834   21849420.1114
    540543.252 9    422424.72645  24139870.504    24139870.3554   24139894.8814
 00  4 17 20  1 42.0000000  0  7 24  4  6  5 30 10  9               -0.000000106
     19886.199 9     24426.28647  20612010.135    20612009.8024   20612022.0154
    580947.716 9    453576.67645  23134893.930    23134893.7374   23134906.1344
  -1176501.051 9   -431595.08045  23613548.793    23613547.9324   23613568.0144
   -490303.469 9   -364106.61747  20225270.648    20225270.0474   20225282.1814
  -1228607.986 9   -927258.83846  21625569.271    21625569.4104   21625582.7834
  -1225394.632 9   -919860.44446  21848931.769    21848930.8304   21848946.7884
    543594.390 9    424802.20645  24140451.138    24140450.9834   24140475.5034
 00  4 17 20  1 43.0000000  0  7 24  4  6  5 30 10  9               -0.000000106
     21363.516 9     25577.44447  20612291.266    20612290.9284   20612303.1364
    584131.475 9    456057.54045  23135499.780    23135499.5964   23135511.9824
  -1178830.572 9   -433410.28645  23613105.505    23613104.6284   23613124.7114
   -490381.541 9   -364167.45347  20225255.790    20225255.1874   20225267.3294
  -1231019.337 9   -929137.80446  21625110.415    21625110.5594   21625123.9254
  -1227881.494 9   -921798.25646  21848458.554    21848457.6184   21848473.5774
    546645.561 9    427179.71645  24141031.771    24141031.6024   24141056.1534
 00  4 17 20  1 44.0000000  0  7 24  4  6  5 30 10  9               -0.000000106
     22841.242 9     26728.92047  20612572.461    20612572.1134   20612584.3404
    587315.355 9    458538.48745  23136105.674    23136105.5234   23136117.8884
  -1181160.025 9   -435225.43345  23612662.232    23612661.3454   23612681.4154
   -490459.002 9   -364227.81347  20225241.059    20225240.4474   20225252.5894
  -1233430.281 9   -931016.46346  21624651.610    21624651.7464   21624665.1264
  -1230367.873 9   -923735.68446  21847985.407    21847984.4664   21848000.4234
    549696.749 9    429557.25745  24141612.406    24141612.2304   24141636.8104
 00  4 17 20  1 45.0000000  0  7 24  4  6  5 30 10  9               -0.000000106
     24319.328 9     27880.67747  20612853.747    20612853.3994   20612865.6224
    590499.363 9    461019.53645  23136711.558    23136711.4674   23136723.7824
  -1183489.455 9   -437040.56845  23612218.948    23612218.0524   23612238.1144
   -490535.862 9   -364287.70247  20225226.446    20225225.8284   20225237.9704
  -1235840.816 9   -932894.80546  21624192.902    21624193.0434   21624206.4084
  -1232853.813 9   -925672.77746  21847512.342    21847511.4034   21847527.3504
    552747.935 9    431934.78645  24142193.027    24142192.8654   24142217.4574
 00  4 17 20  1 46.0000000  0  7 24  4  6  5 30 10  9               -0.000000107
     25797.783 9     29032.71647  20613135.069    20613134.7344   20613146.9474
    593683.485 9    463500.64145  23137317.471    23137317.3694   23137329.6854
  -1185818.829 9   -438855.65645  23611775.695    23611774.7894   23611794.8454
   -490612.135 9   -364347.13547  20225211.923    20225211.3174   20225223.4574
  -1238251.003 9   -934772.86346  21623734.269    21623734.4204   21623747.7944
  -1235339.313 9   -927609.52546  21847039.338    21847038.4004   21847054.3384
    555799.071 9    434312.27545  24142773.668    24142773.5344   24142798.1074
 00  4 17 20  1 47.0000000  0  7 24  4  6  5 30 10  9               -0.000000107
     27276.694 9     30185.11747  20613416.510    20613416.1694   20613428.3874
    596867.824 9    465981.93145  23137923.455    23137923.3594   23137935.6734
  -1188148.090 9   -440670.66245  23611332.459    23611331.5454   23611351.6034
   -490687.726 9   -364406.03847  20225197.537    20225196.9184   20225209.0604
  -1240660.704 9   -936650.54446  21623275.703    21623275.8574   21623289.2154
  -1237824.272 9   -929545.84946  21846566.471    21846565.5374   21846581.4604
    558850.307 9    436689.85045  24143354.312    24143354.1914   24143378.7564
 00  4 17 20  1 48.0000000  0  7 24  4  6  5 30 10  9               -0.000000107
     28755.921 9     31337.75947  20613697.989    20613697.6544   20613709.8724
    600052.199 9    468463.26345  23138529.401    23138529.2914   23138541.6344
  -1190477.380 9   -442485.68545  23610889.189    23610888.2824   23610908.3264
   -490762.795 9   -364464.53247  20225183.267    20225182.6574   20225194.7944
  -1243070.083 9   -938527.98646  21622817.194    21622817.3554   21622830.7064
  -1240308.835 9   -931481.85846  21846093.664    21846092.7354   21846108.6554
    561901.458 9    439067.35445  24143934.914    24143934.8194   24143959.3534
 00  4 17 20  1 49.0000000  0  7 24  4  6  5 30 10  9               -0.000000107
     30235.522 9     32490.69647  20613979.565    20613979.2294   20613991.4514
    603236.720 9    470944.70445  23139135.419    23139135.2904   23139147.6674
  -1192806.598 9   -444300.65645  23610445.958    23610445.0584   23610465.0854
   -490837.246 9   -364522.54347  20225169.104    20225168.4874   20225180.6224
  -1245479.079 9   -940405.12546  21622358.781    21622358.9334   21622372.2864
  -1242792.942 9   -933417.51746  21845620.965    21845620.0324   21845635.9734
    564952.613 9    441444.86245  24144515.564    24144515.4884   24144540.0154
 00  4 17 20  1 50.0000000  0  7 24  4  6  5 30 10  9               -0.000000107
     31715.580 9     33643.99247  20614261.202    20614260.8744   20614273.0824
    606421.416 9    473426.28955  23139741.434    23139741.3024   23139753.7035
  -1195135.707 9   -446115.54045  23610002.742    23610001.8554   23610021.8754
   -490911.040 9   -364580.05047  20225155.045    20225154.4274   20225166.5774
  -1247887.618 9   -942281.90446  21621900.451    21621900.6194   21621913.9614
  -1245276.516 9   -935352.76546  21845148.364    21845147.4394   21845163.3554
    568003.820 9    443822.41445  24145096.174    24145096.1064   24145120.6344
 00  4 17 20  1 51.0000000  0  7 24  4  6  5 30 10  9               -0.000000107
     33196.020 9     34797.57847  20614542.917    20614542.5794   20614554.7954
    609606.244 9    475907.97045  23140347.493    23140347.3414   23140359.7664
  -1197464.763 9   -447930.38145  23609559.548    23609558.6824   23609578.6694
   -490984.231 9   -364637.08247  20225141.138    20225140.5174   20225152.6544
  -1250295.775 9   -944158.39046  21621442.210    21621442.3674   21621455.7154
  -1247759.641 9   -937287.66246  21844675.821    21844674.9064   21844690.8174
    571055.028 9    446199.96345  24145676.830    24145676.7654   24145701.3124
 00  4 17 20  1 52.0000000  0  7 24  4  6  5 30 10  9               -0.000000107
     34676.871 9     35951.48647  20614824.706    20614824.3644   20614836.5794
    612791.262 9    478389.80445  23140953.593    23140953.4324   23140965.8704
  -1199793.719 9   -449745.14745  23609116.372    23609115.5184   23609135.4974
   -491056.797 9   -364693.62847  20225127.319    20225126.6964   20225138.8524
  -1252703.514 9   -946034.53346  21620984.022    21620984.1944   21620997.5344
  -1250242.283 9   -939222.19146  21844203.394    21844202.4644   21844218.3824
    574106.252 9    448577.53045  24146257.467    24146257.4034   24146281.9564
 00  4 17 20  1 53.0000000  0  7 24  4  6  5 30 10  9               -0.000000107
     36158.072 9     37105.67147  20615106.582    20615106.2594   20615118.4634
    615976.343 9    480871.69445  23141559.701    23141559.5234   23141571.9984
  -1202122.686 9   -451559.92245  23608673.169    23608672.3254   23608692.2864
   -491128.803 9   -364749.73947  20225113.612    20225112.9864   20225125.1364
  -1255110.882 9   -947910.40846  21620525.924    21620526.0914   21620539.4394
  -1252724.505 9   -941156.38446  21843731.034    21843730.1014   21843746.0234
    577157.461 9    450955.08145  24146838.108    24146838.0414   24146862.5874
 00  4 17 20  1 54.0000000  0  7 24  4  6  5 30 10  9               -0.000000107
     37639.645 9     38260.14747  20615388.501    20615388.1644   20615400.3814
    619161.570 9    483353.67645  23142165.833    23142165.6334   23142178.1284
  -1204451.577 9   -453374.63745  23608230.008    23608229.1834   23608249.1194
   -491200.197 9   -364805.36947  20225100.044    20225099.4254   20225111.5764
  -1257517.833 9   -949785.95646  21620067.876    21620068.0394   21620081.3874
  -1255206.266 9   -943090.20546  21843258.786    21843257.8474   21843273.7794
    580208.673 9    453332.62945  24147418.758    24147418.6804   24147443.2324
 00  4 17 20  1 55.0000000  0  7 24  4  6  5 30 10  9               -0.000000107
     39121.627 9     39414.94047  20615670.515    20615670.1794   20615682.3984
    622346.977 9    485835.81945  23142771.994    23142771.7834   23142784.2954
  -1206780.408 9   -455189.31045  23607786.856    23607786.0304   23607805.9604
   -491270.964 9   -364860.51347  20225086.555    20225085.9344   20225098.0704
  -1259924.359 9   -951661.16446  21619609.938    21619610.1054   21619623.4644
  -1257687.530 9   -945023.66046  21842786.598    21842785.6744   21842801.6034
    583259.940 9    455710.22145  24147999.400    24147999.3284   24148023.8904
 00  4 17 20  1 56.0000000  0  7 24  4  6  5 30 10  9               -0.000000106
     40603.993 9     40570.03347  20615952.604    20615952.2834   20615964.4874
    625532.515 9    488318.05245  23143378.195    23143377.9734   23143390.4714
  -1209109.159 9   -457003.91245  23607343.699    23607342.8764   23607362.7964
   -491341.138 9   -364915.19047  20225073.226    20225072.5944   20225084.7354
  -1262330.475 9   -953536.05446  21619152.053    21619152.2134   21619165.5724
  -1260168.327 9   -946956.73646  21842314.527    21842313.5914   21842329.5294
    586311.197 9    458087.80445  24148580.053    24148579.9664   24148604.5434
 00  4 17 20  1 57.0000000  0  7 24  4  6  5 30 10  9               -0.000000106
     42086.695 9     41725.37847  20616234.757    20616234.4284   20616246.6414
    628718.147 9    490800.35545  23143984.410    23143984.1934   23143996.6844
  -1211437.921 9   -458818.52545  23606900.553    23606899.7334   23606919.6354
   -491410.749 9   -364969.43147  20225059.973    20225059.3534   20225071.4864
  -1264736.210 9   -955410.65746  21618694.265    21618694.4294   21618707.7794
  -1262648.698 9   -948889.48546  21841842.525    21841841.5884   21841857.5294
    589362.423 9    460465.35645  24149160.678    24149160.5834   24149185.1434
 00  4 17 20  1 58.0000000  0  7 24  4  6  5 30 10  9               -0.000000106
     43569.755 9     42881.01047  20616516.972    20616516.6524   20616528.8554
    631903.875 9    493282.73745  23144590.623    23144590.3954   23144602.8754
  -1213766.648 9   -460633.10845  23606457.420    23606456.6104   23606476.4854
   -491479.797 9   -365023.23447  20225046.818    20225046.2024   20225058.3344
  -1267141.579 9   -957284.97146  21618236.559    21618236.7264   21618250.0634
  -1265128.632 9   -950821.88946  21841370.615    21841369.6754   21841385.6104
    592413.637 9    462842.90845  24149741.319    24149741.2034   24149765.7844
 00  4 17 20  1 59.0000000  0  7 24  4  6  5 30 10  9               -0.000000106
     45053.196 9     44036.94247  20616799.243    20616798.9274   20616811.1354
    635089.737 9    495765.22645  23145196.877    23145196.6244   23145209.1124
  -1216095.344 9   -462447.66745  23606014.271    23606013.4674   23606033.3334
   -491548.258 9   -365076.57947  20225033.795    20225033.1714   20225045.3084
  -1269546.538 9   -959158.96046  21617778.896    21617779.0724   21617792.3944
  -1267608.104 9   -952753.94146  21840898.781    21840897.8324   21840913.7854
    595464.846 9    465220.45645  24150321.974    24150321.8394   24150346.4224
 00  4 17 20  2  0.0000000  0  7 24  4  6  5 30 10  9               -0.000000106
     46537.112 9     45193.24347  20617081.647    20617081.3314   20617093.5394
    638275.841 9    498247.91145  23145803.178    23145802.9244   23145815.4144
  -1218423.904 9   -464262.12745  23605571.170    23605570.3734   23605590.2324
   -491616.052 9   -365129.41047  20225020.917    20225020.2904   20225032.4204
  -1271951.013 9   -961032.56346  21617321.340    21617321.5194   21617334.8314
  -1270087.050 9   -954685.58146  21840427.049    21840426.1074   21840442.0574
    598516.143 9    467598.06745  24150902.616    24150902.4604   24150927.0724
 00  4 17 20  2  1.0000000  0  7 24  4  6  5 30 10  9               -0.000000105
     48021.412 9     46349.83847  20617364.084    20617363.7564   20617375.9764
    641462.083 9    500730.69045  23146409.523    23146409.2644   23146421.7444
  -1220752.434 9   -466076.55945  23605128.055    23605127.2604   23605147.1214
   -491683.265 9   -365181.78447  20225008.115    20225007.4894   20225019.6304
  -1274355.094 9   -962905.87146  21616863.870    21616864.0564   21616877.3774
  -1272565.543 9   -956616.87046  21839955.397    21839954.4444   21839970.3954
    601567.444 9    469975.69945  24151483.284    24151483.0974   24151507.7574
 00  4 17 20  2  2.0000000  0  7 24  4  6  5 30 10  9               -0.000000105
     49506.039 9     47506.68847  20617646.608    20617646.2814   20617658.4984
    644648.368 9    503213.50645  23147015.843    23147015.5844   23147028.0504
  -1223080.960 9   -467890.98345  23604684.951    23604684.1664   23604704.0134
   -491749.935 9   -365233.73347  20224995.414    20224994.7784   20225006.9344
  -1276758.806 9   -964778.89446  21616406.439    21616406.6234   21616419.9474
  -1275043.627 9   -958547.85146  21839483.829    21839482.8814   21839498.8304
    604618.699 9    472353.27745  24152063.911    24152063.7324   24152088.3984
 00  4 17 20  2  3.0000000  0  7 24  4  6  5 30 10  9               -0.000000105
     50990.990 9     48663.79447  20617929.167    20617928.8354   20617941.0564
    647834.699 9    505696.35045  23147622.197    23147621.9444   23147634.4014
  -1225409.512 9   -469705.43345  23604241.853    23604241.0834   23604260.9094
   -491816.078 9   -365285.27347  20224982.832    20224982.2064   20224994.3384
  -1279162.160 9   -966651.63546  21615949.108    21615949.2904   21615962.6154
  -1277521.310 9   -960478.50146  21839012.329    21839011.3784   21839027.3284
    607669.899 9    474730.82245  24152644.536    24152644.3714   24152669.0484
 00  4 17 20  2  4.0000000  0  7 24  4  6  5 30 10  9               -0.000000104
     52476.410 9     49821.26847  20618211.835    20618211.5194   20618223.7374
    651021.265 9    508179.38545  23148228.583    23148228.3334   23148240.8014
  -1227737.955 9   -471519.79545  23603798.759    23603798.0104   23603817.8074
   -491881.584 9   -365336.31647  20224970.389    20224969.7644   20224981.8984
  -1281565.028 9   -968524.00346  21615491.862    21615492.0464   21615505.3574
  -1279998.482 9   -962408.75246  21838540.954    21838540.0034   21838555.9524
    610721.164 9    477108.41645  24153225.186    24153225.0394   24153249.7354
 00  4 17 20  2  5.0000000  0  7 24  4  6  5 30 10  9               -0.000000104
     53962.201 9     50979.02547  20618494.572    20618494.2534   20618506.4624
    654207.903 9    510662.47945  23148834.985    23148834.7544   23148847.1854
  -1230066.386 9   -473334.14645  23603355.688    23603354.9464   23603374.7314
   -491946.542 9   -365386.93347  20224958.018    20224957.3934   20224969.5244
  -1283967.502 9   -970396.05946  21615034.681    21615034.8534   21615048.1664
  -1282475.211 9   -964338.67746  21838069.638    21838068.6994   21838084.6454
    613772.408 9    479485.99245  24153805.845    24153805.6894   24153830.4324
 00  4 17 20  2  6.0000000  0  7 24  4  6  5 30 10  9               -0.000000104
     55448.378 9     52137.08447  20618777.392    20618777.0684   20618789.2964
    657394.642 9    513145.64645  23149441.382    23149441.1554   23149453.5854
  -1232394.776 9   -475148.47345  23602912.614    23602911.8934   23602931.6574
   -492010.918 9   -365437.10047  20224945.763    20224945.1424   20224957.2744
  -1286369.560 9   -972267.79446  21614577.600    21614577.7694   21614591.0724
  -1284951.488 9   -966268.22646  21837598.423    21837597.4864   21837613.4204
    616823.663 9    481863.57845  24154386.484    24154386.3174   24154411.1044
 00  4 17 20  2  7.0000000  0  7 24  4  6  5 30 10  9               -0.000000103
     56934.959 9     53295.45847  20619060.284    20619059.9724   20619072.1884
    660581.531 9    515628.94345  23150047.845    23150047.6064   23150060.0444
  -1234723.136 9   -476962.77745  23602469.535    23602468.8204   23602488.5644
   -492074.748 9   -365486.83747  20224933.627    20224933.0104   20224945.1424
  -1288771.190 9   -974139.19346  21614120.570    21614120.7364   21614134.0334
  -1287427.319 9   -968197.44146  21837127.296    21837126.3434   21837142.2804
    619874.919 9    484241.17145  24154967.122    24154966.9264   24154991.7554
 00  4 17 20  2  8.0000000  0  7 24  4  6  5 30 10  9               -0.000000103
     58421.950 9     54454.15447  20619343.244    20619342.9264   20619355.1564
    663768.543 9    518112.33445  23150654.324    23150654.0764   23150666.5104
  -1237051.420 9   -478777.01945  23602026.478    23602025.7584   23602045.4974
   -492137.971 9   -365536.10147  20224921.588    20224920.9794   20224933.1054
  -1291172.369 9   -976010.23646  21613663.661    21613663.8124   21613677.1214
  -1289902.648 9   -970126.26346  21836656.251    21836655.2984   21836671.2464
    622926.217 9    486618.78945  24155547.755    24155547.5244   24155572.4334
 00  4 17 20  2  9.0000000  0  7 24  4  6  5 30 10  9               -0.000000102
     59909.286 9     55613.11647  20619626.260    20619625.9504   20619638.1754
    666955.620 9    520595.75945  23151260.788    23151260.5454   23151272.9544
  -1239379.742 9   -480591.28745  23601583.430    23601582.7054   23601602.4404
   -492200.686 9   -365584.96847  20224909.643    20224909.0174   20224921.1504
  -1293573.187 9   -977880.99846  21613206.793    21613206.9494   21613220.2434
  -1292377.594 9   -972054.78246  21836185.282    21836184.3444   21836200.2954
    625977.450 9    488996.34545  24156128.402    24156128.1614   24156153.0964
 00  4 17 20  2 10.0000000  0  7 24  4  6  5 30 10  9               -0.000000102
     61397.003 9     56772.37847  20619909.355    20619909.0444   20619921.2644
    670142.787 9    523079.27345  23151867.301    23151867.0564   23151879.4694
  -1241708.036 9   -482405.53645  23601140.367    23601139.6424   23601159.3614
   -492262.841 9   -365633.40047  20224897.842    20224897.2254   20224909.3464
  -1295973.589 9   -979751.43746  21612750.005    21612750.1554   21612763.4494
  -1294852.086 9   -973982.95346  21835714.391    21835713.4414   21835729.3974
    629028.681 9    491373.91145  24156709.046    24156708.8074   24156733.7694
 00  4 17 20  2 11.0000000  0  7 24  4  6  5 30 10  9               -0.000000101
     62885.154 9     57931.97447  20620192.544    20620192.2284   20620204.4634
    673330.130 9    525562.92145  23152473.841    23152473.5944   23152485.9604
  -1244036.262 9   -484219.73345  23600697.320    23600696.5984   23600716.2934
   -492324.369 9   -365681.34947  20224886.117    20224885.5034   20224897.6294
  -1298373.529 9   -981621.51146  21612293.313    21612293.4514   21612306.7484
  -1297326.092 9   -975910.75146  21835243.602    21835242.6474   21835258.6064
    632079.964 9    493751.51045  24157289.707    24157289.4664   24157314.4514
 00  4 17 20  2 12.0000000  0  7 24  4  6  5 30 10  9               -0.000000101
     64373.613 9     59091.81247  20620475.805    20620475.5024   20620487.7264
    676517.510 9    528046.59145  23153080.366    23153080.1544   23153092.4344
  -1246364.506 9   -486033.93545  23600254.252    23600253.5154   23600273.2104
   -492385.380 9   -365728.88947  20224874.508    20224873.8914   20224886.0084
  -1300773.108 9   -983491.32346  21611836.684    21611836.8374   21611850.1254
  -1299799.691 9   -977838.22746  21834772.871    21834771.9124   21834787.8914
    635131.176 9    496129.06345  24157870.318    24157870.0934   24157895.0944
 00  4 17 20  2 13.0000000  0  7 24  4  6  5 30 10  9               -0.000000101
     65862.478 9     60251.96347  20620759.108    20620758.8064   20620771.0174
    679705.044 9    530530.37045  23153686.958    23153686.7474   23153699.0024
  -1248692.702 9   -487848.11245  23599811.227    23599810.4824   23599830.1864
   -492445.786 9   -365775.95847  20224863.010    20224862.3994   20224874.5294
  -1303172.231 9   -985360.76546  21611380.145    21611380.2934   21611393.5894
  -1302272.806 9   -979765.31646  21834302.256    21834301.2884   21834317.2584
    638182.426 9    498506.64645  24158450.963    24158450.7604   24158475.7444
 00  4 17 20  2 14.0000000  0  7 24  4  6  5 30 10  9               -0.000000100
     67351.721 9     61412.41047  20621042.506    20621042.2094   20621054.4204
    682892.663 9    533014.23345  23154293.522    23154293.3074   23154305.5664
  -1251020.849 9   -489662.24845  23599368.186    23599367.4284   23599387.1354
   -492505.595 9   -365822.56047  20224851.643    20224851.0374   20224863.1494
  -1305570.929 9   -987229.87546  21610923.697    21610923.8394   21610937.1324
  -1304745.465 9   -981692.05946  21833831.730    21833830.7644   21833846.7304
    641233.681 9    500884.23045  24159031.615    24159031.4294   24159056.4014
 00  4 17 20  2 15.0000000  0  7 24  4  6  5 30 10  9               -0.000000100
     68841.321 9     62573.14547  20621325.967    20621325.6634   20621337.8804
    686080.387 9    535498.17145  23154900.146    23154899.9074   23154912.1844
  -1253349.013 9   -491476.39245  23598925.160    23598924.3854   23598944.0914
   -492564.858 9   -365868.73747  20224840.348    20224839.7454   20224851.8544
  -1307969.245 9   -989098.68946  21610467.314    21610467.4454   21610480.7384
  -1307217.704 9   -983618.47046  21833361.273    21833360.3004   21833376.2684
    644284.883 9    503261.77645  24159612.259    24159612.0784   24159637.0684
 00  4 17 20  2 16.0000000  0  7 24  4  6  5 30 10  9               -0.000000099
     70331.293 9     63734.16447  20621609.493    20621609.1974   20621621.4074
    689268.218 9    537982.18845  23155506.782    23155506.5374   23155518.8134
  -1255677.170 9   -493290.53545  23598482.115    23598481.3314   23598501.0314
   -492623.567 9   -365914.48547  20224829.183    20224828.5824   20224840.6974
  -1310367.163 9   -990967.20146  21610011.012    21610011.1414   21610024.4344
  -1309689.519 9   -985544.55146  21832890.895    21832889.9254   21832905.8894
    647336.064 9    505639.29545  24160192.894    24160192.7064   24160217.7024
 00  4 17 20  2 17.0000000  0  7 24  4  6  5 30 10  9               -0.000000099
     71821.667 9     64895.49147  20621893.099    20621892.8014   20621905.0144
    692456.169 9    540466.30945  23156113.428    23156113.1594   23156125.4434
  -1258005.276 9   -495104.63945  23598039.091    23598038.3184   23598057.9924
   -492681.653 9   -365959.74947  20224818.141    20224817.5404   20224829.6624
  -1312764.640 9   -992835.35646  21609554.777    21609554.9164   21609568.2124
  -1312160.839 9   -987470.24846  21832420.622    21832419.6604   21832435.6204
    650387.267 9    508016.83645  24160773.530    24160773.3434   24160798.3544
 00  4 17 20  2 18.0000000  0  7 24  4  6  5 30 10  9               -0.000000098
     73312.423 9     66057.11947  20622176.777    20622176.4744   20622188.6824
    695644.208 9    542950.49945  23156720.080    23156719.7784   23156732.0764
  -1260333.361 9   -496918.73045  23597596.089    23597595.3144   23597614.9964
   -492739.171 9   -366004.56747  20224807.189    20224806.5784   20224818.7154
  -1315161.715 9   -994703.20846  21609098.654    21609098.7924   21609112.0984
  -1314631.724 9   -989395.61346  21831950.403    21831949.4554   21831965.4074
    653438.475 9    510394.38945  24161354.149    24161353.9694   24161379.0024
 00  4 17 20  2 19.0000000  0  7 24  4  6  5 30 10  9               -0.000000097
     74803.526 9     67219.01947  20622460.514    20622460.2084   20622472.4344
    698832.368 9    545434.77545  23157326.779    23157326.4474   23157338.7544
  -1262661.461 9   -498732.82045  23597153.059    23597152.2914   23597171.9524
   -492796.156 9   -366048.97247  20224796.345    20224795.7354   20224807.8734
  -1317558.406 9   -996570.74346  21608642.568    21608642.7074   21608656.0024
  -1317102.174 9   -991320.63046  21831480.309    21831479.3614   21831495.3144
    656489.643 9    512771.90345  24161934.799    24161934.6494   24161959.6544
 00  4 17 20  2 20.0000000  0  7 24  4  6  5 30 10  9               -0.000000097
     76295.055 9     68381.24847  20622744.341    20622744.0514   20622756.2554
    702020.663 9    547919.16745  23157933.475    23157933.1454   23157945.4564
  -1264989.502 9   -500546.87445  23596710.067    23596709.2984   23596728.9594
   -492852.531 9   -366092.90247  20224785.604    20224784.9934   20224797.1284
  -1319954.648 9   -998437.95246  21608186.582    21608186.7234   21608200.0144
  -1319572.131 9   -993245.27046  21831010.266    21831009.3174   21831025.2734
    659540.880 9    515149.47145  24162515.431    24162515.2884   24162540.2764
 00  4 17 20  2 21.0000000  0  7 24  4  6  5 30 10  9               -0.000000096
     77786.948 9     69543.76547  20623028.259    20623027.9654   20623040.1784
    705209.036 9    550403.60545  23158540.220    23158539.9264   23158552.1974
  -1267317.560 9   -502360.94045  23596267.040    23596266.2754   23596285.9284
   -492908.348 9   -366136.39347  20224774.981    20224774.3604   20224786.5114
  -1322350.494 9  -1000304.83546  21607730.659    21607730.7894   21607744.0884
  -1322041.663 9   -995169.56646  21830540.347    21830539.4034   21830555.3574
    662592.064 9    517526.99745  24163096.080    24163095.9184   24163120.8994
 00  4 17 20  2 22.0000000  0  7 24  4  6  5 30 10  9               -0.000000096
     79279.229 9     70706.58347  20623312.217    20623311.9284   20623324.1384
    708397.532 9    552888.16745  23159146.955    23159146.6664   23159158.9444
  -1269645.607 9   -504175.00045  23595824.015    23595823.2514   23595842.9084
   -492963.597 9   -366179.44847  20224764.472    20224763.8574   20224775.9924
  -1324745.913 9  -1002171.38646  21607274.824    21607274.9554   21607288.2474
  -1324510.745 9   -997093.51746  21830070.492    21830069.5384   21830085.4934
    665643.253 9    519904.52545  24163676.708    24163676.5444   24163701.5054
 00  4 17 20  2 23.0000000  0  7 24  4  6  5 30 10  9               -0.000000095
     80771.828 9     71869.64747  20623596.246    20623595.9624   20623608.1774
    711586.079 9    555372.73945  23159753.724    23159753.4464   23159765.7114
  -1271973.699 9   -505989.08845  23595381.019    23595380.2684   23595399.9014
   -493018.319 9   -366222.08647  20224754.054    20224753.4444   20224765.5694
  -1327140.966 9  -1004037.67146  21606819.060    21606819.1914   21606832.4784
  -1326979.440 9   -999017.17546  21829600.710    21829599.7534   21829615.7134
    668694.402 9    522282.03045  24164257.344    24164257.1734   24164282.1024
 00  4 17 20  2 24.0000000  0  7 24  4  6  5 30 10  9               -0.000000094
     82264.860 9     73033.04947  20623880.357    20623880.0754   20623892.2824
    714774.780 9    557857.42945  23160360.532    23160360.2374   23160372.5164
  -1274301.728 9   -507803.13445  23594937.983    23594937.2354   23594956.8714
   -493072.411 9   -366264.23747  20224743.762    20224743.1524   20224755.2774
  -1329535.546 9  -1005903.58446  21606363.390    21606363.5164   21606376.8064
  -1329447.635 9  -1000940.43646  21829131.004    21829130.0484   21829146.0064
    671745.593 9    524659.55445  24164837.966    24164837.7894   24164862.7054
 00  4 17 20  2 25.0000000  0  7 24  4  6  5 30 10  9               -0.000000094
     83758.250 9     74196.73147  20624164.537    20624164.2384   20624176.4604
    717963.571 9    560342.20445  23160967.335    23160967.0464   23160979.3094
  -1276629.790 9   -509617.20145  23594494.972    23594494.2314   23594513.8764
   -493125.958 9   -366305.96047  20224733.571    20224732.9594   20224745.0874
  -1331929.746 9  -1007769.18846  21605907.766    21605907.9014   21605921.1794
  -1331915.417 9  -1002863.37246  21828661.411    21828660.4544   21828676.4194
    674796.747 9    527037.05645  24165418.584    24165418.4094   24165443.3184
 00  4 17 20  2 26.0000000  0  7 24  4  6  5 30 10  9               -0.000000093
     85252.025 9     75360.71047  20624448.798    20624448.5114   20624460.7194
    721152.448 9    562827.05045  23161574.150    23161573.8474   23161586.1424
  -1278957.875 9   -511431.28445  23594051.956    23594051.2184   23594070.8534
   -493178.948 9   -366347.25047  20224723.500    20224722.8964   20224735.0284
  -1334323.548 9  -1009634.48046  21605452.251    21605452.3874   21605465.6624
  -1334382.790 9  -1004785.99746  21828191.873    21828190.9284   21828206.8884
    677847.856 9    529414.53045  24165999.200    24165999.0274   24166023.9734
 00  4 17 20  2 27.0000000  0  7 24  4  6  5 30 10  9               -0.000000093
     86746.215 9     76525.01147  20624733.137    20624732.8454   20624745.0664
    724341.449 9    565311.97545  23162180.989    23162180.6584   23162193.0014
  -1281285.951 9   -513245.36245  23593608.916    23593608.1754   23593627.8084
   -493231.338 9   -366388.07447  20224713.520    20224712.9134   20224725.0514
  -1336716.928 9  -1011499.44946  21604996.791    21604996.9234   21605010.2124
  -1336849.722 9  -1006708.27546  21827722.431    21827721.4734   21827737.4554
    680898.981 9    531792.00545  24166579.837    24166579.6554   24166604.6384
 00  4 17 20  2 28.0000000  0  7 24  4  6  5 30 10  9               -0.000000092
     88240.828 9     77689.64547  20625017.569    20625017.2684   20625029.4914
    727530.581 9    567797.01645  23162787.876    23162787.5374   23162799.8984
  -1283613.991 9   -515059.40745  23593165.913    23593165.1814   23593184.8174
   -493283.139 9   -366428.43847  20224703.670    20224703.0594   20224715.1994
  -1339109.853 9  -1013364.05246  21604541.439    21604541.5674   21604554.8554
  -1339316.181 9  -1008630.19746  21827253.053    21827252.0894   21827268.0924
    683950.137 9    534169.50845  24167160.457    24167160.2544   24167185.2844
 00  4 17 20  2 29.0000000  0  7 24  4  6  5 30 10  9               -0.000000092
     89735.788 9     78854.55047  20625302.050    20625301.7614   20625313.9714
    730719.745 9    570282.06845  23163394.739    23163394.3774   23163406.7704
  -1285942.082 9   -516873.49245  23592722.896    23592722.1694   23592741.7874
   -493334.390 9   -366468.37547  20224693.935    20224693.3264   20224705.4524
  -1341502.411 9  -1015228.38846  21604086.151    21604086.2734   21604099.5724
  -1341782.239 9  -1010551.78146  21826783.785    21826782.8144   21826798.8254
    687001.223 9    536546.96545  24167741.071    24167740.8614   24167765.9244
 00  4 17 20  2 30.0000000  0  7 24  4  6  5 30 10  9               -0.000000091
     91231.095 9     80019.72247  20625586.587    20625586.2944   20625598.5024
    733908.951 9    572767.14045  23164001.639    23164001.2664   23164013.6564
  -1288270.205 9   -518687.60145  23592279.870    23592279.1354   23592298.7574
   -493385.104 9   -366507.89447  20224684.273    20224683.6634   20224695.7984
  -1343894.582 9  -1017092.40946  21603630.939    21603631.0584   21603644.3624
  -1344247.891 9  -1012473.05946  21826314.564    21826313.5884   21826329.6014
    690052.259 9    538924.38245  24168321.680    24168321.4594   24168346.5554
 00  4 17 20  2 31.0000000  0  7 24  4  6  5 30 10  9               -0.000000090
     92726.841 9     81185.23947  20625871.233    20625870.9374   20625883.1504
    737098.360 9    575252.39545  23164608.571    23164608.2154   23164620.5964
  -1290598.249 9   -520501.64845  23591836.842    23591836.1224   23591855.7334
   -493435.160 9   -366546.89947  20224674.756    20224674.1404   20224686.2914
  -1346286.259 9  -1018956.06146  21603175.790    21603175.9034   21603189.2294
  -1346713.029 9  -1014393.93946  21825845.467    21825844.4834   21825860.5104
    693103.353 9    541301.84145  24168902.280    24168902.0664   24168927.1724
 00  4 17 20  2 32.0000000  0  7 24  4  6  5 30 10  9               -0.000000090
     94222.928 9     82351.02147  20626155.933    20626155.6304   20626167.8594
    740287.799 9    577737.68645  23165215.475    23165215.1344   23165227.5024
  -1292926.367 9   -522315.75745  23591393.814    23591393.0984   23591412.7104
   -493484.699 9   -366585.50147  20224665.328    20224664.7264   20224676.8644
  -1348677.596 9  -1020819.43346  21602720.736    21602720.8484   21602734.1704
  -1349177.802 9  -1016314.54346  21825376.428    21825375.4474   21825391.4694
    696154.386 9    543679.25945  24169482.885    24169482.6834   24169507.7794
 00  4 17 20  2 33.0000000  0  7 24  4  6  5 30 10  9               -0.000000089
     95719.422 9     83517.12247  20626440.700    20626440.3934   20626452.6094
    743477.324 9    580223.05045  23165822.443    23165822.1244   23165834.4564
  -1295254.458 9   -524129.84645  23590950.799    23590950.0944   23590969.7104
   -493533.634 9   -366623.62847  20224656.020    20224655.4124   20224667.5644
  -1351068.505 9  -1022682.48046  21602265.765    21602265.8734   21602279.1884
  -1351642.109 9  -1018234.78146  21824907.470    21824906.4924   21824922.5034
    699205.395 9    546056.65945  24170063.485    24170063.3024   24170088.3814
 00  4 17 20  2 34.0000000  0  7 24  4  6  5 30 10  9               -0.000000089
     97216.306 9     84683.53747  20626725.541    20626725.2454   20626737.4594
    746666.965 9    582708.46845  23166429.402    23166429.1044   23166441.3884
  -1297582.551 9   -525943.93745  23590507.755    23590507.0624   23590526.6814
   -493581.974 9   -366661.29747  20224646.822    20224646.2194   20224658.3664
  -1353458.998 9  -1024545.20046  21601810.871    21601810.9784   21601824.3014
  -1354105.986 9  -1020154.68146  21824438.618    21824437.6474   21824453.6504
    702256.417 9    548434.06445  24170644.084    24170643.9194   24170668.9614
 00  4 17 20  2 35.0000000  0  7 24  4  6  5 30 10  9               -0.000000088
     98713.587 9     85850.24247  20627010.467    20627010.1684   20627022.3864
    749856.711 9    585193.98545  23167036.396    23167036.0954   23167048.3664
  -1299910.643 9   -527758.03445  23590064.743    23590064.0584   23590083.6834
   -493629.715 9   -366698.50247  20224637.722    20224637.1054   20224649.2514
  -1355849.077 9  -1026407.59046  21601356.030    21601356.1334   21601369.4574
  -1356569.422 9  -1022074.23646  21823969.829    21823968.8514   21823984.8724
    705307.424 9    550811.45045  24171224.678    24171224.5374   24171249.5314
 00  4 17 20  2 36.0000000  0  7 24  4  6  5 30 10  9               -0.000000088
    100211.275 9     87017.27347  20627295.474    20627295.1814   20627307.3834
    753046.565 9    587679.57445  23167643.387    23167643.0944   23167655.3754
  -1302238.717 9   -529572.11245  23589621.722    23589621.0454   23589640.6764
   -493676.855 9   -366735.23547  20224628.765    20224628.1614   20224640.3084
  -1358238.732 9  -1028269.65446  21600901.308    21600901.4084   21600914.7554
  -1359032.398 9  -1023993.41546  21823501.132    21823500.1564   21823516.1734
    708358.439 9    553188.84045  24171805.263    24171805.1454   24171830.1014
 00  4 17 20  2 37.0000000  0  7 24  4  6  5 30 10  9               -0.000000087
    101709.269 9     88184.54047  20627580.531    20627580.2334   20627592.4434
    756236.476 9    590165.22145  23168250.418    23168250.1064   23168262.4244
  -1304566.838 9   -531386.23145  23589178.682    23589178.0114   23589197.6334
   -493723.471 9   -366771.56247  20224619.893    20224619.2784   20224631.4244
  -1360628.036 9  -1030131.44346  21600446.643    21600446.7324   21600460.1034
  -1361495.019 9  -1025912.34146  21823032.515    21823031.5404   21823047.5744
    711409.380 9    555566.17345  24172385.867    24172385.7734   24172410.6974
 00  4 17 20  2 38.0000000  0  7 24  4  6  5 30 10  9               -0.000000087
    103207.716 9     89352.15847  20627865.668    20627865.3664   20627877.5834
    759426.529 9    592650.96845  23168857.467    23168857.1434   23168869.4704
  -1306894.898 9   -533200.30645  23588735.659    23588735.0084   23588754.6064
   -493769.446 9   -366807.38747  20224611.137    20224610.5334   20224622.6704
  -1363016.881 9  -1031992.88546  21599992.049    21599992.1474   21600005.4974
  -1363957.131 9  -1027830.86446  21822563.964    21822562.9844   21822579.0414
    714460.375 9    557943.54945  24172966.432    24172966.3614   24172991.2664
 00  4 17 20  2 39.0000000  0  7 24  4  6  5 30 10  9               -0.000000086
    104706.542 9     90520.07347  20628150.915    20628150.6084   20628162.8184
    762616.681 9    595136.80145  23169464.538    23169464.2344   23169476.5404
  -1309222.961 9   -535014.37745  23588292.651    23588291.9964   23588311.5974
   -493814.847 9   -366842.76447  20224602.497    20224601.8894   20224614.0414
  -1365405.324 9  -1033854.00646  21599537.535    21599537.6414   21599550.9934
  -1366418.821 9  -1029749.04946  21822095.533    21822094.5594   21822110.6064
    717511.341 9    560320.91145  24173547.022    24173546.9624   24173571.8694
 00  4 17 20  2 40.0000000  0  7 24  4  6  5 30 10  9               -0.000000086
    106205.733 9     91688.27347  20628436.197    20628435.8914   20628448.1044
    765806.885 9    597622.67445  23170071.591    23170071.2834   23170083.5814
  -1311551.060 9   -536828.47545  23587849.641    23587848.9734   23587868.5804
   -493859.715 9   -366877.72347  20224593.965    20224593.3554   20224605.5094
  -1367793.384 9  -1035714.83346  21599083.087    21599083.1864   21599096.5424
  -1368880.102 9  -1031666.93546  21821627.151    21821626.1834   21821642.2244
    720562.262 9    562698.25345  24174127.619    24174127.5404   24174152.4434
 00  4 17 20  2 41.0000000  0  7 24  4  6  5 30 10  9               -0.000000085
    107705.332 9     92856.79147  20628721.553    20628721.2334   20628733.4504
    768997.225 9    600108.64245  23170678.710    23170678.4024   23170690.6784
  -1313879.131 9   -538642.54345  23587406.603    23587405.9294   23587425.5374
   -493903.986 9   -366912.21947  20224585.549    20224584.9314   20224597.0854
  -1370181.016 9  -1037575.32146  21598628.724    21598628.8304   21598642.1954
  -1371340.919 9  -1033584.45246  21821158.865    21821157.8884   21821173.9364
    723613.184 9    565075.56445  24174708.187    24174708.1084   24174732.9974
 00  4 17 20  2 42.0000000  0  7 24  4  6  5 30 10  9               -0.000000085
    109205.330 9     94025.62147  20629006.999    20629006.6954   20629018.8934
    772187.671 9    602594.71645  23171285.812    23171285.4944   23171297.7894
  -1316207.166 9   -540456.59145  23586963.590    23586962.9164   23586982.5184
   -493947.666 9   -366946.25347  20224577.244    20224576.6374   20224588.7764
  -1372568.215 9  -1039435.47346  21598174.465    21598174.5754   21598187.9394
  -1373801.282 9  -1035501.60446  21820690.656    21820689.6724   21820705.7324
    726664.113 9    567452.89745  24175288.793    24175288.7144   24175313.6094
 00  4 17 20  2 43.0000000  0  7 24  4  6  5 30 10  9               -0.000000084
    110705.685 9     95194.73547  20629292.501    20629292.1984   20629304.4044
    775378.183 9    605080.84145  23171892.946    23171892.6134   23171904.9204
  -1318535.232 9   -542270.66245  23586520.579    23586519.8844   23586539.5084
   -493990.814 9   -366979.87747  20224569.029    20224568.4234   20224580.5614
  -1374955.024 9  -1041295.31746  21597720.252    21597720.3694   21597733.7324
  -1376261.221 9  -1037418.42846  21820222.543    21820221.5744   21820237.6124
    729715.036 9    569830.22845  24175869.379    24175869.3224   24175894.2174
 00  4 17 20  2 44.0000000  0  7 24  4  6  5 30 10  9               -0.000000084
    112206.419 9     96364.13647  20629578.084    20629577.7714   20629589.9794
    778568.762 9    607566.99845  23172500.103    23172499.7824   23172512.0904
  -1320863.291 9   -544084.73045  23586077.573    23586076.8594   23586096.5094
   -494033.416 9   -367013.07147  20224560.928    20224560.3184   20224572.4544
  -1377341.434 9  -1043154.85046  21597266.129    21597266.2544   21597279.6224
  -1378720.746 9  -1039334.93546  21819754.504    21819753.5494   21819769.5724
    732765.907 9    572207.52445  24176449.946    24176449.8904   24176474.7954
 00  4 17 20  2 45.0000000  0  7 24  4  6  5 30 10  9               -0.000000083
    113707.606 9     97533.89047  20629863.749    20629863.4434   20629875.6484
    781759.497 9    610053.28645  23173107.283    23173106.9714   23173119.2704
  -1323191.273 9   -545898.73445  23585634.567    23585633.8564   23585653.5124
   -494075.382 9   -367045.77147  20224552.940    20224552.3344   20224564.4734
  -1379727.358 9  -1045014.01046  21596812.119    21596812.2384   21596825.6204
  -1381179.768 9  -1041251.04946  21819286.575    21819285.6134   21819301.6484
    735816.864 9    574584.87745  24177030.525    24177030.4884   24177055.3874
 00  4 17 20  2 46.0000000  0  7 24  4  6  5 30 10  9               -0.000000082
    115209.162 9     98703.93347  20630149.500    20630149.1854   20630161.3914
    784950.289 9    612539.60345  23173714.460    23173714.1604   23173726.4584
  -1325519.264 9   -547712.74045  23585191.564    23585190.8524   23585210.5184
   -494116.824 9   -367078.06647  20224545.057    20224544.4394   20224556.5934
  -1382112.857 9  -1046872.84046  21596358.176    21596358.2924   21596371.6844
  -1383638.375 9  -1043166.85546  21818818.704    21818817.7474   21818833.7764
    738867.787 9    576962.20645  24177611.126    24177611.0964   24177636.0204
 00  4 17 20  2 47.0000000  0  7 24  4  6  5 30 10  9               -0.000000082
    116711.102 9     99874.28047  20630435.305    20630434.9874   20630447.1914
    788141.191 9    615026.02045  23174321.668    23174321.3914   23174333.6684
  -1327847.233 9   -549526.73345  23584748.562    23584747.8494   23584767.5434
   -494157.706 9   -367109.92347  20224537.277    20224536.6644   20224548.8124
  -1384497.948 9  -1048731.35246  21595904.296    21595904.4264   21595917.8124
  -1386096.558 9  -1045082.32046  21818350.918    21818349.9704   21818365.9954
    741918.699 9    579339.53045  24178191.717    24178191.6954   24178216.6274
 00  4 17 20  2 48.0000000  0  7 24  4  6  5 30 10  9               -0.000000081
    118213.405 9    101044.90247  20630721.192    20630720.8794   20630733.0834
    791332.120 9    617512.47145  23174928.858    23174928.5814   23174940.8784
  -1330175.212 9   -551340.72545  23584305.544    23584304.8264   23584324.5264
   -494198.041 9   -367141.35447  20224529.588    20224528.9704   20224541.1164
  -1386882.647 9  -1050589.55146  21595450.480    21595450.6214   21595464.0054
  -1388554.313 9  -1046997.43946  21817883.233    21817882.2944   21817898.3054
    744969.581 9    581716.81845  24178772.298    24178772.2544   24178797.2054
 00  4 17 20  2 49.0000000  0  7 24  4  6  5 30 10  9               -0.000000081
    119716.157 9    102215.88047  20631007.156    20631006.8514   20631019.0454
    794523.174 9    619998.99245  23175536.099    23175535.8114   23175548.1264
  -1332503.136 9   -553154.68445  23583862.554    23583861.8334   23583881.5554
   -494237.795 9   -367172.32947  20224522.016    20224521.3954   20224533.5534
  -1389266.863 9  -1052447.37146  21594996.806    21594996.9354   21595010.3374
  -1391011.600 9  -1048912.20046  21817415.604    21817414.6594   21817430.6684
    748020.512 9    584094.15245  24179352.880    24179352.8324   24179377.7754
 00  4 17 20  2 50.0000000  0  7 24  4  6  5 30 10  9               -0.000000080
    121219.254 9    103387.12647  20631293.175    20631292.8734   20631305.0634
    797714.301 9    622485.58645  23176143.355    23176143.0794   23176155.3964
  -1334831.046 9   -554968.63245  23583419.562    23583418.8584   23583438.5824
   -494277.006 9   -367202.88247  20224514.569    20224513.9604   20224526.1034
  -1391650.675 9  -1054304.88546  21594543.168    21594543.2994   21594556.7064
  -1393468.462 9  -1050826.63846  21816948.095    21816947.1424   21816963.1484
    751071.416 9    586471.45845  24179933.455    24179933.3994   24179958.3394
 00  4 17 20  2 51.0000000  0  7 24  4  6  5 30 10  9               -0.000000079
    122722.754 9    104558.68747  20631579.294    20631578.9854   20631591.1894
    800905.526 9    624972.25245  23176750.639    23176750.3704   23176762.6844
  -1337158.912 9   -556782.54045  23582976.588    23582975.8954   23582995.6234
   -494315.635 9   -367232.98647  20224507.218    20224506.5954   20224518.7484
  -1394034.037 9  -1056162.04646  21594089.636    21594089.7834   21594103.1734
  -1395924.869 9  -1052740.71446  21816480.643    21816479.6864   21816495.6974
    754122.327 9    588848.77945  24180514.039    24180513.9874   24180538.9264
 00  4 17 20  2 52.0000000  0  7 24  4  6  5 30 10  9               -0.000000079
    124226.587 9    105730.50247  20631865.474    20631865.1674   20631877.3584
    804096.777 9    627458.94345  23177357.883    23177357.6204   23177369.9514
  -1339486.820 9   -558596.49045  23582533.576    23582532.8834   23582552.6364
   -494353.760 9   -367262.69547  20224499.969    20224499.3604   20224511.4864
  -1396417.012 9  -1058018.91946  21593636.162    21593636.2974   21593649.7054
  -1398380.883 9  -1054654.47346  21816013.277    21816012.3094   21816028.3334
    757173.196 9    591226.06645  24181094.622    24181094.5764   24181119.4984
 00  4 17 20  2 53.0000000  0  7 24  4  6  5 30 10  9               -0.000000078
    125730.830 9    106902.63947  20632151.719    20632151.4094   20632163.5934
    807288.145 9    629945.72145  23177965.196    23177964.9384   23177977.2974
  -1341814.662 9   -560410.38245  23582090.608    23582089.9004   23582109.6814
   -494391.294 9   -367291.94547  20224492.824    20224492.2154   20224504.3374
  -1398799.542 9  -1059875.43846  21593182.788    21593182.9404   21593196.3244
  -1400836.417 9  -1056567.87946  21815545.977    21815545.0224   21815561.0304
    760224.069 9    593603.35045  24181675.185    24181675.1244   24181700.0624
 00  4 17 20  2 54.0000000  0  7 24  4  6  5 30 10  9               -0.000000078
    127235.427 9    108075.04947  20632438.017    20632437.7014   20632449.8954
    810479.594 9    632432.56345  23178572.512    23178572.2594   23178584.6334
  -1344142.518 9   -562224.28745  23581647.623    23581646.9254   23581666.6984
   -494428.286 9   -367320.76747  20224485.782    20224485.1604   20224497.3004
  -1401181.660 9  -1061731.63246  21592729.467    21592729.6244   21592743.0044
  -1403291.536 9  -1058480.95646  21815078.785    21815077.8364   21815093.8514
    763274.922 9    595980.61845  24182255.771    24182255.7114   24182280.6454
 00  4 17 20  2 55.0000000  0  7 24  4  6  5 30 10  9               -0.000000077
    128740.420 9    109247.77047  20632724.408    20632724.1024   20632736.2864
    813671.115 9    634919.46345  23179179.824    23179179.5784   23179191.9244
  -1346470.357 9   -564038.18145  23581204.661    23581203.9714   23581223.7544
   -494464.728 9   -367349.16247  20224478.848    20224478.2354   20224490.3584
  -1403563.340 9  -1063587.48146  21592276.252    21592276.4084   21592289.7864
  -1405746.208 9  -1060393.67246  21814611.677    21814610.7384   21814626.7524
    766325.757 9    598357.86045  24182836.344    24182836.2794   24182861.2094
 00  4 17 20  2 56.0000000  0  7 24  4  6  5 30 10  9               -0.000000076
    130245.811 9    110420.80747  20633010.887    20633010.5844   20633022.7714
    816862.757 9    637406.43945  23179787.181    23179786.9474   23179799.2644
  -1348798.147 9   -565852.04345  23580761.691    23580761.0184   23580780.7764
   -494500.573 9   -367377.09447  20224472.025    20224471.4204   20224483.5404
  -1405944.580 9  -1065442.99646  21591823.114    21591823.2624   21591836.6494
  -1408200.407 9  -1062306.02846  21814144.656    21814143.7324   21814159.7334
    769376.626 9    600735.14545  24183416.915    24183416.8674   24183441.7704
 00  4 17 20  2 57.0000000  0  7 24  4  6  5 30 10  9               -0.000000076
    131751.615 9    111594.15947  20633297.415    20633297.1064   20633309.3014
    820054.524 9    639893.52645  23180394.535    23180394.2884   23180406.5954
  -1351125.885 9   -567665.86345  23580318.713    23580318.0554   23580337.8024
   -494535.818 9   -367404.55847  20224465.329    20224464.7244   20224476.8464
  -1408325.343 9  -1067298.12746  21591370.083    21591370.2254   21591383.6154
  -1410654.140 9  -1064218.02946  21813677.726    21813676.7964   21813692.8024
    772427.517 9    603112.44245  24183997.509    24183997.4674   24184022.3434
 00  4 17 20  2 58.0000000  0  7 24  4  6  5 30 10  9               -0.000000075
    133257.706 9    112767.73547  20633584.030    20633583.7174   20633595.9244
    823246.266 9    642380.58345  23181001.912    23181001.6484   23181013.9594
  -1353453.671 9   -569479.71545  23579875.768    23579875.1124   23579894.8464
   -494570.599 9   -367431.65847  20224458.697    20224458.0894   20224470.2244
  -1410705.758 9  -1069152.99346  21590917.104    21590917.2494   21590930.6334
  -1413107.518 9  -1066129.75446  21813210.870    21813209.9494   21813225.9394
    775478.316 9    605489.66345  24184578.056    24184578.0044   24184602.8814
 00  4 17 20  2 59.0000000  0  7 24  4  6  5 30 10  9               -0.000000075
    134764.207 9    113941.62947  20633870.717    20633870.4084   20633882.6004
    826438.171 9    644867.77545  23181609.308    23181609.0274   23181621.3394
  -1355781.414 9   -571293.54145  23579432.797    23579432.1394   23579451.8904
   -494604.775 9   -367458.28847  20224452.209    20224451.5944   20224463.7274
  -1413085.701 9  -1071007.49846  21590464.193    21590464.3434   21590477.7144
  -1415560.425 9  -1068041.11446  21812744.100    21812743.1724   21812759.1574
    778529.144 9    607866.91545  24185158.626    24185158.5814   24185183.4314
 00  4 17 20  3  0.0000000  0  7 24  4  6  5 30 10  9               -0.000000074
    136271.034 9    115115.78347  20634157.444    20634157.1404   20634169.3224
    829630.068 9    647354.96545  23182216.707    23182216.4354   23182228.7454
  -1358109.200 9   -573107.39745  23578989.849    23578989.1864   23579008.9434
   -494638.441 9   -367484.51947  20224445.790    20224445.1784   20224457.3154
  -1415465.276 9  -1072861.69846  21590011.400    21590011.5564   21590024.9184
  -1418012.942 9  -1069952.14546  21812277.386    21812276.4564   21812292.4544
    781579.932 9    610244.13945  24185739.178    24185739.1404   24185763.9844
 00  4 17 20  3  1.0000000  0  7 24  4  6  5 30 10  9               -0.000000073
    137778.317 9    116290.29347  20634444.261    20634443.9524   20634456.1454
    832822.148 9    649842.31445  23182824.130    23182823.8544   23182836.1544
  -1360436.883 9   -574921.17245  23578546.878    23578546.2034   23578565.9754
   -494671.488 9   -367510.27247  20224439.507    20224438.9024   20224451.0344
  -1417844.339 9  -1074715.52046  21589558.668    21589558.8194   21589572.1794
  -1420464.940 9  -1071862.78746  21811810.782    21811809.8494   21811825.8454
    784630.792 9    612621.42245  24186319.778    24186319.7394   24186344.5794
 00  4 17 20  3  2.0000000  0  7 24  4  6  5 30 10  9               -0.000000073
    139285.946 9    117465.06847  20634731.162    20634730.8634   20634743.0524
    836014.269 9    652329.70145  23183431.592    23183431.3244   23183443.6004
  -1362764.568 9   -576734.94845  23578103.930    23578103.2504   23578123.0184
   -494703.977 9   -367535.59147  20224433.327    20224432.7264   20224444.8524
  -1420222.969 9  -1076568.98946  21589106.013    21589106.1734   21589119.5224
  -1422916.508 9  -1073773.09146  21811344.274    21811343.3314   21811359.3254
    787681.620 9    614998.67445  24186900.323    24186900.2494   24186925.1194
 00  4 17 20  3  3.0000000  0  7 24  4  6  5 30 10  9               -0.000000072
    140793.911 9    118640.10247  20635018.120    20635017.8154   20635030.0124
    839206.453 9    654817.11345  23184039.041    23184038.7924   23184051.0514
  -1365092.234 9   -578548.70645  23577660.993    23577660.3064   23577680.0834
   -494735.923 9   -367560.48647  20224427.248    20224426.6314   20224438.7784
  -1422601.195 9  -1078422.15046  21588653.470    21588653.6364   21588666.9674
  -1425367.656 9  -1075683.07346  21810877.824    21810876.8934   21810892.8764
    790732.448 9    617375.92545  24187480.915    24187480.7974   24187505.7164
 00  4 17 20  3  4.0000000  0  7 24  4  6  5 30 10  9               -0.000000071
    142302.252 9    119815.43547  20635305.147    20635304.8464   20635317.0494
    842398.704 9    657304.58145  23184646.512    23184646.2914   23184658.5294
  -1367419.914 9   -580362.47045  23577218.054    23577217.3634   23577237.1584
   -494767.350 9   -367584.97447  20224421.266    20224420.6654   20224432.7974
  -1424978.988 9  -1080274.97346  21588200.993    21588201.1594   21588214.4914
  -1427818.370 9  -1077592.71546  21810411.480    21810410.5574   21810426.5274
    793783.247 9    619753.14845  24188061.464    24188061.3144   24188086.2644
 00  4 17 20  3  5.0000000  0  7 24  4  6  5 30 10  9               -0.000000070
    143810.981 9    120991.07147  20635592.255    20635591.9574   20635604.1554
    845591.057 9    659792.12245  23185253.973    23185253.7834   23185266.0034
  -1369747.548 9   -582176.21145  23576775.117    23576774.4304   23576794.2184
   -494798.181 9   -367608.99647  20224415.396    20224414.7994   20224426.9214
  -1427356.320 9  -1082127.43846  21587748.610    21587748.7634   21587762.1094
  -1430268.599 9  -1079501.97846  21809945.212    21809944.2984   21809960.2554
    796834.066 9    622130.39545  24188642.049    24188641.8924   24188666.8604
 00  4 17 20  3  6.0000000  0  7 24  4  6  5 30 10  9               -0.000000070
    145320.009 9    122166.93847  20635879.404    20635879.1084   20635891.2934
    848783.480 9    662279.72845  23185861.489    23185861.3124   23185873.5404
  -1372075.199 9   -583989.95945  23576332.168    23576331.4754   23576351.2694
   -494828.503 9   -367632.62147  20224409.616    20224409.0134   20224421.1504
  -1429733.279 9  -1083979.61246  21587296.283    21587296.4364   21587309.7774
  -1432718.433 9  -1081410.93446  21809479.031    21809478.1324   21809494.0714
    799884.821 9    624507.59245  24189222.601    24189222.4114   24189247.4084
 00  4 17 20  3  7.0000000  0  7 24  4  6  5 30 10  9               -0.000000069
    146829.461 9    123343.12747  20636166.637    20636166.3494   20636178.5354
    851975.960 9    664767.36745  23186469.002    23186468.8224   23186481.0624
  -1374402.816 9   -585803.68045  23575889.242    23575888.5614   23575908.3354
   -494858.235 9   -367655.79147  20224403.983    20224403.3874   20224415.5074
  -1432109.752 9  -1085831.40746  21586844.057    21586844.2194   21586857.5434
  -1435167.765 9  -1083319.50246  21809012.925    21809012.0164   21809027.9674
    802935.617 9    626884.83545  24189803.160    24189802.9384   24189827.9554
 00  4 17 20  3  8.0000000  0  7 24  4  6  5 30 10  9               -0.000000068
    148339.200 9    124519.54947  20636453.939    20636453.6504   20636465.8514
    855168.470 9    667255.02545  23187076.500    23187076.3304   23187088.5614
  -1376730.486 9   -587617.44245  23575446.304    23575445.6384   23575465.3934
   -494887.466 9   -367678.57047  20224398.414    20224397.8114   20224409.9484
  -1434485.858 9  -1087682.91146  21586391.915    21586392.0724   21586405.3924
  -1437616.712 9  -1085227.76746  21808546.901    21808545.9984   21808561.9354
    805986.322 9    629261.99545  24190383.704    24190383.4674   24190408.4964
 00  4 17 20  3  9.0000000  0  7 24  4  6  5 30 10  9               -0.000000068
    149849.400 9    125696.32747  20636741.316    20636741.0224   20636753.2324
    858361.138 9    669742.81145  23187684.061    23187683.8994   23187696.1344
  -1379058.057 9   -589431.13245  23575003.352    23575002.6944   23575022.4084
   -494916.057 9   -367700.84647  20224392.965    20224392.3644   20224404.4984
  -1436861.452 9  -1089534.02946  21585939.856    21585940.0054   21585953.3234
  -1440065.124 9  -1087135.62346  21808081.002    21808080.1004   21808096.0264
    809037.127 9    631639.22945  24190964.276    24190964.0344   24190989.0654
 00  4 17 20  3 10.0000000  0  7 24  4  6  5 30 10  9               -0.000000067
    151359.922 9    126873.36247  20637028.763    20637028.4634   20637040.6854
    861553.841 9    672230.61745  23188291.602    23188291.4684   23188303.6694
  -1381385.654 9   -591244.83045  23574560.434    23574559.7914   23574579.4694
   -494944.153 9   -367722.74347  20224387.617    20224387.0084   20224399.1544
  -1439236.670 9  -1091384.84446  21585487.848    21585487.9974   21585501.3154
  -1442513.131 9  -1089043.13846  21807615.163    21807614.2624   21807630.1954
    812087.861 9    634016.40945  24191544.837    24191544.5804   24191569.6404
 00  4 17 20  3 11.0000000  0  7 24  4  6  5 30 10  9               -0.000000066
    152870.766 9    128050.64447  20637316.262    20637315.9734   20637328.1914
    864746.568 9    674718.46545  23188899.152    23188899.0394   23188911.2354
  -1383713.310 9   -593058.58245  23574117.489    23574116.8684   23574136.5014
   -494971.730 9   -367744.23147  20224382.363    20224381.7624   20224393.9014
  -1441611.516 9  -1093235.37146  21585035.939    21585036.0914   21585049.3944
  -1444960.728 9  -1090950.35546  21807149.382    21807148.4754   21807164.4264
    815138.552 9    636393.55045  24192125.382    24192125.1384   24192150.1834
 00  4 17 20  3 12.0000000  0  7 24  4  6  5 30 10  9               -0.000000066
    154382.066 9    129228.28047  20637603.863    20637603.5644   20637615.7854
    867939.469 9    677206.44145  23189506.755    23189506.6294   23189518.8384
  -1386040.869 9   -594872.26245  23573674.552    23573673.9354   23573693.5544
   -494998.661 9   -367765.21447  20224377.232    20224376.6354   20224388.7794
  -1443985.854 9  -1095085.49446  21584584.134    21584584.2734   21584597.5914
  -1447407.793 9  -1092857.16846  21806683.710    21806682.8174   21806698.7374
    818189.290 9    638770.73145  24192705.916    24192705.6854   24192730.7354
 00  4 17 20  3 13.0000000  0  7 24  4  6  5 30 10  9               -0.000000065
    155893.658 9    130406.13947  20637891.517    20637891.2254   20637903.4364
    871132.377 9    679694.42645  23190114.333    23190114.2084   23190126.3984
  -1388368.491 9   -596685.99245  23573231.623    23573231.0224   23573250.6084
   -495025.107 9   -367785.82247  20224372.210    20224371.6094   20224383.7564
  -1446359.832 9  -1096935.35046  21584132.369    21584132.5164   21584145.8134
  -1449854.473 9  -1094763.66546  21806218.146    21806217.2504   21806233.1704
    821239.978 9    641147.87545  24193286.462    24193286.2634   24193311.2814
 00  4 17 20  3 14.0000000  0  7 24  4  6  5 30 10  9               -0.000000064
    157405.670 9    131584.32947  20638179.219    20638178.9364   20638191.1454
    874325.422 9    682182.51145  23190721.970    23190721.8564   23190734.0204
  -1390696.051 9   -598499.66545  23572788.681    23572788.0874   23572807.6644
   -495050.938 9   -367805.95047  20224367.287    20224366.6924   20224378.8264
  -1448733.328 9  -1098784.82346  21583680.695    21583680.8294   21583694.1374
  -1452300.653 9  -1096669.76646  21805752.637    21805751.7524   21805767.6524
    824290.693 9    643525.04645  24193867.019    24193866.8514   24193891.8294
 00  4 17 20  3 15.0000000  0  7 24  4  6  5 30 10  9               -0.000000063
    158917.980 9    132762.75647  20638467.012    20638466.7274   20638478.9374
    877518.492 9    684670.62345  23191329.597    23191329.4874   23191341.6444
  -1393023.665 9   -600313.37345  23572345.741    23572345.1554   23572364.7334
   -495076.256 9   -367825.68047  20224362.485    20224361.8964   20224374.0224
  -1451106.462 9  -1100634.01146  21583229.124    21583229.2714   21583242.5684
  -1454746.430 9  -1098575.56846  21805287.228    21805286.3454   21805302.2304
    827341.338 9    645902.15745  24194447.568    24194447.4214   24194472.3804
 00  4 17 20  3 16.0000000  0  7 24  4  6  5 30 10  9               -0.000000063
    160430.650 9    133941.46347  20638754.864    20638754.5774   20638766.7914
    880711.618 9    687158.76745  23191937.232    23191937.1164   23191949.2854
  -1395351.252 9   -602127.06445  23571902.830    23571902.2714   23571921.8154
   -495101.020 9   -367844.97647  20224357.756    20224357.1594   20224369.2884
  -1453479.165 9  -1102482.86246  21582777.608    21582777.7544   21582791.0684
  -1457191.745 9  -1100480.99846  21804821.898    21804821.0074   21804836.8994
    830391.990 9    648279.26745  24195028.089    24195027.9594   24195052.9094
 00  4 17 20  3 17.0000000  0  7 24  4  6  5 30 10  9               -0.000000062
    161943.695 9    135120.45747  20639042.775    20639042.4984   20639054.6934
    883904.833 9    689646.99045  23192544.869    23192544.7644   23192556.9374
  -1397678.854 9   -603940.77445  23571459.885    23571459.3484   23571478.8794
   -495125.208 9   -367863.82647  20224353.169    20224352.5824   20224364.7064
  -1455851.447 9  -1104331.39746  21582326.167    21582326.3074   21582339.6194
  -1459636.597 9  -1102386.06946  21804356.653    21804355.7694   21804371.6594
    833442.624 9    650656.37345  24195608.635    24195608.5074   24195633.4934
 00  4 17 20  3 18.0000000  0  7 24  4  6  5 30 10  9               -0.000000061
    163457.065 9    136299.70347  20639330.781    20639330.4894   20639342.6984
    887098.098 9    692135.24545  23193152.535    23193152.4344   23193164.6134
  -1400006.471 9   -605754.49545  23571016.930    23571016.4144   23571035.9234
   -495148.864 9   -367882.25947  20224348.676    20224348.0754   20224360.2184
  -1458223.340 9  -1106179.63146  21581874.811    21581874.9494   21581888.2594
  -1462081.027 9  -1104290.82046  21803891.486    21803890.5914   21803906.4874
    836493.220 9    653033.43645  24196189.147    24196189.0254   24196214.0274
 00  4 17 20  3 19.0000000  0  7 24  4  6  5 30 10  9               -0.000000060
    164970.859 9    137479.28347  20639618.842    20639618.5504   20639630.7524
    890291.518 9    694623.62545  23193760.231    23193760.1354   23193772.3134
  -1402334.035 9   -607568.18345  23570574.020    23570573.5214   23570593.0034
   -495171.909 9   -367900.22047  20224344.273    20224343.6884   20224355.8134
  -1460594.763 9  -1108027.49746  21581423.557    21581423.6914   21581436.9904
  -1464524.929 9  -1106195.15546  21803426.443    21803425.5334   21803441.4254
    839543.874 9    655410.54745  24196769.699    24196769.5834   24196794.5924
 00  4 17 20  3 20.0000000  0  7 24  4  6  5 30 10  9               -0.000000060
    166484.965 9    138659.10747  20639906.954    20639906.6704   20639918.8804
    893484.931 9    697111.99245  23194367.915    23194367.8144   23194380.0124
  -1404661.654 9   -609381.90545  23570131.095    23570130.6084   23570150.0654
   -495194.439 9   -367917.77347  20224340.000    20224339.4114   20224351.5274
  -1462965.814 9  -1109875.06646  21580972.365    21580972.5044   21580985.7894
  -1466968.421 9  -1108099.16546  21802961.443    21802960.5354   21802976.4224
    842594.449 9    657787.60545  24197350.218    24197350.1134   24197375.1494
 00  4 17 20  3 21.0000000  0  7 24  4  6  5 30 10  9               -0.000000059
    167999.479 9    139839.24547  20640195.173    20640194.8814   20640207.0934
    896678.473 9    699600.45445  23194975.643    23194975.5334   23194987.7494
  -1406989.217 9   -611195.58545  23569688.153    23569687.6564   23569707.1154
   -495216.356 9   -367934.85047  20224335.832    20224335.2344   20224347.3654
  -1465336.398 9  -1111722.27246  21580521.241    21580521.3774   21580534.6564
  -1469411.388 9  -1110002.76946  21802496.564    21802495.6474   21802511.5364
    845645.071 9    660164.69445  24197930.750    24197930.6404   24197955.6974
 00  4 17 20  3 22.0000000  0  7 24  4  6  5 30 10  9               -0.000000058
    169514.293 9    141019.62347  20640483.435    20640483.1414   20640495.3604
    899872.049 9    702088.94645  23195583.341    23195583.2314   23195595.4424
  -1409316.852 9   -613009.31445  23569245.223    23569244.7224   23569264.1974
   -495237.791 9   -367951.55347  20224331.754    20224331.1574   20224343.2964
  -1467706.611 9  -1113569.18746  21580070.210    21580070.3284   21580083.6384
  -1471853.955 9  -1111906.06646  21802031.770    21802030.8494   21802046.7384
    848695.609 9    662541.72545  24198511.271    24198511.1564   24198536.2394
 00  4 17 20  3 23.0000000  0  7 24  4  6  5 30 10  9               -0.000000058
    171029.464 9    142200.27847  20640771.751    20640771.4614   20640783.6674
    903065.708 9    704577.52045  23196191.087    23196190.9804   23196203.1994
  -1411644.516 9   -614823.07245  23568802.274    23568801.7704   23568821.2424
   -495258.667 9   -367967.82047  20224327.754    20224327.1594   20224339.2934
  -1470076.411 9  -1115415.77646  21579619.254    21579619.3904   21579632.6804
  -1474296.056 9  -1113808.99146  21801567.050    21801566.1304   21801582.0124
    851746.145 9    664918.75545  24199091.775    24199091.6754   24199116.7674
 00  4 17 20  3 24.0000000  0  7 24  4  6  5 30 10  9               -0.000000057
    172545.005 9    143381.21547  20641060.148    20641059.8614   20641072.0634
    906259.454 9    707066.15045  23196798.847    23196798.7414   23196810.9384
  -1413972.152 9   -616636.80145  23568359.339    23568358.8264   23568378.3304
   -495278.960 9   -367983.63347  20224323.917    20224323.3324   20224335.4564
  -1472445.779 9  -1117262.02946  21579168.393    21579168.5234   21579181.8144
  -1476737.684 9  -1115711.55246  21801102.402    21801101.4814   21801117.3544
    854796.672 9    667295.76245  24199672.266    24199672.1754   24199697.2954
 00  4 17 20  3 25.0000000  0  7 24  4  6  5 30 10  9               -0.000000056
    174060.952 9    144562.47147  20641348.632    20641348.3424   20641360.5364
    909453.287 9    709554.85545  23197406.625    23197406.5194   23197418.7074
  -1416299.768 9   -618450.51545  23567916.408    23567915.8824   23567935.4114
   -495298.676 9   -367998.99747  20224320.158    20224319.5754   20224331.6914
  -1474814.674 9  -1119107.92146  21578717.584    21578717.7154   21578731.0014
  -1479178.793 9  -1117613.71246  21800637.879    21800636.9544   21800652.8324
    857847.248 9    669672.81945  24200252.791    24200252.7124   24200277.8504
 00  4 17 20  3 26.0000000  0  7 24  4  6  5 30 10  9               -0.000000055
    175577.207 9    145743.97347  20641637.156    20641636.8624   20641649.0704
    912647.154 9    712043.58545  23198014.389    23198014.2794   23198026.4784
  -1418627.438 9   -620264.28045  23567473.464    23567472.9394   23567492.4854
   -495317.879 9   -368013.96147  20224316.504    20224315.9174   20224328.0464
  -1477183.204 9  -1120953.52746  21578266.879    21578267.0074   21578280.2974
  -1481619.492 9  -1119515.55046  21800173.446    21800172.5144   21800188.3984
    860897.746 9    672049.80845  24200833.295    24200833.2304   24200858.3874
 00  4 17 20  3 27.0000000  0  7 24  4  6  5 30 10  9               -0.000000055
    177093.824 9    146925.75347  20641925.770    20641925.4724   20641937.6824
    915841.074 9    714532.37145  23198622.174    23198622.0684   23198634.2954
  -1420955.103 9   -622078.02445  23567030.503    23567029.9654   23567049.5224
   -495336.512 9   -368028.48147  20224312.962    20224312.3804   20224324.4944
  -1479551.308 9  -1122798.80146  21577816.233    21577816.3594   21577829.6474
  -1484059.721 9  -1121417.02346  21799709.064    21799708.1374   21799724.0104
    863948.232 9    674426.79645  24201413.795    24201413.7394   24201438.9304
 00  4 17 20  3 28.0000000  0  7 24  4  6  5 30 10  9               -0.000000054
    178610.801 9    148107.81247  20642214.446    20642214.1434   20642226.3584
    919035.064 9    717021.18345  23199229.985    23199229.8774   23199242.1204
  -1423282.806 9   -623891.80745  23566587.561    23566587.0224   23566606.5734
   -495354.604 9   -368042.58047  20224309.520    20224308.9324   20224321.0584
  -1481918.989 9  -1124643.74846  21577365.672    21577365.8104   21577379.0794
  -1486499.505 9  -1123318.14746  21799244.784    21799243.8484   21799259.7364
    866998.699 9    676803.75645  24201994.308    24201994.2574   24202019.4604
 00  4 17 20  3 29.0000000  0  7 24  4  6  5 30 10  9               -0.000000053
    180128.116 9    149290.13347  20642503.170    20642502.8634   20642515.0714
    922229.102 9    719510.03845  23199837.789    23199837.6864   23199849.9414
  -1425610.491 9   -625705.58345  23566144.601    23566144.0494   23566163.6104
   -495372.146 9   -368056.24847  20224306.180    20224305.5954   20224317.7274
  -1484286.272 9  -1126488.38146  21576915.198    21576915.3424   21576928.6144
  -1488938.849 9  -1125218.93346  21798780.597    21798779.6594   21798795.5464
    870049.134 9    679180.70145  24202574.790    24202574.7274   24202599.9624
 00  4 17 20  3 30.0000000  0  7 24  4  6  5 30 10  9               -0.000000053
    181645.783 9    150472.73447  20642791.964    20642791.6734   20642803.8704
    925423.198 9    721998.94045  23200445.605    23200445.4964   23200457.7384
  -1427938.197 9   -627519.36745  23565701.622    23565701.0764   23565720.6244
   -495389.125 9   -368069.47847  20224302.933    20224302.3374   20224314.4824
  -1486653.142 9  -1128332.69546  21576464.801    21576464.9344   21576478.2084
  -1491377.744 9  -1127119.37046  21798316.469    21798315.5314   21798331.4104
    873099.545 9    681557.62745  24203155.272    24203155.1864   24203180.4664
 00  4 17 20  3 31.0000000  0  7 24  4  6  5 30 10  9               -0.000000052
    183163.837 9    151655.63447  20643080.837    20643080.5434   20643092.7474
    928617.407 9    724487.92645  23201053.466    23201053.3454   23201065.5964
  -1430265.865 9   -629333.13045  23565258.696    23565258.1514   23565277.7074
   -495405.503 9   -368082.24247  20224299.833    20224299.2494   20224311.3844
  -1489019.537 9  -1130176.62946  21576014.467    21576014.6064   21576027.8724
  -1493816.134 9  -1129019.40546  21797852.465    21797851.5334   21797867.3994
    876149.953 9    683934.54945  24203735.783    24203735.6644   24203760.9774
 00  4 17 20  3 32.0000000  0  7 24  4  6  5 30 10  9               -0.000000051
    184682.179 9    152838.75547  20643369.768    20643369.4734   20643381.6834
    931811.591 9    726976.90445  23201661.287    23201661.1744   23201673.3954
  -1432593.611 9   -631146.95645  23564815.731    23564815.1884   23564834.7204
   -495421.373 9   -368094.60747  20224296.805    20224296.2214   20224308.3484
  -1491385.576 9  -1132020.29546  21575564.236    21575564.3874   21575577.6484
  -1496254.137 9  -1130919.13846  21797388.535    21797387.5844   21797403.4564
    879200.308 9    686311.43045  24204316.247    24204316.0924   24204341.4364
 00  4 17 20  3 33.0000000  0  7 24  4  6  5 30 10  9               -0.000000051
    186200.880 9    154022.16047  20643658.773    20643658.4824   20643670.6844
    935005.873 9    729465.94545  23202269.158    23202269.0514   23202281.2424
  -1434921.344 9   -632960.76245  23564372.756    23564372.2254   23564391.7344
   -495436.670 9   -368106.52647  20224293.895    20224293.3034   20224305.4294
  -1493751.177 9  -1133863.62346  21575114.056    21575114.1994   21575127.4694
  -1498691.670 9  -1132818.49946  21796924.685    21796923.7154   21796939.6224
    882250.623 9    688688.28945  24204896.731    24204896.5504   24204921.9124
 00  4 17 20  3 34.0000000  0  7 24  4  6  5 30 10  9               -0.000000050
    187719.978 9    155205.87047  20643947.870    20643947.5734   20643959.7824
    938200.252 9    731955.07345  23202877.029    23202876.9424   23202889.1044
  -1437249.036 9   -634774.54645  23563929.785    23563929.2714   23563948.7564
   -495451.348 9   -368117.96347  20224291.101    20224290.5154   20224302.6504
  -1496116.296 9  -1135706.57046  21574663.996    21574664.1514   21574677.4084
  -1501128.712 9  -1134717.49246  21796460.930    21796459.9654   21796475.8784
    885300.993 9    691065.17945  24205477.198    24205476.9974   24205502.3554
 00  4 17 20  3 35.0000000  0  7 24  4  6  5 30 10  9               -0.000000049
    189239.410 9    156389.84847  20644237.007    20644236.7124   20644248.9084
    941394.685 9    734444.24345  23203484.909    23203484.8024   23203496.9774
  -1439576.719 9   -636588.31645  23563486.849    23563486.3294   23563505.7874
   -495465.476 9   -368128.96947  20224288.417    20224287.8274   20224299.9684
  -1498481.009 9  -1137549.19546  21574214.007    21574214.1724   21574227.4154
  -1503565.312 9  -1136616.13346  21795997.240    21795996.2864   21796012.1884
    888351.322 9    693442.03445  24206057.675    24206057.4654   24206082.8204
 00  4 17 20  3 36.0000000  0  7 24  4  6  5 30 10  9               -0.000000049
    190759.223 9    157574.12347  20644526.203    20644525.9124   20644538.1194
    944589.199 9    736933.48345  23204092.825    23204092.6944   23204104.9124
  -1441904.380 9   -638402.07645  23563043.905    23563043.3854   23563062.8094
   -495479.009 9   -368139.51447  20224285.855    20224285.2694   20224297.4134
  -1500845.267 9  -1139391.46746  21573764.084    21573764.2444   21573777.5034
  -1506001.442 9  -1138514.41446  21795533.654    21795532.7064   21795548.6074
    891401.654 9    695818.90445  24206638.130    24206637.9134   24206663.2674
 00  4 17 20  3 37.0000000  0  7 24  4  6  5 30 10  9               -0.000000048
    192279.275 9    158758.57647  20644815.460    20644815.1724   20644827.3764
    947783.644 9    739422.65545  23204700.703    23204700.5414   23204712.7824
  -1444232.134 9   -640215.90245  23562600.919    23562600.4214   23562619.8184
   -495492.083 9   -368149.70147  20224283.368    20224282.7804   20224294.9264
  -1503209.193 9  -1141233.48046  21573314.246    21573314.4254   21573327.6764
  -1508437.222 9  -1140412.41946  21795070.140    21795069.1884   21795085.1154
    894451.900 9    698195.69745  24207218.591    24207218.3614   24207243.7204
 00  4 17 20  3 38.0000000  0  7 24  4  6  5 30 10  9               -0.000000048
    193799.775 9    159943.38447  20645104.821    20645104.5314   20645116.7274
    950978.240 9    741911.94145  23205308.615    23205308.4404   23205320.7024
  -1446559.773 9   -642029.64445  23562157.992    23562157.5084   23562176.8734
   -495504.494 9   -368159.37347  20224280.988    20224280.4124   20224292.5394
  -1505572.588 9  -1143075.09246  21572864.519    21572864.6874   21572877.9554
  -1510872.456 9  -1142310.00146  21794606.713    21794605.7584   21794621.6874
    897502.195 9    700572.53445  24207799.059    24207798.8284   24207824.1874
 00  4 17 20  3 39.0000000  0  7 24  4  6  5 30 10  9               -0.000000047
    195320.594 9    161128.43747  20645394.227    20645393.9414   20645406.1334
    954172.899 9    744401.28945  23205916.562    23205916.3774   23205928.6634
  -1448887.438 9   -643843.40845  23561715.033    23561714.5634   23561733.9134
   -495516.367 9   -368168.62747  20224278.731    20224278.1534   20224290.2864
  -1507935.590 9  -1144916.39046  21572414.831    21572414.9984   21572428.2584
  -1513307.272 9  -1144207.24646  21794143.394    21794142.4404   21794158.3764
    900552.463 9    702949.34445  24208379.510    24208379.2774   24208404.6124
 00  4 17 20  3 40.0000000  0  7 24  4  6  5 30 10  9               -0.000000046
    196841.719 9    162313.73147  20645683.661    20645683.3814   20645695.5704
    957367.576 9    746890.63145  23206524.484    23206524.3054   23206536.5854
  -1451215.133 9   -645657.19245  23561272.093    23561271.6404   23561290.9724
   -495527.726 9   -368177.48047  20224276.564    20224275.9754   20224288.1254
  -1510298.195 9  -1146757.38646  21571965.254    21571965.4194   21571978.6834
  -1515741.678 9  -1146104.18546  21793680.147    21793679.1904   21793695.1324
    903602.682 9    705326.12345  24208959.959    24208959.7364   24208985.0484
 00  4 17 20  3 41.0000000  0  7 24  4  6  5 30 10  9               -0.000000046
    198363.223 9    163499.32147  20645973.206    20645972.9204   20645985.1164
    960562.333 9    749380.05245  23207132.446    23207132.2944   23207144.5244
  -1453542.779 9   -647470.92245  23560829.141    23560828.7074   23560848.0194
   -495538.471 9   -368185.85547  20224274.541    20224273.9664   20224286.1014
  -1512660.325 9  -1148598.00446  21571515.743    21571515.9204   21571529.1734
  -1518175.591 9  -1148000.74146  21793216.971    21793216.0114   21793231.9504
    906652.909 9    707702.90445  24209540.431    24209540.1854   24209565.5074
 00  4 17 20  3 42.0000000  0  7 24  4  6  5 30 10  9               -0.000000045
    199885.036 9    164685.14247  20646262.804    20646262.5104   20646274.7154
    963757.103 9    751869.47845  23207740.387    23207740.2544   23207752.4694
  -1455870.462 9   -649284.69745  23560386.209    23560385.7754   23560405.0934
   -495548.694 9   -368193.82247  20224272.591    20224272.0184   20224284.1534
  -1515022.089 9  -1150438.33746  21571066.322    21571066.5024   21571079.7604
  -1520609.116 9  -1149896.98946  21792753.862    21792752.9024   21792768.8304
    909703.096 9    710079.65045  24210120.865    24210120.6204   24210145.9574
 00  4 17 20  3 43.0000000  0  7 24  4  6  5 30 10  9               -0.000000044
    201407.222 9    165871.26147  20646552.461    20646552.1794   20646564.3774
    966951.971 9    754358.98845  23208348.380    23208348.2544   23208360.4584
  -1458198.073 9   -651098.41445  23559943.252    23559942.8114   23559962.1384
   -495558.311 9   -368201.31447  20224270.750    20224270.1794   20224282.3094
  -1517383.350 9  -1152278.28246  21570616.982    21570617.1534   21570630.4254
  -1523042.129 9  -1151792.83546  21792290.877    21792289.9124   21792305.8494
    912753.318 9    712456.42445  24210701.328    24210701.1084   24210726.4044
 00  4 17 20  3 44.0000000  0  7 24  4  6  5 30 10  9               -0.000000044
    202929.731 9    167057.63047  20646842.203    20646841.9184   20646854.1144
    970146.875 9    756848.51745  23208956.346    23208956.2044   23208968.3954
  -1460525.710 9   -652912.14545  23559500.317    23559499.8794   23559519.2044
   -495567.391 9   -368208.38547  20224269.025    20224268.4504   20224280.5914
  -1519744.221 9  -1154117.91446  21570167.716    21570167.8944   21570181.1504
  -1525474.733 9  -1153688.36146  21791827.957    21791826.9934   21791842.9274
    915803.493 9    714833.15645  24211281.767    24211281.5584   24211306.8214
 00  4 17 20  3 45.0000000  0  7 24  4  6  5 30 10  9               -0.000000043
    204452.575 9    168244.26647  20647131.985    20647131.7084   20647143.8834
    973341.813 9    759338.07445  23209564.341    23209564.1844   23209576.3784
  -1462853.325 9   -654725.87445  23559057.376    23559056.9264   23559076.2614
   -495575.916 9   -368215.03047  20224267.412    20224266.8414   20224278.9884
  -1522104.668 9  -1155957.21246  21569718.537    21569718.7064   21569731.9774
  -1527906.894 9  -1155583.55246  21791365.146    21791364.1834   21791380.1234
    918853.627 9    717209.86645  24211862.183    24211861.9864   24211887.2234
 00  4 17 20  3 46.0000000  0  7 24  4  6  5 30 10  9               -0.000000043
    205975.764 9    169431.16547  20647421.843    20647421.5584   20647433.7334
    976536.812 9    761827.68645  23210172.321    23210172.1444   23210184.3564
  -1465180.930 9   -656539.58345  23558614.452    23558613.9924   23558633.3244
   -495583.864 9   -368221.22547  20224265.884    20224265.3124   20224277.4564
  -1524464.644 9  -1157796.15046  21569269.430    21569269.5954   21569282.8864
  -1530338.597 9  -1157478.37746  21790902.389    21790901.4344   21790917.3554
    921903.777 9    719586.57945  24212442.619    24212442.3954   24212467.6174
 00  4 17 20  3 47.0000000  0  7 24  4  6  5 30 10  9               -0.000000042
    207499.309 9    170618.34247  20647711.756    20647711.4674   20647723.6524
    979731.873 9    764317.34945  23210780.334    23210780.1224   23210792.3764
  -1467508.485 9   -658353.26445  23558171.541    23558171.0974   23558190.3874
   -495591.221 9   -368226.95947  20224264.475    20224263.9034   20224276.0374
  -1526824.171 9  -1159634.74246  21568820.422    21568820.5864   21568833.8644
  -1532769.844 9  -1159372.84046  21790439.734    21790438.7734   21790454.6934
    924953.916 9    721963.29745  24213023.039    24213022.8214   24213048.0374
 00  4 17 20  3 48.0000000  0  7 24  4  6  5 30 10  9               -0.000000042
    209023.133 9    171805.73747  20648001.737    20648001.4464   20648013.6264
    982926.946 9    766807.01545  23211388.336    23211388.1294   23211400.3894
  -1469836.097 9   -660166.98545  23557728.598    23557728.1544   23557747.4234
   -495598.063 9   -368232.29247  20224263.188    20224262.6044   20224274.7634
  -1529183.315 9  -1161473.03146  21568371.496    21568371.6574   21568384.9404
  -1535200.694 9  -1161267.00546  21789977.150    21789976.1944   21789992.1074
    928003.982 9    724339.96145  24213603.459    24213603.2604   24213628.4614
 00  4 17 20  3 49.0000000  0  7 24  4  6  5 30 10  9               -0.000000041
    210547.315 9    172993.41147  20648291.777    20648291.4754   20648303.6594
    986122.123 9    769296.75245  23211996.370    23211996.1694   23212008.3944
  -1472163.639 9   -661980.64645  23557285.675    23557285.2504   23557304.5164
   -495604.291 9   -368237.14247  20224262.019    20224261.4354   20224273.5854
  -1531541.957 9  -1163310.93546  21567922.654    21567922.8374   21567936.1104
  -1537631.060 9  -1163160.79346  21789514.650    21789513.7044   21789529.6114
    931054.064 9    726716.63045  24214183.877    24214183.6894   24214208.8804
 00  4 17 20  3 50.0000000  0  7 24  4  6  5 30 10  9               -0.000000040
    212071.832 9    174181.34647  20648581.892    20648581.5954   20648593.7734
    989317.308 9    771786.50845  23212604.401    23212604.1984   23212616.4054
  -1474491.198 9   -663794.31345  23556842.741    23556842.3174   23556861.5894
   -495609.965 9   -368241.56547  20224260.937    20224260.3464   20224272.5094
  -1533900.187 9  -1165148.51346  21567473.902    21567474.0784   21567487.3534
  -1540060.996 9  -1165054.24046  21789052.254    21789051.3134   21789067.2214
    934104.108 9    729093.27245  24214764.305    24214764.0994   24214789.3114
 00  4 17 20  3 51.0000000  0  7 24  4  6  5 30 10  9               -0.000000040
    213596.704 9    175369.55947  20648872.048    20648871.7444   20648883.9274
    992512.521 9    774276.28045  23213212.451    23213212.2464   23213224.4494
  -1476818.729 9   -665607.97645  23556399.828    23556399.3954   23556418.6734
   -495615.048 9   -368245.52647  20224259.973    20224259.3974   20224271.5364
  -1536257.966 9  -1166985.74646  21567025.222    21567025.4094   21567038.6814
  -1542490.474 9  -1166947.35146  21788589.930    21788588.9844   21788604.8914
    937154.161 9    731469.91745  24215344.711    24215344.4864   24215369.7134
 00  4 17 20  3 52.0000000  0  7 24  4  6  5 30 10  9               -0.000000039
    215121.911 9    176558.03047  20649162.303    20649161.9934   20649174.1734
    995707.802 9    776766.10545  23213820.482    23213820.2674   23213832.4684
  -1479146.229 9   -667421.60845  23555956.911    23555956.4724   23555975.7594
   -495619.549 9   -368249.03247  20224259.097    20224258.5174   20224270.6534
  -1538615.281 9  -1168822.61046  21566576.653    21566576.8304   21566590.0974
  -1544919.499 9  -1168840.09746  21788127.713    21788126.7834   21788142.6724
    940204.176 9    733846.54045  24215925.123    24215924.8844   24215950.1044
 00  4 17 20  3 53.0000000  0  7 24  4  6  5 30 10  9               -0.000000039
    216647.436 9    177746.75447  20649452.594    20649452.2824   20649464.4644
    998903.127 9    779255.97345  23214428.554    23214428.3264   23214440.5594
  -1481473.780 9   -669235.27745  23555513.991    23555513.5384   23555532.8424
   -495623.503 9   -368252.11247  20224258.352    20224257.7784   20224269.9054
  -1540972.194 9  -1170659.16146  21566128.140    21566128.3104   21566141.5954
  -1547348.104 9  -1170732.49946  21787665.537    21787664.6044   21787680.4964
    943254.140 9    736223.12545  24216505.512    24216505.2624   24216530.4834
 00  4 17 20  3 54.0000000  0  7 24  4  6  5 30 10  9               -0.000000038
    218173.321 9    178935.75647  20649742.952    20649742.6414   20649754.8154
   1002098.497 9    781745.87545  23215036.599    23215036.3664   23215048.6244
  -1483801.261 9   -671048.89745  23555071.087    23555070.6354   23555089.9304
   -495626.845 9   -368254.71547  20224257.731    20224257.1484   20224269.2944
  -1543328.648 9  -1172495.35646  21565679.730    21565679.9014   21565693.1774
  -1549776.243 9  -1172624.54546  21787203.489    21787202.5544   21787218.4374
    946304.113 9    738599.72645  24217085.926    24217085.6614   24217110.8794
 00  4 17 20  3 55.0000000  0  7 24  4  6  5 30 10  9               -0.000000038
    219699.478 9    180124.97247  20650033.361    20650033.0604   20650045.2264
   1005293.853 9    784235.76045  23215644.685    23215644.4244   23215656.7204
  -1486128.825 9   -672862.57445  23554628.147    23554627.6924   23554646.9864
   -495629.671 9   -368256.91947  20224257.195    20224256.6184   20224268.7674
  -1545684.708 9  -1174331.24246  21565231.376    21565231.5614   21565244.8254
  -1552204.006 9  -1174516.29646  21786741.496    21786740.5544   21786756.4424
    949354.019 9    740976.26245  24217666.321    24217666.0394   24217691.2574
 00  4 17 20  3 56.0000000  0  7 24  4  6  5 30 10  9               -0.000000038
    221225.998 9    181314.46847  20650323.871    20650323.5594   20650335.7334
   1008489.264 9    786725.68445  23216252.752    23216252.4934   23216264.7924
  -1488456.368 9   -674676.24145  23554185.236    23554184.7684   23554204.0484
   -495631.899 9   -368258.65547  20224256.758    20224256.1794   20224268.3174
  -1548040.330 9  -1176166.79046  21564783.116    21564783.3014   21564796.5574
  -1554631.296 9  -1176407.69846  21786279.571    21786278.6534   21786294.5124
    952403.904 9    743352.78545  24218246.696    24218246.4074   24218271.6224
 00  4 17 20  3 57.0000000  0  7 24  4  6  5 30 10  9               -0.000000037
    222752.911 9    182504.27347  20650614.434    20650614.1174   20650626.3004
   1011684.770 9    789215.69845  23216860.842    23216860.5804   23216872.8644
  -1490783.856 9   -676489.85545  23553742.314    23553741.8354   23553761.1234
   -495633.504 9   -368259.90947  20224256.468    20224255.8894   20224268.0304
  -1550395.473 9  -1178001.96546  21564334.946    21564335.1314   21564348.3964
  -1557058.098 9  -1178298.70246  21785817.773    21785816.8534   21785832.7234
    955453.811 9    745729.32145  24218827.100    24218826.8054   24218852.0334
 00  4 17 20  3 58.0000000  0  7 24  4  6  5 30 10  9               -0.000000037
    224280.111 9    183694.29747  20650905.028    20650904.7264   20650916.8984
   1014880.247 9    791705.67245  23217468.937    23217468.7004   23217480.9414
  -1493111.426 9   -678303.53745  23553299.392    23553298.9114   23553318.2004
   -495634.585 9   -368260.74847  20224256.257    20224255.6794   20224267.8234
  -1552750.238 9  -1179836.85346  21563886.857    21563887.0324   21563900.2994
  -1559484.509 9  -1180189.40346  21785356.037    21785355.1224   21785370.9774
    958503.647 9    748105.80245  24219407.470    24219407.1554   24219432.3924
 00  4 17 20  3 59.0000000  0  7 24  4  6  5 30 10  9               -0.000000036
    225807.688 9    184884.61647  20651195.720    20651195.4054   20651207.6014
   1018075.832 9    794195.73845  23218077.032    23218076.8084   23218089.0334
  -1495438.954 9   -680117.18045  23552856.468    23552856.0064   23552875.3004
   -495635.042 9   -368261.10347  20224256.176    20224255.5894   20224267.7384
  -1555104.529 9  -1181671.36346  21563438.847    21563439.0224   21563452.2874
  -1561910.435 9  -1182079.72646  21784894.385    21784893.4624   21784909.3214
    961553.512 9    750482.29845  24219987.848    24219987.5194   24220012.7924
 00  4 17 20  4  0.0000000  0  7 24  4  6  5 30 10  9               -0.000000036
    227335.620 9    186075.21247  20651486.477    20651486.1744   20651498.3464
   1021271.453 9    796685.82445  23218685.162    23218684.9484   23218697.1514
  -1497766.455 9   -681930.80345  23552413.545    23552413.0844   23552432.3824
   -495634.905 9   -368260.99847  20224256.207    20224255.6294   20224267.7644
  -1557458.390 9  -1183505.53346  21562990.937    21562991.1024   21563004.3654
  -1564335.900 9  -1183969.70646  21784432.832    21784431.9124   21784447.7704
    964603.387 9    752858.80245  24220568.246    24220567.9104   24220593.2124
 00  4 17 20  4  1.0000000  0  7 24  4  6  5 30 10  9               -0.000000036
    228863.934 9    187266.10047  20651777.304    20651776.9824   20651789.1744
   1024467.128 9    799175.95445  23219293.278    23219293.0484   23219305.2644
  -1500093.942 9   -683744.42245  23551970.620    23551970.1704   23551989.4504
   -495634.164 9   -368260.42347  20224256.349    20224255.7694   20224267.9084
  -1559811.795 9  -1185339.34646  21562543.093    21562543.2524   21562556.5284
  -1566760.896 9  -1185859.31346  21783971.385    21783970.4814   21783986.3184
    967653.272 9    755235.33045  24221148.619    24221148.2774   24221173.6004
 00  4 17 20  4  2.0000000  0  7 24  4  6  5 30 10  9               -0.000000035
    230392.533 9    188457.21547  20652068.181    20652067.8614   20652080.0464
   1027662.787 9    801666.07145  23219901.388    23219901.1384   23219913.3834
  -1502421.485 9   -685558.07745  23551527.716    23551527.2674   23551546.5514
   -495632.904 9   -368259.43847  20224256.592    20224256.0094   20224268.1524
  -1562164.840 9  -1187172.88146  21562095.325    21562095.4724   21562108.7474
  -1569185.502 9  -1187748.60046  21783509.998    21783509.0914   21783524.9314
    970703.100 9    757611.80845  24221729.004    24221728.6664   24221753.9914
 00  4 17 20  4  3.0000000  0  7 24  4  6  5 30 10  9               -0.000000035
    231921.475 9    189648.60147  20652359.125    20652358.8104   20652370.9904
   1030858.495 9    804156.24645  23220509.516    23220509.2564   23220521.5104
  -1504749.055 9   -687371.77245  23551084.770    23551084.3244   23551103.5864
   -495631.070 9   -368258.01247  20224256.945    20224256.3594   20224268.5024
  -1564517.469 9  -1189006.10046  21561647.641    21561647.7824   21561661.0764
  -1571609.675 9  -1189637.56146  21783048.686    21783047.7894   21783063.6094
    973752.887 9    759988.24845  24222309.356    24222309.0134   24222334.3394
 00  4 17 20  4  4.0000000  0  7 24  4  6  5 30 10  9               -0.000000035
    233450.813 9    190840.29447  20652650.147    20652649.8284   20652662.0204
   1034054.274 9    806646.45045  23221117.659    23221117.3864   23221129.6554
  -1507076.563 9   -689185.41245  23550641.864    23550641.4114   23550660.6514
   -495628.621 9   -368256.10447  20224257.416    20224256.8194   20224268.9634
  -1566869.633 9  -1190838.95246  21561200.026    21561200.1814   21561213.4734
  -1574033.371 9  -1191526.15446  21782587.466    21782586.5694   21782602.3864
    976802.723 9    762364.73345  24222889.759    24222889.4314   24222914.7334
 00  4 17 20  4  5.0000000  0  7 24  4  6  5 30 10  9               -0.000000034
    234980.512 9    192032.26847  20652941.247    20652940.9274   20652953.1294
   1037250.132 9    809136.72045  23221725.820    23221725.5264   23221737.8304
  -1509404.048 9   -690999.02745  23550198.964    23550198.5184   23550217.7334
   -495625.564 9   -368253.72547  20224257.991    20224257.3984   20224269.5414
  -1569221.345 9  -1192671.45346  21560752.512    21560752.6524   21560765.9574
  -1576456.585 9  -1193414.36546  21782126.327    21782125.4294   21782141.2394
    979852.544 9    764741.18945  24223470.119    24223469.7914   24223495.0834
 00  4 17 20  4  6.0000000  0  7 24  4  6  5 30 10  9               -0.000000034
    236510.544 9    193224.50347  20653232.404    20653232.0854   20653244.2924
   1040445.972 9    811626.98045  23222333.971    23222333.6534   23222346.0004
  -1511731.552 9   -692812.65145  23549756.029    23549755.5754   23549774.7814
   -495621.964 9   -368250.91947  20224258.678    20224258.0784   20224270.2314
  -1571572.670 9  -1194503.65346  21560305.080    21560305.2224   21560318.5154
  -1578879.381 9  -1195302.25246  21781665.285    21781664.3974   21781680.1884
    982902.358 9    767117.64745  24224050.490    24224050.1584   24224075.4684
 00  4 17 20  4  7.0000000  0  7 24  4  6  5 30 10  9               -0.000000034
    238040.923 9    194417.00647  20653523.638    20653523.3334   20653535.5204
   1043641.843 9    814117.28445  23222942.134    23222941.8214   23222954.2104
  -1514059.074 9   -694626.29945  23549313.122    23549312.6514   23549331.8594
   -495617.774 9   -368247.65647  20224259.472    20224258.8674   20224271.0184
  -1573923.537 9  -1196335.49946  21559857.715    21559857.8514   21559871.1464
  -1581301.725 9  -1197189.78946  21781204.340    21781203.4374   21781219.2344
    985952.179 9    769494.11845  24224630.874    24224630.5474   24224655.8764
 00  4 17 20  4  8.0000000  0  7 24  4  6  5 30 10  9               -0.000000033
    239571.661 9    195609.78647  20653814.905    20653814.6024   20653826.7954
   1046837.774 9    816607.62345  23223550.306    23223550.0004   23223562.4154
  -1516386.548 9   -696439.90945  23548870.214    23548869.7384   23548888.9554
   -495612.992 9   -368243.92947  20224260.382    20224259.7764   20224271.9334
  -1576273.973 9  -1198167.00446  21559410.437    21559410.5714   21559423.8624
  -1583723.590 9  -1199076.95246  21780743.471    21780742.5664   21780758.3524
    989002.010 9    771870.59545  24225211.244    24225210.9234   24225236.2564
 00  4 17 20  4  9.0000000  0  7 24  4  6  5 30 10  9               -0.000000033
    241102.778 9    196802.86347  20654106.260    20654105.9604   20654118.1544
   1050033.768 9    819098.00645  23224158.487    23224158.1894   23224170.6094
  -1518714.013 9   -698253.51245  23548427.322    23548426.8524   23548446.0504
   -495607.606 9   -368239.73047  20224261.393    20224260.7864   20224272.9394
  -1578623.958 9  -1199998.15846  21558963.258    21558963.3904   21558976.6874
  -1586144.989 9  -1200963.75746  21780282.695    21780281.8044   21780297.5774
    992051.839 9    774247.07345  24225791.628    24225791.3224   24225816.6724
 00  4 17 20  4 10.0000000  0  7 24  4  6  5 30 10  9               -0.000000033
    242634.199 9    197996.17747  20654397.688    20654397.3884   20654409.5844
   1053229.735 9    821588.35845  23224766.653    23224766.3594   23224778.7894
  -1521041.533 9   -700067.14545  23547984.407    23547983.9304   23548003.1424
   -495601.704 9   -368235.13147  20224262.512    20224261.9154   20224274.0554
  -1580973.559 9  -1201829.00846  21558516.164    21558516.3094   21558529.5874
  -1588565.973 9  -1202850.23146  21779821.977    21779821.0744   21779836.8574
    995101.658 9    776623.53745  24226372.010    24226371.7214   24226397.0724
 00  4 17 20  4 11.0000000  0  7 24  4  6  5 30 10  9               -0.000000033
    244166.015 9    199189.80247  20654689.202    20654688.9064   20654701.1034
   1056425.769 9    824078.77745  23225374.858    23225374.5484   23225387.0094
  -1523369.031 9   -701880.77545  23547541.506    23547541.0274   23547560.2404
   -495595.193 9   -368230.05847  20224263.749    20224263.1444   20224275.2884
  -1583322.705 9  -1203659.51246  21558069.114    21558069.2494   21558082.5334
  -1590986.485 9  -1204736.32746  21779361.371    21779360.4724   21779376.2454
    998151.476 9    778999.99045  24226952.363    24226952.0504   24226977.4444
 00  4 17 20  4 12.0000000  0  7 24  4  6  5 30 10  9               -0.000000032
    245698.139 9    200383.66347  20654980.733    20654980.4444   20654992.6334
   1059621.833 9    826569.21245  23225983.050    23225982.7464   23225995.2014
  -1525696.550 9   -703694.42145  23547098.593    23547098.1044   23547117.3154
   -495588.142 9   -368224.56547  20224265.106    20224264.4934   20224276.6614
  -1585671.466 9  -1205489.71546  21557622.165    21557622.2994   21557635.5714
  -1593406.572 9  -1206622.09246  21778900.851    21778899.9424   21778915.7264
   1001201.275 9    781376.43745  24227532.755    24227532.4284   24227557.8704
 00  4 17 20  4 13.0000000  0  7 24  4  6  5 30 10  9               -0.000000032
    247230.672 9    201577.84847  20655272.366    20655272.0834   20655284.2604
   1062817.951 9    829059.68945  23226591.252    23226590.9564   23226603.3964
  -1528024.022 9   -705508.03445  23546655.663    23546655.1704   23546674.4104
   -495580.463 9   -368218.58347  20224266.555    20224265.9424   20224278.0994
  -1588019.731 9  -1207319.52646  21557175.311    21557175.4384   21557188.7234
  -1595826.162 9  -1208507.48946  21778440.418    21778439.5204   21778455.2914
   1004251.152 9    783752.94145  24228113.136    24228112.8054   24228138.2884
 00  4 17 20  4 14.0000000  0  7 24  4  6  5 30 10  9               -0.000000032
    248763.542 9    202772.28747  20655564.082    20655563.7914   20655575.9864
   1066014.083 9    831550.18045  23227199.460    23227199.1744   23227211.6154
  -1530351.513 9   -707321.66545  23546212.773    23546212.2964   23546231.5364
   -495572.236 9   -368212.17047  20224268.136    20224267.5314   20224279.6854
  -1590367.594 9  -1209149.03146  21556728.533    21556728.6484   21556741.9314
  -1598245.326 9  -1210392.55946  21777980.044    21777979.1394   21777994.9184
   1007300.985 9    786129.41445  24228693.500    24228693.1644   24228718.6944
 00  4 17 20  4 15.0000000  0  7 24  4  6  5 30 10  9               -0.000000032
    250296.813 9    203967.04247  20655855.833    20655855.5494   20655867.7224
   1069210.314 9    834040.75245  23227807.667    23227807.3834   23227819.8244
  -1532678.999 9   -709135.27345  23545769.848    23545769.3734   23545788.6224
   -495563.394 9   -368205.28547  20224269.799    20224269.2004   20224281.3504
  -1592714.985 9  -1210978.16646  21556281.820    21556281.9274   21556295.2114
  -1600663.999 9  -1212277.24046  21777519.804    21777518.8884   21777534.6644
   1010350.883 9    788505.92645  24229273.904    24229273.5724   24229299.1184
 00  4 17 20  4 16.0000000  0  7 24  4  6  5 30 10  9               -0.000000032
    251830.375 9    205162.02247  20656147.669    20656147.3874   20656159.5484
   1072406.506 9    836531.30745  23228415.886    23228415.6114   23228428.0484
  -1535006.532 9   -710948.93645  23545326.946    23545326.4784   23545345.7104
   -495554.035 9   -368197.98947  20224271.586    20224270.9894   20224283.1324
  -1595061.975 9  -1212806.98246  21555835.220    21555835.3364   21555848.6094
  -1603082.263 9  -1214161.59646  21777059.618    21777058.6964   21777074.4764
   1013400.744 9    790882.42045  24229854.272    24229853.9404   24229879.5144
 00  4 17 20  4 17.0000000  0  7 24  4  6  5 30 10  9               -0.000000032
    253364.294 9    206357.28947  20656439.549    20656439.2654   20656451.4344
   1075602.739 9    839021.87745  23229024.108    23229023.8604   23229036.2814
  -1537334.047 9   -712762.57845  23544884.036    23544883.5874   23544902.7954
   -495544.103 9   -368190.24747  20224273.488    20224272.8874   20224285.0464
  -1597408.565 9  -1214635.49246  21555388.670    21555388.7754   21555402.0774
  -1605500.084 9  -1216045.60746  21776599.520    21776598.5954   21776614.3684
   1016450.579 9    793258.90245  24230434.655    24230434.3104   24230459.9044
 00  4 17 20  4 18.0000000  0  7 24  4  6  5 30 10  9               -0.000000031
    254898.590 9    207552.84747  20656731.519    20656731.2424   20656743.4114
   1078799.023 9    841512.49645  23229632.356    23229632.1204   23229644.5474
  -1539661.573 9   -714576.21545  23544441.108    23544440.6444   23544459.8844
   -495533.569 9   -368182.03947  20224275.481    20224274.8864   20224287.0344
  -1599754.694 9  -1216463.63746  21554942.229    21554942.3344   21554955.6444
  -1607917.426 9  -1217929.24146  21776139.501    21776138.5824   21776154.3364
   1019500.455 9    795635.42545  24231015.043    24231014.6874   24231040.2944
 00  4 17 20  4 19.0000000  0  7 24  4  6  5 30 10  9               -0.000000031
    256433.278 9    208748.70947  20657023.577    20657023.3004   20657035.4604
   1081995.377 9    844003.16745  23230240.597    23230240.3604   23230252.8014
  -1541989.033 9   -716389.82145  23543998.222    23543997.7504   23544017.0104
   -495522.423 9   -368173.35647  20224277.615    20224277.0244   20224289.1794
  -1602100.361 9  -1218291.42746  21554495.849    21554495.9444   21554509.2534
  -1610334.282 9  -1219812.48546  21775679.599    21775678.6824   21775694.4274
   1022550.369 9    798011.96345  24231595.446    24231595.1044   24231620.6904
 00  4 17 20  4 20.0000000  0  7 24  4  6  5 30 10  9               -0.000000031
    257968.302 9    209944.82947  20657315.676    20657315.3884   20657327.5594
   1085191.735 9    846493.81645  23230848.834    23230848.5804   23230861.0414
  -1544316.511 9   -718203.43145  23543555.307    23543554.8274   23543574.0974
   -495510.708 9   -368164.22847  20224279.814    20224279.2234   20224291.3864
  -1604445.616 9  -1220118.90446  21554049.552    21554049.6434   21554062.9554
  -1612750.717 9  -1221695.41946  21775219.753    21775218.8404   21775234.5844
   1025600.249 9    800388.47845  24232175.812    24232175.4824   24232201.0694
 00  4 17 20  4 21.0000000  0  7 24  4  6  5 30 10  9               -0.000000031
    259503.714 9    211141.25647  20657607.865    20657607.5864   20657619.7594
   1088388.134 9    848984.51545  23231457.093    23231456.8184   23231469.3054
  -1546643.981 9   -720017.03245  23543112.407    23543111.9134   23543131.1914
   -495498.405 9   -368154.64247  20224282.167    20224281.5714   20224293.7434
  -1606790.434 9  -1221946.02446  21553603.366    21553603.4514   21553616.7574
  -1615166.687 9  -1223577.98946  21774760.014    21774759.0884   21774774.8334
   1028650.129 9    802764.99545  24232756.209    24232755.8904   24232781.4684
 00  4 17 20  4 22.0000000  0  7 24  4  6  5 30 10  9               -0.000000031
    261039.472 9    212337.95147  20657900.098    20657899.8244   20657911.9934
   1091584.559 9    851475.21645  23232065.335    23232065.0474   23232077.5324
  -1548971.461 9   -721830.64045  23542669.489    23542668.9914   23542688.2894
   -495485.528 9   -368144.60747  20224284.614    20224284.0204   20224296.1984
  -1609134.840 9  -1223772.83146  21553157.235    21553157.3204   21553170.6204
  -1617582.235 9  -1225460.23246  21774300.365    21774299.4474   21774315.1774
   1031700.017 9    805141.51745  24233336.596    24233336.2894   24233361.8694
 00  4 17 20  4 23.0000000  0  7 24  4  6  5 30 10  9               -0.000000031
    262575.590 9    213534.92647  20658192.421    20658192.1414   20658204.3164
   1094781.028 9    853965.96945  23232673.614    23232673.3154   23232685.8154
  -1551298.937 9   -723644.24845  23542226.588    23542226.0694   23542245.4144
   -495472.059 9   -368134.11247  20224287.172    20224286.5784   20224298.7644
  -1611478.804 9  -1225599.28846  21552711.198    21552711.2984   21552724.5974
  -1619997.331 9  -1227342.12046  21773840.761    21773839.8344   21773855.5594
   1034749.874 9    807518.01245  24233916.976    24233916.6684   24233942.2644
 00  4 17 20  4 24.0000000  0  7 24  4  6  5 30 10  9               -0.000000031
    264112.003 9    214732.12847  20658484.792    20658484.5194   20658496.6754
   1097977.484 9    856456.70445  23233281.870    23233281.5644   23233294.0644
  -1553626.459 9   -725457.90745  23541783.657    23541783.1064   23541802.4924
   -495458.047 9   -368123.19347  20224289.831    20224289.2464   20224301.4084
  -1613822.398 9  -1227425.46546  21552265.221    21552265.3174   21552278.6084
  -1622412.019 9  -1229223.68446  21773381.275    21773380.3534   21773396.0814
   1037799.695 9    809894.48345  24234497.363    24234497.0474   24234522.6744
 00  4 17 20  4 25.0000000  0  7 24  4  6  5 30 10  9               -0.000000031
    265648.900 9    215929.71047  20658777.239    20658776.9664   20658789.1204
   1101174.083 9    858947.56545  23233890.187    23233889.8824   23233902.3724
  -1555953.837 9   -727271.44745  23541340.767    23541340.1724   23541359.6164
   -495443.308 9   -368111.70947  20224292.651    20224292.0644   20224304.2344
  -1616165.413 9  -1229251.19946  21551819.356    21551819.4464   21551832.7564
  -1624826.112 9  -1231104.78846  21772921.871    21772920.9414   21772936.6784
   1040849.636 9    812271.04845  24235077.762    24235077.4344   24235103.1004
 00  4 17 20  4 26.0000000  0  7 24  4  6  5 30 10  9               -0.000000031
    267186.097 9    217127.52447  20659069.755    20659069.4844   20659081.6334
   1104370.695 9    861438.44245  23234498.471    23234498.1624   23234510.6444
  -1558281.276 9   -729085.04145  23540897.870    23540897.2474   23540916.7354
   -495428.032 9   -368099.80847  20224295.559    20224294.9824   20224307.1364
  -1618508.060 9  -1231076.63646  21551373.562    21551373.6554   21551386.9544
  -1627239.806 9  -1232985.59246  21772462.577    21772461.6394   21772477.3684
   1043899.517 9    814647.55445  24235658.121    24235657.8014   24235683.4584
 00  4 17 20  4 27.0000000  0  7 24  4  6  5 30 10  9               -0.000000031
    268723.639 9    218325.60647  20659362.340    20659362.0614   20659374.2274
   1107567.327 9    863929.32145  23235106.773    23235106.4604   23235118.9454
  -1560608.722 9   -730898.62245  23540454.975    23540454.3434   23540473.8214
   -495412.170 9   -368087.44747  20224298.564    20224297.9904   20224310.1414
  -1620850.297 9  -1232901.75546  21550927.835    21550927.9334   21550941.2234
  -1629653.061 9  -1234866.04846  21772003.330    21772002.4064   21772018.1234
   1046949.395 9    817024.07045  24236238.514    24236238.2014   24236263.8444
 00  4 17 20  4 28.0000000  0  7 24  4  6  5 30 10  9               -0.000000031
    270261.539 9    219523.97247  20659654.991    20659654.7094   20659666.8814
   1110764.029 9    866420.26145  23235715.080    23235714.7874   23235727.2494
  -1562936.087 9   -732712.15445  23540012.086    23540011.4414   23540030.9294
   -495395.672 9   -368074.59247  20224301.699    20224301.1274   20224313.2744
  -1623192.081 9  -1234726.51546  21550482.210    21550482.3024   21550495.5884
  -1632065.833 9  -1236746.13246  21771544.201    21771543.2844   21771558.9954
   1049999.293 9    819400.60245  24236818.928    24236818.6094   24236844.2374
 00  4 17 20  4 29.0000000  0  7 24  4  6  5 30 10  9               -0.000000031
    271799.815 9    220722.63047  20659947.727    20659947.4464   20659959.6274
   1113960.786 9    868911.24345  23236323.394    23236323.1374   23236335.5464
  -1565263.473 9   -734525.68345  23539569.210    23539568.5564   23539588.0764
   -495378.555 9   -368061.25647  20224304.980    20224304.4054   20224316.5634
  -1625533.410 9  -1236550.92146  21550036.655    21550036.7604   21550050.0374
  -1634478.129 9  -1238625.83546  21771085.150    21771084.2414   21771099.9434
   1053049.196 9    821777.13045  24237399.312    24237398.9874   24237424.5924
 00  4 17 20  4 30.0000000  0  7 24  4  6  5 30 10  9               -0.000000031
    273338.373 9    221921.50747  20660240.497    20660240.2234   20660252.4004
   1117157.565 9    871402.23845  23236931.736    23236931.4874   23236943.8874
  -1567590.856 9   -736339.21845  23539126.292    23539125.6434   23539145.1584
   -495360.879 9   -368047.48747  20224308.320    20224307.7434   20224319.9054
  -1627874.367 9  -1238375.04046  21549591.191    21549591.2994   21549604.5864
  -1636890.021 9  -1240505.21946  21770626.191    21770625.2904   21770640.9754
   1056099.051 9    824153.62045  24237979.682    24237979.3474   24238004.9384
 00  4 17 20  4 31.0000000  0  7 24  4  6  5 30 10  9               -0.000000031
    274877.252 9    223120.63347  20660533.355    20660533.0814   20660545.2454
   1120354.364 9    873893.24345  23237540.042    23237539.7954   23237552.2014
  -1569918.281 9   -738152.78245  23538683.407    23538682.7594   23538702.2724
   -495342.615 9   -368033.25147  20224311.816    20224311.2414   20224323.3894
  -1630214.919 9  -1240198.84346  21549145.781    21549145.8874   21549159.1844
  -1639301.489 9  -1242384.27946  21770167.304    21770166.3884   21770182.0974
   1059148.854 9    826530.07445  24238560.051    24238559.6854   24238585.2814
 00  4 17 20  4 32.0000000  0  7 24  4  6  5 30 10  9               -0.000000031
    276416.496 9    224320.04047  20660826.263    20660825.9884   20660838.1664
   1123551.245 9    876384.31945  23238148.408    23238148.1734   23238160.5864
  -1572245.695 9   -739966.34845  23538240.494    23538239.8574   23538259.3454
   -495323.740 9   -368018.54247  20224315.389    20224314.8184   20224326.9574
  -1632555.034 9  -1242022.30946  21548700.472    21548700.5764   21548713.8804
  -1641712.482 9  -1244262.97146  21769708.504    21769707.5864   21769723.2784
   1062198.675 9    828906.53445  24239140.441    24239140.0534   24239165.6574
 00  4 17 20  4 33.0000000  0  7 24  4  6  5 30 10  9               -0.000000031
    277956.119 9    225519.74847  20661119.222    20661118.9454   20661131.1184
   1126748.219 9    878875.46645  23238756.761    23238756.5524   23238768.9594
  -1574573.019 9   -741779.84745  23537797.607    23537796.9634   23537816.4374
   -495304.222 9   -368003.33347  20224319.106    20224318.5264   20224330.6744
  -1634894.702 9  -1243845.42546  21548255.247    21548255.3534   21548268.6524
  -1644122.986 9  -1246141.28546  21769249.786    21769248.8634   21769264.5484
   1065248.519 9    831283.01545  24239720.822    24239720.4114   24239746.0254
 00  4 17 20  4 34.0000000  0  7 24  4  6  5 30 10  9               -0.000000031
    279496.092 9    226719.73147  20661412.278    20661412.0024   20661424.1654
   1129945.298 9    881366.68645  23239365.122    23239364.9134   23239377.3374
  -1576900.309 9   -743593.31745  23537354.728    23537354.0904   23537373.5614
   -495284.068 9   -367987.62947  20224322.962    20224322.3934   20224334.5374
  -1637233.892 9  -1245668.17146  21547810.119    21547810.2414   21547823.5234
  -1646532.994 9  -1248019.22046  21768791.180    21768790.2504   21768805.9294
   1068298.385 9    833659.51445  24240301.208    24240300.7794   24240326.4104
 00  4 17 20  4 35.0000000  0  7 24  4  6  5 30 10  9               -0.000000031
    281036.374 9    227919.95147  20661705.390    20661705.1194   20661717.2854
   1133142.374 9    883857.91645  23239973.504    23239973.2924   23239985.7454
  -1579227.616 9   -745406.79745  23536911.863    23536911.2164   23536930.6904
   -495263.369 9   -367971.50247  20224326.901    20224326.3304   20224338.4864
  -1639572.719 9  -1247490.62946  21547365.032    21547365.1594   21547378.4364
  -1648942.598 9  -1249896.81946  21768332.645    21768331.7184   21768347.3914
   1071348.148 9    836035.93245  24240881.571    24240881.1374   24240906.7754
 00  4 17 20  4 36.0000000  0  7 24  4  6  5 30 10  9               -0.000000031
    282577.085 9    229120.50647  20661998.565    20661998.2964   20662010.4634
   1136339.553 9    886349.21645  23240581.924    23240581.7014   23240594.1944
  -1581554.867 9   -747220.22645  23536469.001    23536468.3354   23536487.8414
   -495242.009 9   -367954.85847  20224330.964    20224330.3974   20224342.5314
  -1641911.036 9  -1249312.69246  21546920.068    21546920.1884   21546933.4694
  -1651351.677 9  -1251774.01146  21767874.221    21767873.2964   21767888.9604
   1074397.972 9    838412.40545  24241461.962    24241461.5234   24241487.1684
 00  4 17 20  4 37.0000000  0  7 24  4  6  5 30 10  9               -0.000000031
    284118.143 9    230321.32947  20662291.823    20662291.5434   20662303.7194
   1139536.784 9    888840.56345  23241190.323    23241190.0994   23241202.6314
  -1583882.078 9   -749033.63445  23536026.117    23536025.4204   23536044.9414
   -495220.056 9   -367937.75247  20224335.141    20224334.5744   20224346.7104
  -1644248.926 9  -1251134.41546  21546475.172    21546475.2964   21546488.5794
  -1653760.291 9  -1253650.85446  21767415.865    21767414.9224   21767430.5974
   1077447.812 9    840788.87845  24242042.351    24242041.9134   24242067.5564
 00  4 17 20  4 38.0000000  0  7 24  4  6  5 30 10  9               -0.000000032
    285659.499 9    231522.38047  20662585.145    20662584.8804   20662597.0424
   1142734.067 9    891331.95445  23241798.743    23241798.5174   23241811.0864
  -1586209.309 9   -750847.05045  23535583.247    23535582.5464   23535602.0764
   -495197.550 9   -367920.21447  20224339.411    20224338.8414   20224350.9834
  -1646586.431 9  -1252955.85146  21546030.361    21546030.5034   21546043.7724
  -1656168.489 9  -1255527.36446  21766957.594    21766956.6504   21766972.3204
   1080497.590 9    843165.31045  24242622.697    24242622.2494   24242647.9344
 00  4 17 20  4 39.0000000  0  7 24  4  6  5 30 10  9               -0.000000032
    287201.211 9    232723.71447  20662878.510    20662878.2474   20662890.4034
   1145931.398 9    893823.36245  23242407.164    23242406.9374   23242419.5034
  -1588536.528 9   -752660.45645  23535140.387    23535139.6924   23535159.2144
   -495174.442 9   -367902.21047  20224343.820    20224343.2484   20224355.3954
  -1648923.489 9  -1254776.93646  21545585.620    21545585.7714   21545599.0464
  -1658576.205 9  -1257403.50446  21766499.421    21766498.4874   21766514.1534
   1083547.386 9    845541.76245  24243203.073    24243202.6394   24243228.3434
 00  4 17 20  4 40.0000000  0  7 24  4  6  5 30 10  9               -0.000000032
    288743.313 9    233925.35247  20663171.968    20663171.7044   20663183.8514
   1149128.820 9    896314.86045  23243015.627    23243015.4154   23243027.9854
  -1590863.736 9   -754473.86845  23534697.549    23534696.8584   23534716.3724
   -495150.719 9   -367883.72747  20224348.344    20224347.7754   20224359.9024
  -1651260.070 9  -1256597.65246  21545140.989    21545141.1394   21545154.4144
  -1660983.440 9  -1259279.26646  21766041.345    21766040.4044   21766056.0744
   1086597.188 9    847918.21345  24243783.458    24243783.0374   24243808.7544
 00  4 17 20  4 41.0000000  0  7 24  4  6  5 30 10  9               -0.000000032
    290285.719 9    235127.22947  20663465.488    20663465.2214   20663477.3714
   1152326.252 9    898806.36745  23243624.076    23243623.8734   23243636.4324
  -1593190.937 9   -756287.26545  23534254.676    23534254.0144   23534273.4894
   -495126.442 9   -367864.81047  20224352.956    20224352.3824   20224364.5124
  -1653596.271 9  -1258418.05746  21544696.416    21544696.5674   21544709.8404
  -1663390.264 9  -1261154.71846  21765583.319    21765582.3814   21765598.0444
   1089646.964 9    850294.65345  24244363.813    24244363.3864   24244389.1264
 00  4 17 20  4 42.0000000  0  7 24  4  6  5 30 10  9               -0.000000032
    291828.506 9    236329.40047  20663759.065    20663758.8074   20663770.9494
   1155523.776 9    901297.93845  23244232.531    23244232.3424   23244244.8964
  -1595518.112 9   -758100.65245  23533811.830    23533811.1814   23533830.6584
   -495101.552 9   -367845.41547  20224357.688    20224357.1094   20224369.2344
  -1655932.001 9  -1260238.09946  21544251.942    21544252.0954   21544265.3654
  -1665796.617 9  -1263029.78646  21765125.401    21765124.4584   21765140.1284
   1092696.735 9    852671.06845  24244944.182    24244943.7544   24244969.4834
 00  4 17 20  4 43.0000000  0  7 24  4  6  5 30 10  9               -0.000000032
    293371.574 9    237531.79547  20664052.708    20664052.4444   20664064.5834
   1158721.303 9    903789.51445  23244840.999    23244840.8124   23244853.3704
  -1597845.309 9   -759914.04245  23533368.954    23533368.3004   23533387.7974
   -495076.109 9   -367825.58447  20224362.549    20224361.9664   20224374.1114
  -1658267.344 9  -1262057.84346  21543807.536    21543807.7024   21543820.9484
  -1668202.572 9  -1264904.55646  21764667.563    21764666.6154   21764682.2754
   1095746.444 9    855047.44345  24245524.554    24245524.1124   24245549.8534
 00  4 17 20  4 44.0000000  0  7 24  4  6  5 30 10  9               -0.000000032
    294915.064 9    238734.51447  20664346.408    20664346.1314   20664358.2794
   1161918.964 9    906281.20645  23245449.484    23245449.2814   23245461.8644
  -1600172.385 9   -761727.33645  23532926.128    23532925.4754   23532944.9674
   -495050.002 9   -367805.24347  20224367.515    20224366.9424   20224379.0584
  -1660602.192 9  -1263877.20546  21543363.234    21543363.3994   21543376.6574
  -1670608.008 9  -1266778.91346  21764209.835    21764208.9014   21764224.5544
   1098796.251 9    857423.90445  24246104.919    24246104.4714   24246130.2254
 00  4 17 20  4 45.0000000  0  7 24  4  6  5 30 10  9               -0.000000032
    296458.916 9    239937.51447  20664640.206    20664639.9284   20664652.0944
   1165116.691 9    908772.93645  23246058.004    23246057.7994   23246070.3794
  -1602499.444 9   -763540.62345  23532483.292    23532482.6424   23532502.1324
   -495023.275 9   -367784.42047  20224372.606    20224372.0194   20224384.1394
  -1662936.575 9  -1265696.20446  21542918.998    21542919.1774   21542932.4214
  -1673012.958 9  -1268652.88846  21763752.157    21763751.2194   21763766.8634
   1101846.012 9    859800.31945  24246685.284    24246684.8384   24246710.6184
 00  4 17 20  4 46.0000000  0  7 24  4  6  5 30 10  9               -0.000000032
    298003.061 9    241140.74747  20664934.057    20664933.7744   20664945.9454
   1168314.421 9    911264.67345  23246666.495    23246666.2894   23246678.8894
  -1604826.513 9   -765353.91145  23532040.474    23532039.8184   23532059.3234
   -494995.977 9   -367763.14947  20224377.798    20224377.2054   20224389.3284
  -1665270.542 9  -1267514.87446  21542474.874    21542475.0454   21542488.2984
  -1675417.476 9  -1270526.53646  21763294.609    21763293.6664   21763309.3094
   1104895.750 9    862176.72145  24247265.653    24247265.2064   24247291.0154
 00  4 17 20  4 47.0000000  0  7 24  4  6  5 30 10  9               -0.000000032
    299547.567 9    242344.25547  20665227.957    20665227.6814   20665239.8514
   1171512.250 9    913756.48845  23247275.019    23247274.7974   23247287.4194
  -1607153.496 9   -767167.13945  23531597.662    23531597.0064   23531616.5084
   -494968.058 9   -367741.39247  20224383.131    20224382.5514   20224394.6594
  -1667604.059 9  -1269333.19746  21542030.818    21542030.9834   21542044.2564
  -1677821.522 9  -1272399.81246  21762837.121    21762836.1824   21762851.8074
   1107945.526 9    864553.15845  24247846.012    24247845.5664   24247871.3774
 00  4 17 20  4 48.0000000  0  7 24  4  6  5 30 10  9               -0.000000033
    301092.416 9    243548.03647  20665521.944    20665521.6674   20665533.8414
   1174710.108 9    916248.32045  23247883.552    23247883.3264   23247895.9524
  -1609480.495 9   -768980.38645  23531154.825    23531154.1524   23531173.6604
   -494939.551 9   -367719.18147  20224388.540    20224387.9574   20224400.0614
  -1669937.141 9  -1271151.17546  21541586.847    21541587.0204   21541600.2944
  -1680225.104 9  -1274272.72746  21762379.713    21762378.7794   21762394.4124
   1110995.276 9    866929.57145  24248426.374    24248425.9134   24248451.7024
 00  4 17 20  4 49.0000000  0  7 24  4  6  5 30 10  9               -0.000000033
    302637.578 9    244752.05747  20665815.958    20665815.6744   20665827.8374
   1177908.016 9    918740.18145  23248492.075    23248491.8454   23248504.4774
  -1611807.392 9   -770793.54645  23530712.033    23530711.3494   23530730.8664
   -494910.437 9   -367696.49047  20224394.076    20224393.4844   20224405.5984
  -1672269.775 9  -1272968.81546  21541142.936    21541143.1174   21541156.3884
  -1682628.211 9  -1276145.28146  21761922.428    21761921.4964   21761937.1354
   1114045.032 9    869306.00245  24249006.735    24249006.2714   24249032.0344
 00  4 17 20  4 50.0000000  0  7 24  4  6  5 30 10  9               -0.000000033
    304183.189 9    245956.43047  20666110.080    20666109.8104   20666121.9654
   1181106.087 9    921232.17445  23249100.664    23249100.4434   23249113.0844
  -1614134.180 9   -772606.61745  23530269.264    23530268.5754   23530288.0834
   -494880.612 9   -367673.25347  20224399.765    20224399.1804   20224411.2814
  -1674601.857 9  -1274786.02246  21540699.156    21540699.3354   21540712.5934
  -1685030.722 9  -1278017.36546  21761465.232    21761464.3024   21761479.9344
   1117094.888 9    871682.49845  24249587.130    24249586.6694   24249612.3974
 00  4 17 20  4 51.0000000  0  7 24  4  6  5 30 10  9               -0.000000033
    305728.971 9    247160.93647  20666404.242    20666403.9574   20666416.1264
   1184304.070 9    923724.10845  23249709.222    23249709.0104   23249721.6364
  -1616461.065 9   -774419.77445  23529826.456    23529825.7624   23529845.2674
   -494850.358 9   -367649.67847  20224405.518    20224404.9264   20224417.0274
  -1676933.670 9  -1276603.01746  21540255.439    21540255.6124   21540268.8794
  -1687432.927 9  -1279889.19846  21761008.093    21761007.1694   21761022.7994
   1120144.567 9    874058.85045  24250167.485    24250167.0284   24250192.7074
 00  4 17 20  4 52.0000000  0  7 24  4  6  5 30 10  9               -0.000000033
    307275.128 9    248365.72947  20666698.466    20666698.1834   20666710.3414
   1187502.135 9    926216.11645  23250317.771    23250317.5704   23250330.1684
  -1618787.856 9   -776232.84345  23529383.669    23529382.9774   23529402.4734
   -494819.454 9   -367625.59947  20224411.418    20224410.8224   20224422.9234
  -1679264.998 9  -1278419.63746  21539811.795    21539811.9684   21539825.2384
  -1689834.607 9  -1281760.63446  21760551.071    21760550.1464   21760565.7674
   1123194.293 9    876435.24545  24250747.835    24250747.3754   24250773.0264
 00  4 17 20  4 53.0000000  0  7 24  4  6  5 30 10  9               -0.000000033
    308821.637 9    249570.80447  20666992.765    20666992.4794   20667004.6554
   1190700.312 9    928708.19645  23250926.369    23250926.1704   23250938.7504
  -1621114.556 9   -778045.84745  23528940.918    23528940.2434   23528959.7354
   -494787.917 9   -367601.02347  20224417.400    20224416.8084   20224428.8994
  -1681595.863 9  -1280235.88846  21539368.250    21539368.4254   21539381.6914
  -1692235.782 9  -1283631.67246  21760094.141    21760093.2114   21760108.8324
   1126244.067 9    878811.66945  24251328.201    24251327.7544   24251353.3794
 00  4 17 20  4 54.0000000  0  7 24  4  6  5 30 10  9               -0.000000033
    310368.459 9    250776.11747  20667287.094    20667286.8054   20667298.9684
   1193898.514 9    931200.30845  23251534.958    23251534.7484   23251547.3334
  -1623441.269 9   -779858.86045  23528498.130    23528497.4704   23528516.9794
   -494755.807 9   -367576.00347  20224423.523    20224422.9234   20224435.0184
  -1683926.315 9  -1282051.81746  21538924.784    21538924.9624   21538938.2404
  -1694636.508 9  -1285502.37046  21759637.292    21759636.3674   21759651.9864
   1129293.817 9    881188.08045  24251908.555    24251908.1034   24251933.7134
 00  4 17 20  4 55.0000000  0  7 24  4  6  5 30 10  9               -0.000000033
    311915.614 9    251981.69047  20667581.519    20667581.2324   20667593.3934
   1197096.766 9    933692.45845  23252143.568    23252143.3754   23252155.9454
  -1625767.889 9   -781671.80345  23528055.381    23528054.7274   23528074.2514
   -494723.086 9   -367550.50747  20224429.750    20224429.1494   20224441.2444
  -1686256.329 9  -1283867.41546  21538481.375    21538481.5504   21538494.8364
  -1697036.756 9  -1287372.67746  21759180.522    21759179.5944   21759195.2224
   1132343.582 9    883564.50645  24252488.926    24252488.4714   24252514.0804
 00  4 17 20  4 56.0000000  0  7 24  4  6  5 30 10  9               -0.000000033
    313463.132 9    253187.54747  20667876.008    20667875.7184   20667887.8934
   1200295.095 9    936184.66345  23252752.190    23252751.9954   23252764.5454
  -1628094.477 9   -783484.72545  23527612.642    23527611.9844   23527631.5254
   -494689.759 9   -367524.53547  20224436.093    20224435.4944   20224447.5914
  -1688585.883 9  -1285682.64846  21538038.084    21538038.2564   21538051.5284
  -1699436.506 9  -1289242.61046  21758723.875    21758722.9404   21758738.5954
   1135393.325 9    885940.90445  24253069.280    24253068.8204   24253094.4224
 00  4 17 20  4 57.0000000  0  7 24  4  6  5 30 10  9               -0.000000033
    315010.956 9    254393.64247  20668170.538    20668170.2444   20668182.4244
   1203493.465 9    938676.88745  23253360.797    23253360.5944   23253373.1154
  -1630421.043 9   -785297.63745  23527169.918    23527169.2604   23527188.7974
   -494655.862 9   -367498.12747  20224442.558    20224441.9604   20224454.0624
  -1690915.029 9  -1287497.56746  21537594.874    21537595.0434   21537608.3364
  -1701835.816 9  -1291112.20246  21758267.275    21758266.3374   21758281.9944
   1138443.115 8    888317.34845  24253649.662    24253649.1694   24253674.8114
 00  4 17 20  4 58.0000000  0  7 24  4  6  5 30 10  9               -0.000000033
    316559.089 9    255599.98847  20668465.132    20668464.8404   20668477.0244
   1206691.892 9    941169.17345  23253969.456    23253969.2534   23253981.7584
  -1632747.581 9   -787110.52245  23526727.167    23526726.5084   23526746.0274
   -494621.370 9   -367471.24747  20224449.113    20224448.5154   20224460.6204
  -1693243.724 9  -1289312.12446  21537151.722    21537151.8904   21537165.1844
  -1704234.654 9  -1292981.43146  21757810.787    21757809.8424   21757825.5094
   1141492.875 8    890693.76045  24254230.019    24254229.4984   24254255.1954
 00  4 17 20  4 59.0000000  0  7 24  4  6  5 30 10  9               -0.000000033
    318107.553 9    256806.58247  20668759.806    20668759.5164   20668771.7004
   1209890.353 9    943661.47345  23254578.092    23254577.9004   23254590.3884
  -1635074.028 9   -788923.32645  23526284.458    23526283.7854   23526303.3004
   -494586.279 9   -367443.90147  20224455.790    20224455.1914   20224467.2914
  -1695571.984 9  -1291126.34746  21536708.668    21536708.8474   21536722.1254
  -1706633.019 9  -1294850.28146  21757354.414    21757353.4684   21757369.1344
   1144542.652 9    893070.18645  24254810.385    24254809.8544   24254835.5744
 00  4 17 20  5  0.0000000  0  7 24  4  6  5 30 10  9               -0.000000033
    319656.365 9    258013.44547  20669054.529    20669054.2414   20669066.4324
   1213088.887 9    946153.82645  23255186.748    23255186.5784   23255199.0684
  -1637400.421 9   -790736.08845  23525841.760    23525841.0794   23525860.5994
   -494550.575 9   -367416.08347  20224462.604    20224462.0064   20224474.1144
  -1697899.790 9  -1292940.22846  21536265.707    21536265.8834   21536279.1554
  -1709030.880 9  -1296718.73846  21756898.107    21756897.1644   21756912.8294
   1147592.437 9    895446.62145  24255390.742    24255390.2124   24255415.9464
 00  4 17 20  5  1.0000000  0  7 24  4  6  5 30 10  9               -0.000000033
    321205.452 9    259220.52647  20669349.298    20669349.0084   20669361.1974
   1216287.421 9    948646.18245  23255795.393    23255795.2574   23255807.7374
  -1639726.827 9   -792548.87245  23525399.038    23525398.3844   23525417.8734
   -494514.334 9   -367387.84447  20224469.502    20224468.9014   20224481.0114
  -1700227.203 9  -1294753.80146  21535822.839    21535823.0104   21535836.2704
  -1711428.312 9  -1298586.85346  21756441.885    21756440.9414   21756456.6024
   1150642.160 9    897823.01045  24255971.110    24255970.5804   24255996.3344
 00  4 17 20  5  2.0000000  0  7 24  4  6  5 30 10  9               -0.000000033
    322754.922 9    260427.90547  20669644.165    20669643.8834   20669656.0554
   1219486.080 9    951138.64245  23256404.099    23256403.9674   23256416.4684
  -1642053.139 9   -794361.57745  23524956.337    23524955.7114   23524975.1784
   -494477.437 9   -367359.09047  20224476.517    20224475.9074   20224488.0214
  -1702554.126 9  -1296566.97846  21535380.036    21535380.2064   21535393.4674
  -1713825.232 9  -1300454.58046  21755985.749    21755984.7964   21756000.4764
   1153691.952 9    900199.45445  24256551.469    24256550.9484   24256576.7024
 00  4 17 20  5  3.0000000  0  7 24  4  6  5 30 10  9               -0.000000034
    324304.703 9    261635.52147  20669939.087    20669938.7894   20669950.9934
   1222684.729 9    953631.10645  23257012.768    23257012.6364   23257025.1454
  -1644379.444 9   -796174.28645  23524513.655    23524513.0484   23524532.4784
   -494439.974 9   -367329.90147  20224483.644    20224483.0424   20224495.1424
  -1704880.650 9  -1298379.85046  21534937.322    21534937.4934   21534950.7474
  -1716221.704 9  -1302321.95246  21755529.712    21755528.7614   21755544.4404
   1156741.702 9    902575.87045  24257131.830    24257131.3164   24257157.0594
 00  4 17 20  5  4.0000000  0  7 24  4  6  5 30 10  9               -0.000000034
    325854.794 9    262843.38447  20670234.052    20670233.7654   20670245.9554
   1225883.421 9    956123.58545  23257621.445    23257621.3134   23257633.8284
  -1646705.704 9   -797986.94945  23524070.980    23524070.3754   23524089.8064
   -494401.920 9   -367300.25147  20224490.867    20224490.2674   20224502.3744
  -1707206.746 9  -1300192.39146  21534494.684    21534494.8504   21534508.1114
  -1718617.706 9  -1304188.96746  21755073.741    21755072.7874   21755088.4654
   1159791.465 9    904952.29645  24257712.191    24257711.6854   24257737.4374
 00  4 17 20  5  5.0000000  0  7 24  4  6  5 30 10  9               -0.000000034
    327405.263 9    264051.54147  20670529.079    20670528.7914   20670540.9894
   1229082.223 9    958616.15245  23258230.159    23258230.0314   23258242.5504
  -1649031.881 9   -799799.55545  23523628.332    23523627.7414   23523647.1774
   -494363.208 9   -367270.08547  20224498.261    20224497.6624   20224509.7514
  -1709532.369 9  -1302004.55646  21534052.126    21534052.2864   21534065.5414
  -1721013.170 9  -1306055.55646  21754617.915    21754616.9724   21754632.6394
   1162841.277 9    907328.75245  24258292.561    24258292.0534   24258317.8174
 00  4 17 20  5  6.0000000  0  7 24  4  6  5 30 10  9               -0.000000033
    328956.047 9    265259.94847  20670824.186    20670823.8964   20670836.0994
   1232281.085 9    961108.77045  23258838.893    23258838.7714   23258851.2814
  -1651358.026 9   -801612.12045  23523185.666    23523185.0684   23523204.5454
   -494323.905 9   -367239.46147  20224505.712    20224505.1074   20224517.2164
  -1711857.569 9  -1303816.39846  21533609.651    21533609.8224   21533623.0734
  -1723408.178 9  -1307921.78246  21754162.158    21754161.2184   21754176.8944
   1165891.083 9    909705.19645  24258872.928    24258872.4304   24258898.2024
 00  4 17 20  5  7.0000000  0  7 24  4  6  5 30 10  9               -0.000000034
    330507.112 9    266468.57247  20671119.357    20671119.0624   20671131.2574
   1235479.948 9    963601.38745  23259447.622    23259447.4904   23259460.0294
  -1653684.157 9   -803424.66945  23522743.015    23522742.4244   23522761.8994
   -494284.020 9   -367208.38147  20224513.321    20224512.7114   20224524.8174
  -1714182.370 9  -1305627.92446  21533167.263    21533167.4184   21533180.6964
  -1725802.750 9  -1309787.67346  21753706.457    21753705.5134   21753721.1934
   1168940.825 9    912081.61345  24259453.268    24259452.7794   24259478.5444
 00  4 17 20  5  8.0000000  0  7 24  4  6  5 30 10  9               -0.000000033
    332058.512 9    267677.45647  20671414.579    20671414.2984   20671426.4784
   1238678.869 9    966094.03745  23260056.352    23260056.2094   23260068.7664
  -1656010.280 9   -805237.23545  23522300.361    23522299.7794   23522319.2324
   -494243.542 9   -367176.84047  20224521.020    20224520.4164   20224532.5344
  -1716506.745 9  -1307439.12346  21532724.950    21532725.1054   21532738.3704
  -1728196.866 9  -1311653.21946  21753250.862    21753249.9384   21753265.6054
   1171990.548 9    914457.99545  24260033.645    24260033.1754   24260058.9214
 00  4 17 20  5  9.0000000  0  7 24  4  6  5 30 10  9               -0.000000033
    333610.296 9    268886.63447  20671709.862    20671709.5634   20671721.7594
   1241877.881 9    968586.79045  23260665.089    23260664.9374   23260677.5074
  -1658336.324 9   -807049.71945  23521857.744    23521857.1764   23521876.6144
   -494202.416 9   -367144.79447  20224528.847    20224528.2504   20224540.3574
  -1718830.648 9  -1309249.95646  21532282.711    21532282.8614   21532296.1474
  -1730590.473 9  -1313518.36746  21752795.380    21752794.4544   21752810.1274
   1175040.306 9    916834.41245  24260614.001    24260613.5554   24260639.2784
 00  4 17 20  5 10.0000000  0  7 24  4  6  5 30 10  9               -0.000000033
    335162.370 9    270096.04347  20672005.208    20672004.9094   20672017.1064
   1245076.928 9    971079.56845  23261273.849    23261273.7144   23261286.2644
  -1660662.316 9   -808862.17245  23521415.129    23521414.5734   23521433.9894
   -494160.686 9   -367112.27547  20224536.785    20224536.1854   20224548.3064
  -1721154.155 9  -1311060.48246  21531840.574    21531840.7174   21531853.9944
  -1732983.610 9  -1315383.14646  21752339.985    21752339.0694   21752354.7484
   1178090.043 9    919210.81745  24261194.363    24261193.9244   24261219.6394
 00  4 17 20  5 11.0000000  0  7 24  4  6  5 30 10  9               -0.000000033
    336714.782 9    271305.71547  20672300.636    20672300.3344   20672312.5454
   1248276.046 9    973572.38545  23261882.621    23261882.4934   23261895.0134
  -1662988.294 9   -810674.61845  23520972.488    23520971.9304   23520991.3444
   -494118.356 9   -367079.29147  20224544.839    20224544.2304   20224556.3584
  -1723477.233 9  -1312870.67146  21531398.513    21531398.6534   21531411.9294
  -1735376.285 9  -1317247.56546  21751884.648    21751883.7354   21751899.4114
   1181139.790 9    921587.22045  24261774.708    24261774.2734   24261799.9804
 00  4 17 20  5 12.0000000  0  7 24  4  6  5 30 10  9               -0.000000033
    338267.502 9    272515.62547  20672596.095    20672595.8004   20672607.9884
   1251475.207 9    976065.23745  23262491.406    23262491.2914   23262503.7704
  -1665314.276 9   -812487.07145  23520529.874    23520529.3254   23520548.7004
   -494075.431 9   -367045.84647  20224552.986    20224552.3744   20224564.5114
  -1725799.903 9  -1314680.54046  21530956.529    21530956.6694   21530969.9414
  -1737768.499 9  -1319111.61946  21751429.410    21751428.5004   21751444.1714
   1184189.499 9    923963.61245  24262355.062    24262354.6214   24262380.3334
 00  4 17 20  5 13.0000000  0  7 24  4  6  5 30 10  9               -0.000000033
    339820.577 9    273725.81247  20672891.646    20672891.3454   20672903.5384
   1254674.488 9    978558.17145  23263100.219    23263100.1214   23263112.5874
  -1667640.123 9   -814299.41445  23520087.289    23520086.7444   23520106.0884
   -494031.851 9   -367011.89047  20224561.293    20224560.6984   20224572.8134
  -1728122.130 9  -1316490.06146  21530514.626    21530514.7554   21530528.0264
  -1740160.209 9  -1320975.29346  21750974.290    21750973.3754   21750989.0414
   1187239.252 9    926340.01645  24262935.421    24262934.9884   24262960.6864
 00  4 17 20  5 14.0000000  0  7 24  4  6  5 30 10  9               -0.000000033
    341373.958 9    274936.23947  20673187.243    20673186.9504   20673199.1394
   1257873.803 9    981051.14045  23263709.023    23263708.9304   23263721.4124
  -1669965.998 9   -816111.77045  23519644.689    23519644.1494   23519663.4634
   -493987.689 9   -366977.47847  20224569.707    20224569.1024   20224581.2364
  -1730443.954 9  -1318299.27146  21530072.777    21530072.9204   21530086.1794
  -1742551.469 9  -1322838.60846  21750519.233    21750518.3204   21750533.9794
   1190288.966 9    928716.39945  24263515.787    24263515.3754   24263541.0284
 00  4 17 20  5 15.0000000  0  7 24  4  6  5 30 10  9               -0.000000033
    342927.666 9    276146.92747  20673482.907    20673482.6164   20673494.8144
   1261073.193 9    983544.16445  23264317.853    23264317.7594   23264330.2484
  -1672291.846 9   -817924.11245  23519202.078    23519201.5274   23519220.8364
   -493942.925 9   -366942.59547  20224578.212    20224577.6264   20224589.7434
  -1732765.366 9  -1320108.16046  21529631.034    21529631.1674   21529644.4354
  -1744942.270 9  -1324701.55146  21750064.292    21750063.3864   21750079.0344
   1193338.668 9    931092.76445  24264096.124    24264095.7344   24264121.3584
 00  4 17 20  5 16.0000000  0  7 24  4  6  5 30 10  9               -0.000000033
    344481.694 9    277357.85547  20673778.627    20673778.3214   20673790.5354
   1264272.620 9    986037.22345  23264926.689    23264926.5964   23264939.0954
  -1674617.658 9   -819736.42245  23518759.484    23518758.9134   23518778.2474
   -493897.559 9   -366907.24547  20224586.852    20224586.2704   20224598.3774
  -1735086.366 9  -1321916.73346  21529189.362    21529189.5024   21529202.7564
  -1747332.627 9  -1326564.15846  21749609.407    21749608.4904   21749624.1494
   1196388.353 9    933469.11745  24264676.472    24264676.1024   24264701.6984
 00  4 17 20  5 17.0000000  0  7 24  4  6  5 30 10  9               -0.000000033
    346036.105 9    278569.07947  20674074.432    20674074.1364   20674086.3414
   1267472.158 9    988530.37145  23265535.522    23265535.4154   23265547.9284
  -1676943.418 9   -821548.69945  23518316.914    23518316.3304   23518335.6844
   -493851.549 9   -366871.39547  20224595.606    20224595.0244   20224607.1304
  -1737406.896 9  -1323724.94746  21528747.766    21528747.8984   21528761.1574
  -1749722.469 9  -1328426.37746  21749154.638    21749153.7254   21749169.3874
   1199438.082 9    935845.51445  24265256.821    24265256.4524   24265282.0444
 00  4 17 20  5 18.0000000  0  7 24  4  6  5 30 10  9               -0.000000033
    347590.798 9    279780.52647  20674370.286    20674369.9914   20674382.1934
   1270671.718 9    991023.53445  23266144.404    23266144.3044   23266156.7954
  -1679269.148 9   -823360.94345  23517874.348    23517873.7464   23517893.1354
   -493804.982 9   -366835.11347  20224604.448    20224603.8684   20224615.9604
  -1739727.068 9  -1325532.86146  21528306.260    21528306.3944   21528319.6464
  -1752111.910 9  -1330288.27646  21748699.923    21748699.0094   21748714.6844
   1202487.744 9    938221.85845  24265837.186    24265836.8204   24265862.4094
 00  4 17 20  5 19.0000000  0  7 24  4  6  5 30 10  9               -0.000000033
    349145.780 9    280992.20447  20674666.190    20674665.8964   20674678.0874
   1273871.326 9    993516.72845  23266753.265    23266753.1624   23266765.6514
  -1681594.862 9   -825173.17645  23517431.748    23517431.1334   23517450.5464
   -493757.840 9   -366798.37847  20224613.434    20224612.8524   20224624.9504
  -1742046.850 9  -1327340.47546  21527864.832    21527864.9794   21527878.2254
  -1754500.922 9  -1332149.83246  21748245.310    21748244.3944   21748260.0754
   1205537.364 9    940598.16545  24266417.519    24266417.1484   24266442.7444
 00  4 17 20  5 20.0000000  0  7 24  4  6  5 30 10  9               -0.000000033
    350701.159 9    282204.18847  20674962.165    20674961.8624   20674974.0544
   1277071.072 9    996010.02445  23267362.159    23267362.0524   23267374.5494
  -1683920.521 9   -826985.37145  23516989.195    23516988.5684   23517008.0054
   -493710.023 9   -366761.11847  20224622.540    20224621.9564   20224634.0544
  -1744366.144 9  -1329147.71446  21527423.481    21527423.6354   21527436.8784
  -1756889.406 9  -1334010.97946  21747790.771    21747789.8594   21747805.5254
   1208587.042 9    942974.52145  24266997.852    24266997.4764   24267023.0704
 00  4 17 20  5 21.0000000  0  7 24  4  6  5 30 10  9               -0.000000033
    352256.846 9    283416.41047  20675258.187    20675257.8974   20675270.0854
   1280270.853 9    998503.36445  23267971.039    23267970.9194   23267983.4514
  -1686246.102 9   -828797.50545  23516546.632    23516546.0144   23516565.4644
   -493661.633 9   -366723.41247  20224631.725    20224631.1494   20224643.2444
  -1746685.050 9  -1330954.65146  21526982.212    21526982.3514   21526995.6194
  -1759277.441 9  -1335871.77946  21747336.362    21747335.4444   21747351.1234
   1211636.705 9    945350.86045  24267578.211    24267577.8454   24267603.4264
 00  4 17 20  5 22.0000000  0  7 24  4  6  5 30 10  9               -0.000000033
    353812.854 9    284628.88447  20675554.287    20675553.9824   20675566.1864
   1283470.695 9   1000996.75245  23268579.959    23268579.8284   23268592.3904
  -1688571.692 9   -830609.64745  23516104.076    23516103.4614   23516122.9404
   -493612.623 9   -366685.22547  20224641.068    20224640.4934   20224652.5904
  -1749003.536 9  -1332761.25946  21526541.008    21526541.1464   21526554.4034
  -1761665.001 9  -1337732.21446  21746882.006    21746881.0784   21746896.7564
   1214686.331 9    947727.16445  24268158.548    24268158.1644   24268183.7544
 00  4 17 20  5 23.0000000  0  7 24  4  6  5 30 10  9               -0.000000033
    355369.271 9    285841.68047  20675850.490    20675850.1974   20675862.3824
   1286670.646 9   1003490.21845  23269188.898    23269188.7574   23269201.3234
  -1690897.177 9   -832421.69145  23515661.524    23515660.9084   23515680.4134
   -493562.968 9   -366646.53547  20224650.505    20224649.9264   20224662.0174
  -1751321.557 9  -1334567.51046  21526099.908    21526100.0414   21526113.2934
  -1764052.060 9  -1339592.25946  21746427.754    21746426.8224   21746442.5094
   1217736.015 9    950103.51745  24268738.899    24268738.4934   24268764.1054
 00  4 17 20  5 24.0000000  0  7 24  4  6  5 30 10  9               -0.000000033
    356925.944 9    287054.66247  20676146.715    20676146.4124   20676158.6124
   1289870.563 9   1005983.67145  23269797.806    23269797.6644   23269810.2204
  -1693222.687 9   -834233.77045  23515219.000    23515218.3754   23515237.8894
   -493512.792 9   -366607.43447  20224660.049    20224659.4604   20224671.5664
  -1753639.245 9  -1336373.48946  21525658.842    21525658.9774   21525672.2464
  -1766438.739 9  -1341452.00046  21745973.567    21745972.6374   21745988.3274
   1220785.580 9    952479.78645  24269319.219    24269318.7814   24269344.4254
 00  4 17 20  5 25.0000000  0  7 24  4  6  5 30 10  9               -0.000000033
    358482.964 9    288267.92747  20676443.005    20676442.7064   20676454.9084
   1293070.592 9   1008477.19945  23270406.763    23270406.6224   23270419.1534
  -1695548.122 9   -836045.80445  23514776.470    23514775.8214   23514795.3504
   -493461.988 9   -366567.84947  20224669.726    20224669.1434   20224681.2444
  -1755956.493 9  -1338179.13146  21525217.882    21525218.0224   21525231.2944
  -1768824.934 9  -1343311.36046  21745519.511    21745518.5814   21745534.2704
   1223835.168 9    954856.07045  24269899.542    24269899.0984   24269924.7504
 00  4 17 20  5 26.0000000  0  7 24  4  6  5 30 10  9               -0.000000033
    360040.325 9    289481.45847  20676739.342    20676739.0414   20676751.2314
   1296270.643 9   1010970.73445  23271015.718    23271015.5724   23271028.1054
  -1697873.529 9   -837857.80945  23514333.943    23514333.3064   23514352.8074
   -493410.588 9   -366527.79747  20224679.514    20224678.9364   20224691.0214
  -1758273.333 9  -1339984.46946  21524777.007    21524777.1374   21524790.4064
  -1771210.668 9  -1345170.36646  21745065.495    21745064.5654   21745080.2584
   1226884.709 9    957232.31445  24270479.869    24270479.3984   24270505.0694
 00  4 17 20  5 27.0000000  0  7 24  4  6  5 30 10  9               -0.000000033
    361598.028 9    290695.24947  20677035.775    20677035.4764   20677047.6634
   1299470.780 9   1013464.34645  23271624.694    23271624.5594   23271637.1064
  -1700198.880 9   -839669.76545  23513891.431    23513890.7834   23513910.3054
   -493358.590 9   -366487.28047  20224689.402    20224688.8194   20224700.9114
  -1760589.763 9  -1341789.47746  21524336.200    21524336.3324   21524349.5974
  -1773595.944 9  -1347029.02046  21744611.586    21744610.6694   21744626.3374
   1229934.263 9    959608.57845  24271060.179    24271059.6864   24271085.3844
 00  4 17 20  5 28.0000000  0  7 24  4  6  5 30 10  9               -0.000000033
    363156.101 9    291909.33347  20677332.266    20677331.9714   20677344.1514
   1302671.022 9   1015958.05245  23272233.664    23272233.5184   23272246.0844
  -1702524.149 9   -841481.66255  23513448.928    23513448.2984   23513467.8065
   -493305.951 9   -366446.26147  20224699.440    20224698.8624   20224710.9554
  -1762905.751 9  -1343594.13846  21523895.476    21523895.6174   21523908.8714
  -1775980.724 9  -1348887.28446  21744157.794    21744156.8644   21744172.5474
   1232983.812 9    961984.83845  24271640.494    24271639.9744   24271665.6884
 00  4 17 20  5 29.0000000  0  7 24  4  6  5 30 10  9               -0.000000032
    364714.491 9    293123.66147  20677628.842    20677628.5464   20677640.7174
   1305871.307 9   1018451.77645  23272842.680    23272842.5264   23272855.0934
  -1704849.414 9   -843293.54255  23513006.429    23513005.8244   23513025.3105
   -493252.735 9   -366404.79147  20224709.556    20224708.9754   20224721.0714
  -1765221.360 9  -1345398.51546  21523454.840    21523454.9834   21523468.2394
  -1778365.071 9  -1350745.21946  21743704.059    21743703.1474   21743718.8094
   1236033.312 9    964361.05445  24272220.819    24272220.2724   24272245.9754
 00  4 17 20  5 30.0000000  0  7 24  4  6  5 30 10  9               -0.000000032
    366273.223 9    294338.26047  20677925.440    20677925.1404   20677937.3134
   1309071.617 9   1020945.52445  23273451.678    23273451.5254   23273464.0894
  -1707174.627 9   -845105.38845  23512563.971    23512563.3894   23512582.8244
   -493198.911 9   -366362.85047  20224719.816    20224719.2284   20224731.3284
  -1767536.542 9  -1347202.54846  21523014.253    21523014.3874   21523027.6544
  -1780748.954 9  -1352602.77946  21743250.399    21743249.4924   21743265.1594
   1239082.799 9    966737.25445  24272801.122    24272800.5884   24272826.2434
 00  4 17 20  5 31.0000000  0  7 24  4  6  5 30 10  9               -0.000000032
    367832.329 9    295553.14847  20678222.139    20678221.8354   20678234.0114
   1312272.090 9   1023439.39245  23274060.702    23274060.5534   23274073.1044
  -1709499.723 9   -846917.14545  23512121.502    23512120.9454   23512140.3324
   -493144.404 9   -366320.38147  20224730.167    20224729.5914   20224741.6764
  -1769851.256 9  -1349006.21546  21522573.779    21522573.9124   21522587.1734
  -1783132.309 9  -1354459.92546  21742796.857    21742795.9464   21742811.6104
   1242132.368 9    969113.52045  24273381.446    24273380.9254   24273406.5314
 00  4 17 20  5 32.0000000  0  7 24  4  6  5 30 10  9               -0.000000032
    369391.692 9    296768.23747  20678518.864    20678518.5504   20678530.7304
   1315472.538 9   1025933.24445  23274669.733    23274669.5724   23274682.1414
  -1711824.825 9   -848728.92245  23511679.067    23511678.5424   23511697.8794
   -493089.376 9   -366277.49847  20224740.657    20224740.0644   20224752.1704
  -1772165.654 9  -1350809.64146  21522133.372    21522133.5074   21522146.7524
  -1785515.272 9  -1356316.77146  21742343.413    21742342.4904   21742358.1704
   1245181.790 9    971489.66745  24273961.752    24273961.2644   24273986.8244
 00  4 17 20  5 33.0000000  0  7 24  4  6  5 30 10  9               -0.000000032
    370951.426 9    297983.61047  20678815.670    20678815.3644   20678827.5454
   1318673.086 9   1028427.17645  23275278.776    23275278.6114   23275291.2274
  -1714149.867 9   -850540.65245  23511236.630    23511236.1284   23511255.4474
   -493033.713 9   -366234.13047  20224751.258    20224750.6664   20224762.7684
  -1774479.597 9  -1352612.71246  21521693.034    21521693.1924   21521706.4204
  -1787897.746 9  -1358173.24946  21741890.018    21741889.0934   21741904.7624
   1248231.229 9    973865.83845  24274542.035    24274541.5714   24274567.1014
 00  4 17 20  5 34.0000000  0  7 24  4  6  5 30 10  9               -0.000000032
    372511.419 9    299199.19147  20679112.548    20679112.2384   20679124.4334
   1321873.641 9   1030921.11345  23275887.816    23275887.6284   23275900.2654
  -1716474.921 9   -852352.37745  23510794.162    23510793.6954   23510812.9814
   -492977.492 9   -366190.32447  20224761.958    20224761.3594   20224773.4604
  -1776793.192 9  -1354415.50946  21521252.768    21521252.9174   21521266.1734
  -1790279.799 9  -1360029.39446  21741436.724    21741435.8164   21741451.4704
   1251280.596 9    976241.95245  24275122.338    24275121.9104   24275147.4094
 00  4 17 20  5 35.0000000  0  7 24  4  6  5 30 10  9               -0.000000032
    374071.807 9    300415.07747  20679409.476    20679409.1634   20679421.3644
   1325074.331 9   1033415.14645  23276496.879    23276496.7064   23276509.3184
  -1718799.863 9   -854164.00045  23510351.738    23510351.2914   23510370.5534
   -492920.606 9   -366145.99247  20224772.765    20224772.1714   20224784.2664
  -1779106.313 9  -1356217.94346  21520812.598    21520812.7524   21520825.9924
  -1792661.333 9  -1361885.12946  21740983.540    21740982.6414   21740998.2854
   1254330.017 9    978618.11045  24275702.634    24275702.2294   24275727.7154
 00  4 17 20  5 36.0000000  0  7 24  4  6  5 30 10  9               -0.000000032
    375632.475 9    301631.18347  20679706.470    20679706.1674   20679718.3574
   1328275.015 9   1035909.17645  23277105.975    23277105.7954   23277118.3874
  -1721124.859 9   -855975.67445  23509909.329    23509908.8884   23509928.1624
   -492863.187 9   -366101.24847  20224783.720    20224783.1244   20224795.2264
  -1781419.085 9  -1358020.09646  21520372.475    21520372.6364   21520385.8664
  -1795042.462 9  -1363740.54246  21740530.417    21740529.5154   21740545.1534
   1257379.367 9    980994.21345  24276282.924    24276282.5374   24276308.0154
 00  4 17 20  5 37.0000000  0  7 24  4  6  5 30 10  9               -0.000000032
    377193.520 9    302847.58247  20680003.525    20680003.2214   20680015.4064
   1331475.818 9   1038403.29245  23277715.064    23277714.8934   23277727.4594
  -1723449.670 9   -857787.21145  23509466.921    23509466.4764   23509485.7434
   -492805.101 9   -366055.99047  20224794.747    20224794.1564   20224806.2524
  -1783731.408 9  -1359821.90646  21519932.453    21519932.6114   21519945.8374
  -1797423.068 9  -1365595.55746  21740077.409    21740076.5184   21740092.1554
   1260428.749 9    983370.34045  24276863.210    24276862.8364   24276888.3214
 00  4 17 20  5 38.0000000  0  7 24  4  6  5 30 10  9               -0.000000031
    378754.877 9    304064.22647  20680300.632    20680300.3164   20680312.5154
   1334676.667 9   1040897.46245  23278324.146    23278323.9624   23278336.5304
  -1725774.518 9   -859598.76545  23509024.521    23509024.0714   23509043.3454
   -492746.443 9   -366010.28247  20224805.921    20224805.3294   20224817.4224
  -1786043.339 9  -1361623.40546  21519492.510    21519492.6854   21519505.9014
  -1799803.231 9  -1367450.22746  21739624.468    21739623.5624   21739639.2294
   1263478.068 9    985746.42245  24277443.504    24277443.1354   24277468.6304
 00  4 17 20  5 39.0000000  0  7 24  4  6  5 30 10  9               -0.000000031
    380316.577 9    305281.12447  20680597.817    20680597.5004   20680609.6974
   1337877.560 9   1043391.68345  23278933.263    23278933.0634   23278945.6594
  -1728099.257 9   -861410.23545  23508582.122    23508581.6684   23508600.9424
   -492687.170 9   -365964.09647  20224817.212    20224816.6104   20224828.6994
  -1788354.853 9  -1363424.58346  21519052.627    21519052.8104   21519066.0374
  -1802182.927 9  -1369304.53046  21739171.625    21739170.7254   21739186.3804
   1266527.388 9    988122.50345  24278023.764    24278023.3834   24278048.9024
 00  4 17 20  5 40.0000000  0  7 24  4  6  5 30 10  9               -0.000000031
    381878.606 9    306498.29647  20680895.063    20680894.7454   20680906.9334
   1341078.524 9   1045885.93945  23279542.404    23279542.1604   23279554.7714
  -1730423.952 9   -863221.68145  23508139.749    23508139.2854   23508158.5704
   -492627.287 9   -365917.43547  20224828.596    20224828.0034   20224840.0794
  -1790665.945 9  -1365225.43746  21518612.855    21518613.0344   21518626.2484
  -1804562.156 9  -1371158.46246  21738718.875    21738717.9894   21738733.6284
   1269576.705 9    990498.58345  24278604.041    24278603.6724   24278629.2014
 00  4 17 20  5 41.0000000  0  7 24  4  6  5 30 10  9               -0.000000031
    383440.987 9    307715.73747  20681192.395    20681192.0794   20681204.2704
   1344279.544 9   1048380.25245  23280151.541    23280151.3054   23280163.8954
  -1732748.575 9   -865033.06645  23507697.381    23507696.9024   23507716.2014
   -492566.808 9   -365870.30547  20224840.114    20224839.5054   20224851.6004
  -1792976.628 9  -1367025.96746  21518173.150    21518173.3284   21518186.5414
  -1806940.936 9  -1373012.05346  21738266.189    21738265.2934   21738280.9554
   1272626.009 9    992874.65645  24279184.321    24279183.9404   24279209.4784
 00  4 17 20  5 42.0000000  0  7 24  4  6  5 30 10  9               -0.000000031
    385003.720 9    308933.44747  20681489.774    20681489.4434   20681501.6574
   1347480.622 9   1050874.59245  23280760.677    23280760.4544   23280773.0254
  -1735073.130 9   -866844.39945  23507255.033    23507254.5384   23507273.8534
   -492505.714 9   -365822.69947  20224851.748    20224851.1474   20224863.2304
  -1795286.888 9  -1368826.16346  21517733.522    21517733.7134   21517746.9124
  -1809319.248 9  -1374865.28046  21737813.601    21737812.6964   21737828.3564
   1275675.304 9    995250.71845  24279764.597    24279764.2084   24279789.7564
 00  4 17 20  5 43.0000000  0  7 24  4  6  5 30 10  9               -0.000000031
    386566.811 9    310151.44347  20681787.212    20681786.8974   20681799.0864
   1350681.742 9   1053368.96445  23281369.841    23281369.6234   23281382.1844
  -1737397.624 9   -868655.68145  23506812.699    23506812.1944   23506831.5064
   -492444.004 9   -365774.61947  20224863.499    20224862.8994   20224874.9754
  -1797596.722 9  -1370626.03446  21517293.954    21517294.1374   21517307.3294
  -1811697.104 9  -1376718.15846  21737361.121    21737360.2104   21737375.8904
   1278724.586 9    997626.75545  24280344.880    24280344.4964   24280370.0464
 00  4 17 20  5 44.0000000  0  7 24  4  6  5 30 10  9               -0.000000031
    388130.297 9    311369.74247  20682084.746    20682084.4214   20682096.6264
   1353883.006 9   1055863.45845  23281979.002    23281978.7724   23281991.3484
  -1739722.042 9   -870466.91345  23506370.349    23506369.8204   23506389.1414
   -492381.624 9   -365726.01347  20224875.363    20224874.7514   20224886.8354
  -1799906.069 9  -1372425.52346  21516854.519    21516854.7114   21516867.8884
  -1814074.437 9  -1378570.62446  21736908.737    21736907.8224   21736923.5094
   1281773.888 9   1000002.81445  24280925.166    24280924.7844   24280950.3544
 00  4 17 20  5 45.0000000  0  7 24  4  6  5 30 10  9               -0.000000030
    389694.052 9    312588.25447  20682382.295    20682381.9654   20682394.1684
   1357084.215 9   1058357.90945  23282588.189    23282587.9704   23282600.5584
  -1742046.469 9   -872278.15445  23505928.037    23505927.4964   23505946.7984
   -492318.749 9   -365677.02047  20224887.334    20224886.7224   20224898.8014
  -1802215.116 9  -1374224.78346  21516415.110    21516415.3064   21516428.4734
  -1816451.440 9  -1380422.81946  21736456.395    21736455.4944   21736471.1764
   1284823.087 9   1002378.79845  24281505.410    24281505.0334   24281530.6464
 00  4 17 20  5 46.0000000  0  7 24  4  6  5 30 10  9               -0.000000030
    391258.210 9    313807.07747  20682679.968    20682679.6394   20682691.8334
   1360285.590 9   1060852.48545  23283197.395    23283197.1784   23283209.7954
  -1744370.770 9   -874089.28645  23505485.732    23505485.2014   23505504.4714
   -492255.183 9   -365627.48747  20224899.426    20224898.8144   20224910.8874
  -1804523.684 9  -1376023.65947  21515975.802    21515976.0004   21515989.1644
  -1818827.928 9  -1382274.63146  21736004.147    21736003.2584   21736018.9184
   1287872.337 9   1004754.82445  24282085.688    24282085.3124   24282110.9554
 00  4 17 20  5 47.0000000  0  7 24  4  6  5 30 10  9               -0.000000030
    392822.577 9    315026.06447  20682977.660    20682977.3334   20682989.5334
   1363486.875 9   1063346.97745  23283806.567    23283806.3654   23283818.9794
  -1746695.137 9   -875900.48845  23505043.404    23505042.8774   23505062.1144
   -492191.142 9   -365577.58647  20224911.626    20224911.0254   20224923.0884
  -1806831.962 9  -1377822.31147  21515536.542    21515536.7444   21515549.8964
  -1821204.097 9  -1384126.18246  21735552.000    21735551.1114   21735566.7724
   1290921.411 9   1007130.70345  24282665.918    24282665.5404   24282691.2024
 00  4 17 20  5 48.0000000  0  7 24  4  6  5 30 10  9               -0.000000030
    394387.416 9    316245.42047  20683275.440    20683275.1174   20683287.3164
   1366688.335 9   1065841.61245  23284415.797    23284415.6244   23284428.2164
  -1749019.390 9   -877711.58645  23504601.103    23504600.5924   23504619.8064
   -492126.394 9   -365527.13247  20224923.934    20224923.3174   20224935.3894
  -1809139.719 9  -1379620.57347  21515097.393    21515097.5894   21515110.7474
  -1823579.709 9  -1385977.30046  21735099.928    21735099.0344   21735114.6984
   1293970.556 9   1009506.63845  24283246.144    24283245.7684   24283271.4514
 00  4 17 20  5 49.0000000  0  7 24  4  6  5 30 10  9               -0.000000030
    395952.586 9    317465.03247  20683573.270    20683572.9504   20683585.1444
   1369889.854 9   1068336.30045  23285025.017    23285024.8524   23285037.4664
  -1751343.572 9   -879522.63045  23504158.835    23504158.3404   23504177.5344
   -492061.037 9   -365476.20447  20224936.368    20224935.7484   20224947.8404
  -1811447.086 9  -1381418.50547  21514658.307    21514658.4924   21514671.6584
  -1825954.894 9  -1387828.08246  21734647.933    21734647.0374   21734662.6944
   1297019.674 9   1011882.55645  24283826.392    24283826.0264   24283851.7014
 00  4 17 20  5 50.0000000  0  7 24  4  6  5 30 10  9               -0.000000030
    397518.106 9    318684.91847  20683871.169    20683870.8544   20683883.0454
   1373091.457 9   1070831.06145  23285634.255    23285634.1004   23285646.7184
  -1753667.718 9   -881333.64945  23503716.565    23503716.0764   23503735.2574
   -491995.072 9   -365424.80247  20224948.915    20224948.3004   20224960.3884
  -1813754.036 9  -1383216.12747  21514219.305    21514219.5054   21514232.6624
  -1828329.617 9  -1389678.51346  21734196.036    21734195.1594   21734210.8044
   1300068.776 9   1014258.46345  24284406.607    24284406.2444   24284431.8984
 00  4 17 20  5 51.0000000  0  7 24  4  6  5 30 10  9               -0.000000030
    399083.924 9    319905.03647  20684169.134    20684168.8184   20684181.0124
   1376293.063 9   1073325.81145  23286243.503    23286243.3694   23286255.9634
  -1755991.881 9   -883144.66645  23503274.265    23503273.7914   23503292.9694
   -491928.556 9   -365372.97247  20224961.596    20224960.9814   20224973.0664
  -1816060.636 9  -1385013.47947  21513780.395    21513780.5994   21513793.7414
  -1830703.946 9  -1391528.64146  21733744.214    21733743.3424   21733758.9804
   1303117.778 9   1016634.28445  24284986.832    24284986.4734   24285012.1194
 00  4 17 20  5 52.0000000  0  7 24  4  6  5 30 10  9               -0.000000030
    400650.167 9    321125.48647  20684467.185    20684466.8624   20684479.0504
   1379494.820 9   1075820.67845  23286852.781    23286852.6564   23286865.2494
  -1758315.904 9   -884955.58645  23502832.011    23502831.5484   23502850.7064
   -491861.351 9   -365320.60547  20224974.380    20224973.7624   20224985.8404
  -1818366.762 9  -1386810.46547  21513341.545    21513341.7444   21513354.9054
  -1833077.761 9  -1393378.36246  21733292.482    21733291.6154   21733307.2444
   1306166.798 9   1019010.12245  24285567.072    24285566.7114   24285592.3664
 00  4 17 20  5 53.0000000  0  7 24  4  6  5 30 10  9               -0.000000029
    402216.828 9    322346.25947  20684765.305    20684764.9754   20684777.1754
   1382696.722 9   1078315.65645  23287462.075    23287461.9654   23287474.5564
  -1760639.844 9   -886766.44445  23502389.791    23502389.3444   23502408.4944
   -491793.482 9   -365267.72447  20224987.280    20224986.6734   20224998.7364
  -1820672.409 9  -1388607.06747  21512902.797    21512902.9974   21512916.1654
  -1835451.052 9  -1395227.67446  21732840.884    21732840.0284   21732855.6514
   1309215.869 9   1021386.00545  24286147.280    24286146.9204   24286172.5764
 00  4 17 20  5 54.0000000  0  7 24  4  6  5 30 10  9               -0.000000029
    403783.708 9    323567.20347  20685063.485    20685063.1594   20685075.3454
   1385898.518 9   1080810.57345  23288071.358    23288071.2344   23288083.8464
  -1762963.850 9   -888577.34145  23501947.526    23501947.0914   23501966.2434
   -491725.143 9   -365214.47447  20225000.299    20224999.6744   20225011.7574
  -1822977.783 9  -1390403.45547  21512464.096    21512464.3014   21512477.4654
  -1837824.019 9  -1397076.73246  21732389.307    21732388.4414   21732404.0744
   1312264.756 9   1023761.74545  24286727.494    24286727.1284   24286752.7784
 00  4 17 20  5 55.0000000  0  7 24  4  6  5 30 10  9               -0.000000029
    405350.991 9    324788.46047  20685361.730    20685361.4024   20685373.5904
   1389100.483 9   1083305.61445  23288680.678    23288680.5444   23288693.1634
  -1765287.748 9   -890388.15845  23501505.316    23501504.8684   23501524.0314
   -491656.115 9   -365160.68347  20225013.430    20225012.8154   20225024.8874
  -1825282.700 9  -1392199.49147  21512025.470    21512025.6744   21512038.8324
  -1840196.467 9  -1398925.39846  21731937.856    21731937.0034   21731952.6124
   1315313.684 9   1026137.51145  24287307.683    24287307.3164   24287332.9564
 00  4 17 20  5 56.0000000  0  7 24  4  6  5 30 10  9               -0.000000029
    406918.614 9    326009.98547  20685660.051    20685659.7264   20685671.9254
   1392302.502 9   1085800.71045  23289290.010    23289289.8514   23289302.5014
  -1767611.639 9   -892198.98445  23501063.081    23501062.6424   23501081.8064
   -491586.503 9   -365106.44147  20225026.672    20225026.0564   20225038.1324
  -1827587.227 9  -1393995.22546  21511586.948    21511587.1584   21511600.3194
  -1842568.482 9  -1400773.70746  21731486.482    21731485.6264   21731501.2404
   1318362.555 9   1028513.23845  24287887.877    24287887.5054   24287913.1424
 00  4 17 20  5 57.0000000  0  7 24  4  6  5 30 10  9               -0.000000029
    408486.595 9    327231.79147  20685958.421    20685958.0894   20685970.2834
   1395504.616 9   1088295.84845  23289899.327    23289899.1494   23289911.8174
  -1769935.465 9   -894009.75045  23500620.888    23500620.4694   23500639.6194
   -491516.286 9   -365051.72147  20225040.031    20225039.4074   20225051.4954
  -1829891.360 9  -1395790.66047  21511148.459    21511148.6524   21511161.8294
  -1844940.031 9  -1402621.65946  21731035.170    21731034.3084   21731049.9204
   1321411.413 9   1030888.95845  24288468.079    24288467.7034   24288493.3544
 00  4 17 20  5 58.0000000  0  7 24  4  6  5 30 10  9               -0.000000029
    410054.896 9    328453.84147  20686256.837    20686256.5134   20686268.6964
   1398706.786 9   1090791.04945  23290508.699    23290508.5364   23290521.1944
  -1772259.269 9   -895820.49845  23500178.663    23500178.2454   23500197.4234
   -491445.475 9   -364996.54747  20225053.506    20225052.8874   20225064.9794
  -1832195.121 9  -1397585.79247  21510710.082    21510710.2764   21510723.4524
  -1847311.133 9  -1404469.28246  21730583.955    21730583.0914   21730598.7204
   1324460.154 9   1033264.58945  24289048.254    24289047.8814   24289073.5274
 00  4 17 20  5 59.0000000  0  7 24  4  6  5 30 10  9               -0.000000029
    411623.585 9    329676.19847  20686555.363    20686555.0364   20686567.2244
   1401909.036 9   1093286.30245  23291118.070    23291117.9124   23291130.5504
  -1774583.005 9   -897631.20045  23499736.483    23499736.0804   23499755.2624
   -491374.045 9   -364940.88947  20225067.090    20225066.4784   20225078.5604
  -1834498.456 9  -1399380.59647  21510271.768    21510271.9684   21510285.1304
  -1849681.765 9  -1406316.52546  21730132.842    21730131.9834   21730147.5904
   1327508.898 9   1035640.21945  24289628.417    24289628.0494   24289653.6844
 00  4 17 20  6  0.0000000  0  7 24  4  6  5 30 10  9               -0.000000028
    413192.667 9    330898.85747  20686853.935    20686853.6194   20686865.8014
   1405111.415 9   1095781.65645  23291727.460    23291727.3404   23291739.9464
  -1776906.694 9   -899441.86345  23499294.271    23499293.8684   23499313.0384
   -491301.970 9   -364884.73047  20225080.822    20225080.2084   20225092.3004
  -1836801.340 9  -1401175.04846  21509833.542    21509833.7414   21509846.9024
  -1852051.886 9  -1408163.36646  21729681.823    21729680.9754   21729696.5674
   1330557.657 9   1038015.85245  24290208.597    24290208.2474   24290233.8654
 00  4 17 20  6  1.0000000  0  7 24  4  6  5 30 10  9               -0.000000028
    414762.076 9    332121.77147  20687152.585    20687152.2724   20687164.4554
   1408313.840 9   1098277.06445  23292336.863    23292336.7894   23292349.3544
  -1779230.373 9   -901252.51845  23498852.094    23498851.6954   23498870.8454
   -491229.331 9   -364828.12947  20225094.654    20225094.0294   20225106.1264
  -1839103.894 9  -1402969.23847  21509395.370    21509395.5764   21509408.7364
  -1854421.606 9  -1410009.89746  21729230.899    21729230.0374   21729245.6264
   1333606.291 9   1040391.39545  24290788.736    24290788.3874   24290813.9984
 00  4 17 20  6  2.0000000  0  7 24  4  6  5 30 10  9               -0.000000028
    416331.829 9    333344.95847  20687451.304    20687450.9954   20687463.1754
   1411516.292 9   1100772.47845  23292946.249    23292946.1794   23292958.7294
  -1781554.043 9   -903063.16445  23498409.921    23498409.5104   23498428.6584
   -491156.095 9   -364771.06347  20225108.566    20225107.9394   20225120.0284
  -1841406.053 9  -1404763.12147  21508957.287    21508957.4894   21508970.6494
  -1856790.860 9  -1411856.05946  21728780.025    21728779.1694   21728794.7684
   1336654.853 9   1042766.88045  24291368.898    24291368.5354   24291394.1574
 00  4 17 20  6  3.0000000  0  7 24  4  6  5 30 10  9               -0.000000028
    417902.028 9    334568.48747  20687750.117    20687749.7994   20687761.9894
   1414718.923 9   1103268.02545  23293555.693    23293555.6184   23293568.1554
  -1783877.583 9   -904873.70245  23497967.745    23497967.3454   23497986.4764
   -491082.163 9   -364713.45547  20225122.634    20225122.0194   20225134.1004
  -1843707.719 9  -1406556.62747  21508519.292    21508519.5024   21508532.6634
  -1859159.579 9  -1413701.80546  21728329.296    21728328.4324   21728344.0464
   1339703.465 9   1045142.40945  24291949.035    24291948.6734   24291974.2774
 00  4 17 20  6  4.0000000  0  7 24  4  6  5 30 10  9               -0.000000028
    419472.467 9    335792.21047  20688048.960    20688048.6424   20688060.8264
   1417921.494 9   1105763.53245  23294165.115    23294165.0454   23294177.5734
  -1786201.221 9   -906684.32645  23497525.570    23497525.1634   23497544.2884
   -491007.741 9   -364655.46047  20225136.821    20225136.2094   20225148.2804
  -1846009.119 9  -1408349.92746  21508081.344    21508081.5454   21508094.7064
  -1861527.947 9  -1415547.28046  21727878.590    21727877.7334   21727893.3324
   1342751.921 9   1047517.81545  24292529.158    24292528.7914   24292554.3824
 00  4 17 20  6  5.0000000  0  7 24  4  6  5 30 10  9               -0.000000028
    421043.363 9    337016.28447  20688347.885    20688347.5654   20688359.7634
   1421124.264 9   1108259.19045  23294774.593    23294774.5324   23294787.0594
  -1788524.732 9   -908494.85345  23497083.427    23497083.0184   23497102.1394
   -490932.601 9   -364596.91047  20225151.112    20225150.4904   20225162.5894
  -1848310.005 9  -1410142.82747  21507643.513    21507643.7084   21507656.8754
  -1863895.764 9  -1417392.33746  21727428.022    21727427.1654   21727442.7614
   1345800.384 9   1049893.22845  24293109.288    24293108.9204   24293134.5014
 00  4 17 20  6  6.0000000  0  7 24  4  6  5 30 10  9               -0.000000028
    422614.602 9    338240.62747  20688646.887    20688646.5584   20688658.7494
   1424327.079 9   1110754.88945  23295384.059    23295384.0114   23295396.5434
  -1790848.216 9   -910305.36045  23496641.296    23496640.8754   23496659.9834
   -490856.855 9   -364537.88947  20225165.515    20225164.9104   20225176.9844
  -1850610.492 9  -1411935.41047  21507205.732    21507205.9224   21507219.0884
  -1866263.114 9  -1419237.01646  21726977.512    21726976.6574   21726992.2524
   1348848.800 9   1052268.59745  24293689.394    24293689.0184   24293714.5894
 00  4 17 20  6  7.0000000  0  7 24  4  6  5 30 10  9               -0.000000028
    424186.165 9    339465.21647  20688945.937    20688945.6214   20688957.7964
   1427529.944 9   1113250.62645  23295993.561    23295993.5194   23296006.0584
  -1793171.749 9   -912115.89645  23496199.118    23496198.6914   23496217.7824
   -490780.548 9   -364478.43447  20225180.043    20225179.4404   20225191.5154
  -1852910.633 9  -1413727.72247  21506768.022    21506768.2044   21506781.3754
  -1868630.043 9  -1421081.37846  21726527.102    21726526.2394   21726541.8304
   1351897.102 9   1054643.87745  24294269.473    24294269.0964   24294294.6414
 00  4 17 20  6  8.0000000  0  7 24  4  6  5 30 10  9               -0.000000028
    425758.115 9    340690.11347  20689245.074    20689244.7444   20689256.9324
   1430732.904 9   1115746.44845  23296603.044    23296602.9974   23296615.5404
  -1795495.219 9   -913926.37745  23495756.989    23495756.5574   23495775.6354
   -490703.604 9   -364418.47947  20225194.697    20225194.0894   20225206.1744
  -1855210.333 9  -1415519.69647  21506330.404    21506330.5784   21506343.7524
  -1870996.467 9  -1422925.33246  21726076.787    21726075.9314   21726091.5134
   1354945.380 9   1057019.13745  24294849.582    24294849.2044   24294874.7324
 00  4 17 20  6  9.0000000  0  7 24  4  6  5 30 10  9               -0.000000028
    427330.516 9    341915.35747  20689544.298    20689543.9774   20689556.1594
   1433936.048 9   1118242.40045  23297212.579    23297212.5344   23297225.0764
  -1797818.573 9   -915736.76545  23495314.854    23495314.4134   23495333.4674
   -490625.953 9   -364357.97247  20225209.445    20225208.8394   20225220.9114
  -1857509.535 9  -1417311.27646  21505892.895    21505893.0704   21505906.2264
  -1873362.329 9  -1424768.85546  21725626.579    21725625.7134   21725641.3094
   1357993.713 9   1059394.44745  24295429.661    24295429.2834   24295454.7894
 00  4 17 20  6 10.0000000  0  7 24  4  6  5 30 10  9               -0.000000027
    428903.231 9    343140.84847  20689843.580    20689843.2504   20689855.4494
   1437139.246 9   1120738.39245  23297822.142    23297822.1134   23297834.6434
  -1800141.947 9   -917547.17545  23494872.720    23494872.2984   23494891.3354
   -490547.729 9   -364297.01747  20225224.342    20225223.7394   20225235.8244
  -1859808.403 9  -1419102.59546  21505455.436    21505455.6134   21505468.7874
  -1875727.765 9  -1426612.04346  21725176.462    21725175.5944   21725191.1874
   1361041.947 9   1061769.67145  24296009.749    24296009.3724   24296034.8634
 00  4 17 20  6 11.0000000  0  7 24  4  6  5 30 10  9               -0.000000027
    430476.226 9    344366.56047  20690142.901    20690142.5824   20690154.7634
   1440342.445 9   1123234.37745  23298431.677    23298431.6514   23298444.1604
  -1802465.374 9   -919357.63645  23494430.601    23494430.1834   23494449.2144
   -490468.968 9   -364235.64447  20225239.326    20225238.7194   20225250.8004
  -1862106.933 9  -1420893.65846  21505018.025    21505018.2064   21505031.3794
  -1878092.809 9  -1428454.93546  21724726.384    21724725.5254   21724741.1104
   1364090.073 9   1064144.81445  24296589.793    24296589.4104   24296614.8914
 00  4 17 20  6 12.0000000  0  7 24  4  6  5 30 10  9               -0.000000027
    432049.665 9    345592.62147  20690442.306    20690441.9854   20690454.1754
   1443545.810 9   1125730.50245  23299041.274    23299041.2584   23299053.7424
  -1804788.692 9   -921168.00545  23493988.491    23493988.0904   23494007.1214
   -490389.521 9   -364173.73747  20225254.440    20225253.8384   20225265.9154
  -1864404.989 9  -1422684.35147  21504580.735    21504580.9094   21504594.0864
  -1880457.294 9  -1430297.38146  21724276.440    21724275.5864   21724291.1734
   1367138.222 9   1066519.98145  24297169.867    24297169.4794   24297194.9784
 00  4 17 20  6 13.0000000  0  7 24  4  6  5 30 10  9               -0.000000027
    433623.492 9    346818.97547  20690741.809    20690741.4984   20690753.6734
   1446749.275 9   1128226.70645  23299650.875    23299650.8484   23299663.3564
  -1807111.989 9   -922978.35545  23493546.366    23493545.9764   23493565.0134
   -490309.463 9   -364111.35747  20225269.693    20225269.0974   20225281.1614
  -1866702.670 9  -1424474.74547  21504143.476    21504143.6514   21504156.8284
  -1882821.320 9  -1432139.47746  21723826.578    21723825.7384   21723841.3254
   1370186.321 9   1068895.11445  24297749.909    24297749.5264   24297775.0394
 00  4 17 20  6 14.0000000  0  7 24  4  6  5 30 10  9               -0.000000027
    435197.662 9    348045.59947  20691041.362    20691041.0504   20691053.2344
   1449952.827 9   1130722.99245  23300260.471    23300260.4364   23300272.9444
  -1809435.266 9   -924788.70445  23493104.282    23493103.9124   23493122.9394
   -490228.807 9   -364048.50847  20225285.023    20225284.4274   20225296.5044
  -1868999.950 9  -1426264.83347  21503706.331    21503706.5044   21503719.6834
  -1885184.874 9  -1433981.20746  21723376.816    21723375.9704   21723391.5724
   1373234.352 9   1071270.18445  24298329.949    24298329.5744   24298355.1014
 00  4 17 20  6 15.0000000  0  7 24  4  6  5 30 10  9               -0.000000027
    436772.190 9    349272.50647  20691340.986    20691340.6634   20691352.8644
   1453156.438 9   1133219.31745  23300870.102    23300870.0614   23300882.5854
  -1811758.529 9   -926599.03445  23492662.168    23492661.8074   23492680.8374
   -490147.584 9   -363985.21647  20225300.475    20225299.8764   20225311.9454
  -1871296.852 9  -1428054.62447  21503269.252    21503269.4174   21503282.6074
  -1887547.989 9  -1435822.58346  21722927.131    21722926.2814   21722941.8744
   1376282.330 9   1073645.22845  24298909.985    24298909.6234   24298935.1744
 00  4 17 20  6 16.0000000  0  7 24  4  6  5 30 10  9               -0.000000027
    438347.133 9    350499.73547  20691640.681    20691640.3654   20691652.5564
   1456360.236 9   1135715.78245  23301479.783    23301479.7794   23301492.2604
  -1814081.719 9   -928409.31245  23492220.074    23492219.7344   23492238.7374
   -490065.689 9   -363921.40647  20225316.087    20225315.4954   20225327.5554
  -1873593.305 9  -1429844.06747  21502832.249    21502832.4194   21502845.6154
  -1889910.558 9  -1437663.54946  21722477.529    21722476.6734   21722492.2554
   1379330.314 9   1076020.25845  24299490.019    24299489.6624   24299515.2214
 00  4 17 20  6 17.0000000  0  7 24  4  6  5 30 10  9               -0.000000027
    439922.414 9    351727.22747  20691940.437    20691940.1184   20691952.3164
   1459564.063 9   1138212.28945  23302089.442    23302089.4674   23302101.9334
  -1816404.914 9   -930219.59845  23491777.974    23491777.6324   23491796.6244
   -489983.240 9   -363857.15947  20225331.776    20225331.1844   20225343.2414
  -1875889.398 9  -1431633.22447  21502395.314    21502395.4724   21502408.6724
  -1892272.685 9  -1439504.16446  21722028.040    21722027.1744   21722042.7474
   1382378.199 9   1078395.22545  24300070.025    24300069.6904   24300095.2544
 00  4 17 20  6 18.0000000  0  7 24  4  6  5 30 10  9               -0.000000027
    441498.094 9    352955.03047  20692240.296    20692239.9904   20692252.1724
   1462768.042 9   1140708.87745  23302699.153    23302699.2064   23302711.6454
  -1818728.063 9   -932029.83545  23491335.888    23491335.5384   23491354.5144
   -489900.166 9   -363792.42547  20225347.566    20225346.9734   20225359.0284
  -1878185.056 9  -1433422.04647  21501958.455    21501958.6244   21501971.8064
  -1894634.308 9  -1441344.38846  21721578.649    21721577.8044   21721593.3494
   1385426.089 9   1080770.18445  24300650.026    24300649.6994   24300675.2674
 00  4 17 20  6 19.0000000  0  7 24  4  6  5 30 10  9               -0.000000027
    443074.155 9    354183.13447  20692540.219    20692539.9134   20692552.0934
   1465972.111 9   1143205.55645  23303308.870    23303308.9344   23303321.3854
  -1821051.154 9   -933840.01945  23490893.826    23490893.4744   23490912.4304
   -489816.490 9   -363727.22147  20225363.487    20225362.9034   20225374.9684
  -1880480.325 9  -1435210.56547  21501521.682    21501521.8464   21501535.0394
  -1896995.428 9  -1443184.21246  21721129.330    21721128.4764   21721144.0324
   1388473.945 9   1083145.12645  24301230.044    24301229.7174   24301255.2884
 00  4 17 20  6 20.0000000  0  7 24  4  6  5 30 10  9               -0.000000026
    444650.552 9    355411.49347  20692840.188    20692839.8754   20692852.0714
   1469176.238 9   1145702.27145  23303918.575    23303918.6524   23303931.0954
  -1823374.246 9   -935650.21745  23490451.758    23490451.4094   23490470.3434
   -489732.251 9   -363661.58147  20225379.528    20225378.9324   20225391.0064
  -1882775.211 9  -1436998.78347  21501084.969    21501085.1294   21501098.3164
  -1899356.098 9  -1445023.68946  21720680.115    21720679.2674   21720694.8144
   1391521.701 9   1085519.97845  24301810.026    24301809.7064   24301835.2774
 00  4 17 20  6 21.0000000  0  7 24  4  6  5 30 10  9               -0.000000026
    446227.367 9    356640.17547  20693140.252    20693139.9374   20693152.1264
   1472380.499 9   1148199.09645  23304528.349    23304528.4214   23304540.8814
  -1825697.268 9   -937460.35945  23490009.685    23490009.3454   23490028.2714
   -489647.373 9   -363595.44247  20225395.684    20225395.1004   20225407.1684
  -1885069.643 9  -1438786.65347  21500648.358    21500648.5214   21500661.7104
  -1901716.245 9  -1446862.75246  21720231.001    21720230.1484   21720245.6924
   1394569.450 9   1087894.81945  24302390.016    24302389.7044   24302415.2624
 00  4 17 20  6 22.0000000  0  7 24  4  6  5 30 10  9               -0.000000026
    447804.494 9    357869.11147  20693440.361    20693440.0404   20693452.2424
   1475584.812 9   1150695.95045  23305138.099    23305138.1684   23305150.6424
  -1828020.304 9   -939270.50745  23489567.626    23489567.2814   23489586.2104
   -489561.971 9   -363528.89647  20225411.933    20225411.3494   20225423.4044
  -1887363.746 9  -1440574.25547  21500211.785    21500211.9444   21500225.1434
  -1904075.965 9  -1448701.50946  21719781.957    21719781.0994   21719796.6364
   1397617.089 9   1090269.58145  24302969.966    24302969.6634   24302995.2284
 00  4 17 20  6 23.0000000  0  7 24  4  6  5 30 10  9               -0.000000026
    449382.031 9    359098.35847  20693740.562    20693740.2324   20693752.4384
   1478789.269 9   1153192.93045  23305747.892    23305747.9664   23305760.4514
  -1830343.258 9   -941080.57345  23489125.573    23489125.2464   23489144.1484
   -489475.931 9   -363461.85147  20225428.290    20225427.7084   20225439.7594
  -1889657.394 9  -1442361.51247  21499775.343    21499775.4864   21499788.6974
  -1906435.160 9  -1450539.83046  21719332.991    21719332.1304   21719347.6734
   1400664.718 9   1092644.33545  24303549.926    24303549.6034   24303575.1984
 00  4 17 20  6 24.0000000  0  7 24  4  6  5 30 10  9               -0.000000026
    450959.892 9    360327.86047  20694040.824    20694040.5044   20694052.7024
   1481993.776 9   1155689.95245  23306357.684    23306357.7644   23306370.2524
  -1832666.232 9   -942890.68945  23488683.514    23488683.1934   23488702.0754
   -489389.337 9   -363394.37847  20225444.793    20225444.2064   20225456.2734
  -1891950.664 9  -1444148.47747  21499338.936    21499339.0874   21499352.2954
  -1908793.908 9  -1452377.80946  21718884.130    21718883.2614   21718898.8054
   1403712.253 9   1095019.01945  24304129.878    24304129.5414   24304155.1924
 00  4 17 20  6 25.0000000  0  7 24  4  6  5 30 10  9               -0.000000026
    452538.197 9    361557.70447  20694341.166    20694340.8364   20694353.0454
   1485198.462 9   1158187.11345  23306967.537    23306967.6124   23306980.0994
  -1834989.087 9   -944700.69145  23488241.510    23488241.1904   23488260.0724
   -489302.081 9   -363326.38747  20225461.400    20225460.8154   20225472.8674
  -1894243.467 9  -1445935.07047  21498902.628    21498902.7794   21498915.9894
  -1911152.101 9  -1454215.35746  21718435.399    21718434.5214   21718450.0774
   1406759.772 9   1097393.68745  24304709.806    24304709.4694   24304735.1604
 00  4 17 20  6 26.0000000  0  7 24  4  6  5 30 10  9               -0.000000026
    454116.844 9    362787.82447  20694641.580    20694641.2584   20694653.4474
   1488403.200 9   1160684.29545  23307577.371    23307577.4314   23307589.9414
  -1837311.935 9   -946510.69145  23487799.483    23487799.1744   23487818.0644
   -489214.240 9   -363257.93847  20225478.102    20225477.5034   20225489.5674
  -1896535.867 9  -1447721.36047  21498466.412    21498466.5624   21498479.7644
  -1913509.809 9  -1456052.52846  21717986.748    21717985.8724   21718001.4224
   1409807.228 9   1099768.31345  24305289.740    24305289.3884   24305315.1204
 00  4 17 20  6 27.0000000  0  7 24  4  6  5 30 10  9               -0.000000025
    455695.755 9    364018.13947  20694942.033    20694941.7104   20694953.9004
   1491607.948 9   1163181.49945  23308187.219    23308187.2784   23308199.7924
  -1839634.840 9   -948320.74445  23487357.433    23487357.1314   23487376.0384
   -489125.917 9   -363189.11747  20225494.912    20225494.3224   20225506.3814
  -1898827.957 9  -1449507.40747  21498030.215    21498030.3734   21498043.5734
  -1915867.142 9  -1457889.40046  21717538.137    21717537.2724   21717552.8154
   1412854.524 9   1102142.80845  24305869.635    24305869.2664   24305895.0294
 00  4 17 20  6 28.0000000  0  7 24  4  6  5 30 10  9               -0.000000025
    457275.206 9    365248.87547  20695242.596    20695242.2624   20695254.4704
   1494812.945 9   1165678.89945  23308797.122    23308797.1674   23308809.7164
  -1841957.550 9   -950130.64245  23486915.427    23486915.1184   23486934.0534
   -489036.838 9   -363119.70947  20225511.866    20225511.2804   20225523.3434
  -1901119.477 9  -1451292.99847  21497594.155    21497594.3054   21497607.5084
  -1918223.814 9  -1459725.75846  21717089.675    21717088.7934   21717104.3514
   1415901.911 9   1104517.37745  24306449.531    24306449.1454   24306474.8884
 00  4 17 20  6 29.0000000  0  7 24  4  6  5 30 10  9               -0.000000025
    458854.903 9    366479.81247  20695543.210    20695542.8744   20695555.0744
   1498017.931 9   1168176.29045  23309406.993    23309407.0154   23309419.6014
  -1844280.343 9   -951940.60845  23486473.438    23486473.1154   23486492.0734
   -488947.273 9   -363049.91547  20225528.917    20225528.3184   20225540.3944
  -1903410.699 9  -1453078.36847  21497158.150    21497158.3074   21497171.4984
  -1920580.121 9  -1461561.84146  21716641.288    21716640.4134   21716655.9774
   1418949.151 9   1106891.82545  24307029.423    24307029.0054   24307054.7474
 00  4 17 20  6 30.0000000  0  7 24  4  6  5 30 10  9               -0.000000025
    460435.015 9    367711.07047  20695843.892    20695843.5464   20695855.7534
   1501223.054 9   1170673.78845  23310016.940    23310016.9424   23310029.5454
  -1846603.051 9   -953750.50345  23486031.425    23486031.0994   23486050.0664
   -488857.068 9   -362979.62847  20225546.084    20225545.4964   20225557.5624
  -1905701.462 9  -1454863.37947  21496722.245    21496722.4084   21496735.5994
  -1922935.904 9  -1463397.51146  21716192.998    21716192.1334   21716207.6914
   1421996.371 9   1109266.26445  24307609.310    24307608.8734   24307634.5874
 00  4 17 20  6 31.0000000  0  7 24  4  6  5 30 10  9               -0.000000025
    462015.400 9    368942.53547  20696144.623    20696144.2784   20696156.4814
   1504428.188 9   1173171.28645  23310626.855    23310626.8494   23310639.4474
  -1848925.809 9   -955560.44445  23485589.411    23485589.0864   23485608.0414
   -488766.376 9   -362908.95847  20225563.326    20225562.7444   20225574.8074
  -1907991.942 9  -1456648.16647  21496286.373    21496286.5314   21496299.7214
  -1925291.293 9  -1465232.87446  21715744.776    21715743.9044   21715759.4774
   1425043.414 9   1111640.56545  24308189.158    24308188.7104   24308214.4124
 00  4 17 20  6 32.0000000  0  7 24  4  6  5 30 10  9               -0.000000025
    463596.208 9    370174.33347  20696445.453    20696445.1194   20696457.3114
   1507633.458 9   1175668.90845  23311236.785    23311236.7864   23311249.3694
  -1851248.482 9   -957370.30945  23485147.423    23485147.0734   23485166.0444
   -488675.031 9   -362837.77947  20225580.732    20225580.1424   20225592.2214
  -1910281.955 9  -1458432.57947  21495850.583    21495850.7434   21495863.9264
  -1927646.145 9  -1467067.81846  21715296.675    21715295.8044   21715311.3884
   1428090.458 9   1114014.87545  24308769.019    24308768.5694   24308794.2624
 00  4 17 20  6 33.0000000  0  7 24  4  6  5 30 10  9               -0.000000024
    465177.354 9    371406.39247  20696746.346    20696746.0114   20696758.2114
   1510838.815 9   1178166.56345  23311846.768    23311846.7554   23311859.3074
  -1853571.148 9   -959180.16445  23484705.441    23484705.0784   23484724.0404
   -488583.122 9   -362766.16247  20225598.221    20225597.6204   20225609.6964
  -1912571.589 9  -1460216.71247  21495414.907    21495415.0544   21495428.2574
  -1930000.549 9  -1468902.41946  21714848.639    21714847.7744   21714863.3464
   1431137.404 9   1116389.10345  24309348.842    24309348.3974   24309374.0554
 00  4 17 20  6 34.0000000  0  7 24  4  6  5 30 10  9               -0.000000024
    466758.888 9    372638.75847  20697047.300    20697046.9624   20697059.1484
   1514044.305 9   1180664.33945  23312456.749    23312456.7234   23312469.2504
  -1855893.743 9   -960989.96845  23484263.440    23484263.0754   23484282.0334
   -488490.577 9   -362694.05047  20225615.825    20225615.2384   20225627.2954
  -1914860.802 9  -1462000.52147  21494979.279    21494979.4264   21494992.6244
  -1932354.417 9  -1470736.58946  21714400.696    21714399.8344   21714415.4024
   1434184.313 9   1118763.30945  24309928.664    24309928.2254   24309953.8634
 00  4 17 20  6 35.0000000  0  7 24  4  6  5 30 10  9               -0.000000024
    468340.741 9    373871.37147  20697348.304    20697347.9644   20697360.1564
   1517249.854 9   1183162.17045  23313066.733    23313066.7094   23313079.2234
  -1858216.333 9   -962799.75545  23483821.481    23483821.1094   23483840.0894
   -488397.476 9   -362621.50747  20225633.557    20225632.9664   20225645.0344
  -1917149.634 9  -1463784.01747  21494543.708    21494543.8574   21494557.0504
  -1934707.859 9  -1472570.44246  21713952.848    21713951.9844   21713967.5394
   1437231.126 9   1121137.43145  24310508.457    24310508.0334   24310533.6404
 00  4 17 20  6 36.0000000  0  7 24  4  6  5 30 10  9               -0.000000024
    469923.023 9    375104.31747  20697649.395    20697649.0564   20697661.2584
   1520455.583 9   1185660.14645  23313676.773    23313676.7574   23313689.2664
  -1860538.791 9   -964609.45645  23483379.519    23483379.1544   23483398.1344
   -488303.672 9   -362548.41447  20225651.408    20225650.8234   20225662.8794
  -1919437.951 9  -1465567.12347  21494108.249    21494108.3894   21494121.5904
  -1937060.712 9  -1474403.83346  21713505.124    21713504.2644   21713519.8324
   1440277.973 9   1123511.58045  24311088.287    24311087.8824   24311113.4604
 00  4 17 20  6 37.0000000  0  7 24  4  6  5 30 10  9               -0.000000024
    471505.609 9    376337.49947  20697950.552    20697950.2174   20697962.4104
   1523661.371 9   1188158.17445  23314286.811    23314286.8044   23314299.3054
  -1862861.272 9   -966419.17445  23482937.565    23482937.2104   23482956.1844
   -488209.326 9   -362474.89947  20225669.355    20225668.7714   20225680.8174
  -1921725.935 9  -1467349.96347  21493672.858    21493672.9904   21493686.2024
  -1939413.138 9  -1476236.88746  21713057.464    21713056.5944   21713072.1744
   1443324.667 9   1125885.61245  24311668.070    24311667.6624   24311693.2464
 00  4 17 20  6 38.0000000  0  7 24  4  6  5 30 10  9               -0.000000024
    473088.590 9    377570.99147  20698251.794    20698251.4594   20698263.6514
   1526867.249 9   1190656.25045  23314896.883    23314896.8824   23314909.3784
  -1865183.685 9   -968228.83345  23482495.623    23482495.2684   23482514.2334
   -488114.363 9   -362400.90047  20225687.411    20225686.8084   20225698.8744
  -1924013.486 9  -1469132.46947  21493237.573    21493237.7014   21493250.9254
  -1941765.059 9  -1478069.54046  21712609.897    21712609.0444   21712624.6004
   1446371.310 9   1128259.60145  24312247.825    24312247.4114   24312273.0234
 00  4 17 20  6 39.0000000  0  7 24  4  6  5 30 10  9               -0.000000023
    474671.963 9    378804.78647  20698553.108    20698552.7604   20698564.9694
   1530073.229 9   1193154.41845  23315506.974    23315506.9804   23315519.4504
  -1867506.039 9   -970038.46145  23482053.670    23482053.3234   23482072.2714
   -488018.764 9   -362326.40947  20225705.625    20225705.0264   20225717.0874
  -1926300.608 9  -1470914.64047  21492802.325    21492802.4524   21492815.6724
  -1944116.464 9  -1479901.79846  21712162.429    21712161.5734   21712177.1354
   1449417.942 9   1130633.58645  24312827.596    24312827.1794   24312852.8124
 00  4 17 20  6 40.0000000  0  7 24  4  6  5 30 10  9               -0.000000023
    476255.634 9    380038.81647  20698854.475    20698854.1324   20698866.3224
   1533279.249 9   1195652.61545  23316117.068    23316117.0684   23316129.5504
  -1869828.397 9   -971848.08445  23481611.756    23481611.4084   23481630.3154
   -487922.623 9   -362251.49147  20225723.920    20225723.3134   20225735.3864
  -1928587.395 9  -1472696.54647  21492367.179    21492367.3144   21492380.5214
  -1946467.439 9  -1481733.71846  21711715.068    21711714.2134   21711729.7714
   1452464.407 9   1133007.42845  24313407.338    24313406.9274   24313432.5504
 00  4 17 20  6 41.0000000  0  7 24  4  6  5 30 10  9               -0.000000023
    477839.691 9    381273.14647  20699155.902    20699155.5634   20699167.7454
   1536485.382 9   1198150.90445  23316727.164    23316727.1744   23316739.6664
  -1872150.684 9   -973657.65745  23481169.845    23481169.5034   23481188.4054
   -487825.850 9   -362176.08447  20225742.334    20225741.7304   20225753.7954
  -1930873.732 9  -1474478.10447  21491932.094    21491932.2254   21491945.4204
  -1948817.886 9  -1483565.22646  21711267.784    21711266.9244   21711282.4834
   1455510.846 9   1135381.25645  24313987.055    24313986.6464   24314012.2704
 00  4 17 20  6 42.0000000  0  7 24  4  6  5 30 10  9               -0.000000023
    479424.057 9    382507.72147  20699457.378    20699457.0444   20699469.2294
   1539691.566 9   1200649.23245  23317337.294    23317337.3234   23317349.8064
  -1874472.989 9   -975467.23545  23480727.900    23480727.5804   23480746.4754
   -487728.524 9   -362100.24547  20225760.863    20225760.2584   20225772.3264
  -1933159.717 9  -1476259.38847  21491497.095    21491497.2264   21491510.4134
  -1951167.896 9  -1485396.41046  21710820.594    21710819.7224   21710835.2934
   1458557.187 9   1137755.01245  24314566.793    24314566.3674   24314592.0324
 00  4 17 20  6 43.0000000  0  7 24  4  6  5 30 10  9               -0.000000023
    481008.850 9    383742.62447  20699758.969    20699758.6354   20699770.8254
   1542897.926 9   1203147.69245  23317947.455    23317947.4814   23317959.9864
  -1876795.173 9   -977276.72545  23480286.015    23480285.7064   23480304.6094
   -487630.520 9   -362023.88347  20225779.492    20225778.8954   20225790.9514
  -1935445.228 9  -1478040.30647  21491062.163    21491062.3074   21491075.4764
  -1953517.332 9  -1487227.13146  21710373.496    21710372.6324   21710388.2014
   1461603.536 9   1140128.77345  24315146.479    24315146.0254   24315171.7394
 00  4 17 20  6 44.0000000  0  7 24  4  6  5 30 10  9               -0.000000022
    482594.013 9    384977.81447  20700060.629    20700060.2874   20700072.4914
   1546104.392 9   1205646.23645  23318557.605    23318557.6194   23318570.1574
  -1879117.303 9   -979086.17445  23479844.122    23479843.8224   23479862.7504
   -487531.907 9   -361947.04147  20225798.283    20225797.6724   20225809.7364
  -1937730.323 9  -1479820.89647  21490627.324    21490627.4684   21490640.6274
  -1955866.263 9  -1489057.47246  21709926.511    21709925.6424   21709941.2224
   1464649.833 9   1142502.48845  24315726.199    24315725.7334   24315751.4744
 00  4 17 20  6 45.0000000  0  7 24  4  6  5 30 10  9               -0.000000022
    484179.406 9    386213.18447  20700362.292    20700361.9574   20700374.1494
   1549310.822 9   1208144.74445  23319167.776    23319167.7774   23319180.3274
  -1881439.515 9   -980895.67945  23479402.223    23479401.9194   23479420.8604
   -487432.813 9   -361869.82747  20225817.121    20225816.5094   20225828.5704
  -1940015.132 9  -1481601.26247  21490192.530    21490192.6794   21490205.8364
  -1958214.823 9  -1490887.50646  21709479.598    21709478.7224   21709494.3044
   1467695.972 9   1144876.08645  24316305.870    24316305.4114   24316331.1604
 00  4 17 20  6 46.0000000  0  7 24  4  6  5 30 10  9               -0.000000022
    485765.269 9    387448.92147  20700664.079    20700663.7494   20700675.9414
   1552517.479 9   1210643.42645  23319777.995    23319777.9934   23319790.5244
  -1883761.562 9   -982705.06945  23478960.354    23478960.0444   23478979.0054
   -487333.005 9   -361792.05247  20225836.110    20225835.4964   20225847.5624
  -1942299.428 9  -1483381.23347  21489757.835    21489757.9904   21489771.1424
  -1960562.752 9  -1492717.05746  21709032.790    21709031.9204   21709047.4854
   1470742.181 9   1147249.74445  24316885.549    24316885.0994   24316910.8654
 00  4 17 20  6 47.0000000  0  7 24  4  6  5 30 10  9               -0.000000022
    487351.404 9    388684.86647  20700965.918    20700965.5904   20700977.7694
   1555724.154 9   1213142.12945  23320388.212    23320388.2014   23320400.7344
  -1886083.660 9   -984514.49945  23478518.481    23478518.1704   23478537.1504
   -487232.693 9   -361713.88847  20225855.209    20225854.6024   20225866.6654
  -1944583.409 9  -1485160.96347  21489323.204    21489323.3604   21489336.5044
  -1962910.281 9  -1494546.29246  21708586.083    21708585.2194   21708600.7804
   1473788.219 9   1149623.25945  24317465.216    24317464.7784   24317490.5574
 00  4 17 20  6 48.0000000  0  7 24  4  6  5 30 10  9               -0.000000022
    488937.992 9    389921.16647  20701267.835    20701267.5014   20701279.6864
   1558930.983 9   1215640.95245  23320998.457    23320998.4484   23321010.9664
  -1888405.631 9   -986323.82045  23478076.606    23478076.2974   23478095.2744
   -487131.688 9   -361635.18147  20225874.428    20225873.8194   20225885.8724
  -1946866.887 9  -1486940.29747  21488888.678    21488888.8424   21488901.9774
  -1965257.232 9  -1496375.08746  21708139.465    21708138.5994   21708154.1524
   1476834.299 9   1151996.80645  24318044.854    24318044.4264   24318070.2194
 00  4 17 20  6 49.0000000  0  7 24  4  6  5 30 10  9               -0.000000021
    490524.837 9    391157.67247  20701569.817    20701569.4824   20701581.6704
   1562137.833 9   1218139.79245  23321608.715    23321608.7154   23321621.2324
  -1890727.633 9   -988133.16445  23477634.747    23477634.4324   23477653.4024
   -487030.177 9   -361556.08347  20225893.746    20225893.1354   20225905.1914
  -1949150.056 9  -1488719.38847  21488454.220    21488454.3834   21488467.5164
  -1967603.757 9  -1498203.53746  21707692.924    21707692.0484   21707707.6084
   1479880.262 9   1154370.27345  24318624.520    24318624.1054   24318649.9254
 00  4 17 20  6 50.0000000  0  7 24  4  6  5 30 10  9               -0.000000021
    492112.089 9    392394.49147  20701871.837    20701871.5024   20701883.6834
   1565344.781 9   1220638.71245  23322218.955    23322218.9724   23322231.4534
  -1893049.541 9   -989942.45845  23477192.895    23477192.5594   23477211.5244
   -486928.026 9   -361476.49147  20225913.174    20225912.5724   20225924.6264
  -1951432.770 9  -1490498.12647  21488019.823    21488019.9744   21488033.1184
  -1969949.754 9  -1500031.58746  21707246.488    21707245.6164   21707261.1774
   1482926.185 9   1156743.69745  24319204.144    24319203.7354   24319229.5704
 00  4 17 20  6 51.0000000  0  7 24  4  6  5 30 10  9               -0.000000021
    493699.669 9    393631.56747  20702173.954    20702173.6234   20702185.8154
   1568551.789 9   1223137.67945  23322829.246    23322829.2814   23322841.7204
  -1895371.453 9   -991751.73845  23476751.054    23476750.7144   23476769.6564
   -486825.328 9   -361396.46547  20225932.730    20225932.1294   20225944.1794
  -1953715.110 9  -1492276.56347  21487585.491    21487585.6544   21487598.7784
  -1972295.296 9  -1501859.27046  21706800.139    21706799.2664   21706814.8264
   1485972.050 9   1159117.08445  24319783.770    24319783.3634   24319809.2164
 00  4 17 20  6 52.0000000  0  7 24  4  6  5 30 10  9               -0.000000021
    495287.669 9    394868.97347  20702476.158    20702475.8244   20702488.0194
   1571758.951 9   1225636.77845  23323439.559    23323439.5994   23323452.0244
  -1897693.248 9   -993560.90745  23476309.214    23476308.8794   23476327.7964
   -486721.976 9   -361315.93647  20225952.383    20225951.7854   20225963.8254
  -1955996.980 9  -1494054.64147  21487151.280    21487151.4354   21487164.5654
  -1974640.251 9  -1503686.51146  21706353.923    21706353.0454   21706368.6114
   1489017.917 9   1161490.47245  24320363.362    24320362.9724   24320388.8084
 00  4 17 20  6 53.0000000  0  7 24  4  6  5 30 10  9               -0.000000020
    496875.981 9    396106.61747  20702778.405    20702778.0754   20702790.2684
   1574966.157 9   1228135.89645  23324049.867    23324049.9054   23324062.3384
  -1900015.043 9   -995370.09145  23475867.415    23475867.0864   23475885.9974
   -486618.074 9   -361234.97247  20225972.164    20225971.5614   20225983.6144
  -1958278.486 9  -1495832.44047  21486717.104    21486717.2654   21486730.4024
  -1976984.763 9  -1505513.38846  21705907.750    21705906.8744   21705922.4424
   1492063.691 9   1163863.78245  24320942.987    24320942.6014   24320968.4334
 00  4 17 20  6 54.0000000  0  7 24  4  6  5 30 10  9               -0.000000020
    498464.683 9    397344.56347  20703080.711    20703080.3864   20703092.5764
   1578173.455 9   1230635.08945  23324660.195    23324660.2524   23324672.6664
  -1902336.760 9   -997179.20845  23475425.585    23475425.2434   23475444.1624
   -486513.544 9   -361153.51747  20225992.055    20225991.4574   20226003.5074
  -1960559.535 9  -1497609.87147  21486283.026    21486283.1864   21486296.3284
  -1979328.737 9  -1507339.86146  21705461.717    21705460.8434   21705476.4034
   1495109.468 9   1166237.10045  24321522.574    24321522.1904   24321548.0264
 00  4 17 20  6 55.0000000  0  7 24  4  6  5 30 10  9               -0.000000020
    500053.758 9    398582.80347  20703383.124    20703382.7964   20703394.9874
   1581380.863 9   1233134.36745  23325270.556    23325270.6304   23325283.0454
  -1904658.423 9   -998988.28345  23474983.797    23474983.4294   23475002.3684
   -486408.405 9   -361071.58947  20226012.062    20226011.4644   20226023.5124
  -1962840.175 9  -1499386.99447  21485849.033    21485849.1974   21485862.3474
  -1981672.181 9  -1509165.92846  21705015.753    21705014.8714   21705030.4384
   1498155.220 9   1168610.38745  24322102.177    24322101.7984   24322127.6494
 00  4 17 20  6 56.0000000  0  7 24  4  6  5 30 10  9               -0.000000019
    501643.161 9    399821.30047  20703685.561    20703685.2374   20703697.4334
   1584588.296 9   1235633.67445  23325880.924    23325881.0174   23325893.4314
  -1906980.088 9  -1000797.36945  23474541.986    23474541.5944   23474560.5544
   -486302.707 9   -360989.22647  20226032.178    20226031.5804   20226043.6374
  -1965120.439 9  -1501163.82047  21485415.130    21485415.2874   21485428.4364
  -1984015.183 9  -1510991.64146  21704569.900    21704569.0104   21704584.5724
   1501200.882 9   1170983.60245  24322681.762    24322681.3964   24322707.2404
 00  4 17 20  6 57.0000000  0  7 24  4  6  5 30 10  9               -0.000000019
    503232.952 9    401060.10047  20703988.083    20703987.7574   20703999.9444
   1587795.838 9   1238133.05545  23326491.297    23326491.4054   23326503.8284
  -1909301.684 9  -1002606.39145  23474100.188    23474099.7814   23474118.7404
   -486196.390 9   -360906.38447  20226052.404    20226051.8154   20226063.8634
  -1967400.266 9  -1502940.30747  21484981.278    21484981.4474   21484994.5894
  -1986357.660 9  -1512816.94846  21704124.142    21704123.2494   21704138.8074
   1504246.543 9   1173356.82045  24323261.335    24323260.9854   24323286.8254
 00  4 17 20  6 58.0000000  0  7 24  4  6  5 30 10  9               -0.000000019
    504823.020 9    402299.11647  20704290.684    20704290.3484   20704302.5334
   1591003.403 9   1240632.45445  23327101.682    23327101.8034   23327114.2124
  -1911623.296 9  -1004415.42945  23473658.401    23473657.9754   23473676.9654
   -486089.550 9   -360823.13447  20226072.751    20226072.1624   20226084.2174
  -1969679.769 9  -1504716.54147  21484547.483    21484547.6584   21484560.7984
  -1988699.711 9  -1514641.91046  21703678.447    21703677.5474   21703693.1094
   1507292.094 9   1175729.96245  24323840.894    24323840.5544   24323866.3894
 00  4 17 20  6 59.0000000  0  7 24  4  6  5 30 10  9               -0.000000019
    506413.542 9    403538.48047  20704593.352    20704593.0284   20704605.1964
   1594211.141 9   1243131.98345  23327712.079    23327712.1924   23327724.5964
  -1913944.784 9  -1006224.36845  23473216.637    23473216.2114   23473235.2404
   -485982.019 9   -360739.34147  20226093.212    20226092.6274   20226104.6764
  -1971958.769 9  -1506492.38147  21484113.799    21484113.9684   21484127.1104
  -1991041.165 9  -1516466.41746  21703232.874    21703231.9854   21703247.5324
   1510337.716 9   1178103.15445  24324420.485    24324420.1634   24324445.9934
 00  4 17 20  7  0.0000000  0  7 24  4  6  5 30 10  9               -0.000000018
    508004.350 9    404778.06747  20704896.064    20704895.7484   20704907.9134
   1597418.881 9   1245631.51745  23328322.502    23328322.6084   23328334.9934
  -1916266.300 9  -1008033.32645  23472774.853    23472774.4364   23472793.4754
   -485873.962 9   -360655.14347  20226113.764    20226113.1834   20226125.2324
  -1974237.428 9  -1508267.95747  21483680.200    21483680.3684   21483693.5064
  -1993382.212 9  -1518290.60446  21702787.401    21702786.5144   21702802.0444
   1513383.231 9   1180476.26645  24325000.030    24324999.7224   24325025.5514
 00  4 17 20  7  1.0000000  0  7 24  4  6  5 30 10  9               -0.000000018
    509595.584 9    406017.98947  20705198.866    20705198.5494   20705210.7054
   1600626.762 9   1248131.14645  23328932.931    23328933.0354   23328945.3814
  -1918587.688 9  -1009842.19345  23472333.114    23472332.6934   23472351.7504
   -485765.240 9   -360570.42847  20226134.447    20226133.8694   20226145.9134
  -1976515.634 9  -1510043.17747  21483246.661    21483246.8284   21483259.9684
  -1995722.675 9  -1520114.34046  21702342.016    21702341.1424   21702356.6574
   1516428.749 9   1182849.37545  24325579.587    24325579.2904   24325605.1174
 00  4 17 20  7  2.0000000  0  7 24  4  6  5 30 10  9               -0.000000018
    511187.165 9    407258.18547  20705501.741    20705501.4294   20705513.5814
   1603834.691 9   1250630.82945  23329543.380    23329543.4934   23329555.8344
  -1920909.037 9  -1011651.03445  23471891.361    23471890.9494   23471910.0004
   -485655.931 9   -360485.24947  20226155.247    20226154.6654   20226166.7084
  -1978793.438 9  -1511818.09647  21482813.193    21482813.3784   21482826.5054
  -1998062.659 9  -1521937.69246  21701896.718    21701895.8404   21701911.3594
   1519474.231 9   1185222.46445  24326159.151    24326158.8784   24326184.6964
 00  4 17 20  7  3.0000000  0  7 24  4  6  5 30 10  9               -0.000000017
    512779.025 9    408498.59347  20705804.680    20705804.3704   20705816.5124
   1607042.597 9   1253130.49645  23330153.843    23330153.9604   23330166.3124
  -1923230.433 9  -1013459.89745  23471449.616    23471449.1944   23471468.2574
   -485546.114 9   -360399.67847  20226176.144    20226175.5604   20226187.6194
  -1981070.937 9  -1513592.76947  21482379.822    21482380.0084   21482393.1444
  -2000402.237 9  -1523760.73446  21701451.526    21701450.6494   21701466.1764
   1522519.589 9   1187595.45345  24326738.665    24326738.3984   24326764.2354
 00  4 17 20  7  4.0000000  0  7 24  4  6  5 30 10  9               -0.000000017
    514371.305 9    409739.32847  20706107.666    20706107.3504   20706119.4964
   1610250.637 9   1255630.27345  23330764.304    23330764.4274   23330776.7784
  -1925551.715 9  -1015268.69445  23471007.888    23471007.4894   23471026.5114
   -485435.640 9   -360313.59647  20226197.186    20226196.5964   20226208.6554
  -1983347.989 9  -1515367.09347  21481946.493    21481946.6684   21481959.8034
  -2002741.242 9  -1525583.34146  21701006.404    21701005.5184   21701021.0484
   1525564.967 9   1189968.46845  24327318.188    24327317.9374   24327343.7754
 00  4 17 20  7  5.0000000  0  7 24  4  6  5 30 10  9               -0.000000017
    515963.894 9    410980.30747  20706410.736    20706410.4204   20706422.5734
   1613458.701 9   1258130.06345  23331374.784    23331374.8964   23331387.2714
  -1927873.009 9  -1017077.48645  23470566.153    23470565.7744   23470584.7684
   -485324.619 9   -360227.09047  20226218.297    20226217.7114   20226229.7694
  -1985624.702 9  -1517141.16147  21481513.256    21481513.4474   21481526.5694
  -2005079.797 9  -1527405.58046  21700561.388    21700560.4954   21700576.0284
   1528610.259 9   1192341.40245  24327897.716    24327897.4664   24327923.3194
 00  4 17 20  7  6.0000000  0  7 24  4  6  5 30 10  9               -0.000000016
    517556.844 9    412221.56847  20706713.874    20706713.5604   20706725.7094
   1616666.850 9   1260629.92445  23331985.270    23331985.3734   23331997.7814
  -1930194.233 9  -1018886.22345  23470124.420    23470124.0434   23470143.0234
   -485212.991 9   -360140.10747  20226239.563    20226238.9864   20226251.0304
  -1987900.999 9  -1518914.89247  21481080.087    21481080.2784   21481093.3974
  -2007417.842 9  -1529227.42846  21700116.485    21700115.6024   21700131.1144
   1531655.534 9   1194714.32345  24328477.230    24328476.9944   24328502.8554
 00  4 17 20  7  7.0000000  0  7 24  4  6  5 30 10  9               -0.000000016
    519150.229 9    413463.16647  20707017.068    20707016.7414   20707028.8904
   1619875.111 9   1263129.86445  23332595.785    23332595.8704   23332608.2954
  -1932515.325 9  -1020694.87945  23469682.723    23469682.3374   23469701.3074
   -485100.698 9   -360052.61047  20226260.905    20226260.3314   20226272.3734
  -1990176.846 9  -1520688.26947  21480646.999    21480647.1974   21480660.3104
  -2009755.300 9  -1531048.82446  21699671.682    21699670.7914   21699686.2984
   1534700.813 9   1197087.24845  24329056.726    24329056.5024   24329082.3764
 00  4 17 20  7  8.0000000  0  7 24  4  6  5 30 10  9               -0.000000016
    520743.857 9    414704.95747  20707320.324    20707320.0014   20707332.1364
   1623083.343 9   1265629.77345  23333206.293    23333206.3874   23333218.8104
  -1934836.485 9  -1022503.57645  23469241.035    23469240.6524   23469259.6264
   -484987.917 9   -359964.72547  20226282.383    20226281.8064   20226293.8554
  -1992452.391 9  -1522461.41847  21480213.981    21480214.1874   21480227.2954
  -2012092.370 9  -1532869.90446  21699226.928    21699226.0484   21699241.5484
   1537745.954 9   1199460.06645  24329636.202    24329635.9914   24329661.8864
 00  4 17 20  7  9.0000000  0  7 24  4  6  5 30 10  9               -0.000000015
    522337.861 9    415947.03747  20707623.671    20707623.3414   20707635.4784
   1626291.670 9   1268129.76645  23333816.818    23333816.8954   23333829.3614
  -1937157.573 9  -1024312.20045  23468799.358    23468798.9784   23468817.9494
   -484874.530 9   -359876.37047  20226303.945    20226303.3624   20226315.4134
  -1994727.523 9  -1524234.24547  21479781.040    21479781.2374   21479794.3634
  -2014428.934 9  -1534690.59946  21698782.317    21698781.4264   21698796.9544
   1540791.089 9   1201832.88145  24330215.699    24330215.5014   24330241.3914
 00  4 17 20  7 10.0000000  0  7 24  4  6  5 30 10  9               -0.000000015
    523932.317 9    417189.47047  20707927.089    20707926.7514   20707938.8954
   1629500.143 9   1270629.87945  23334427.377    23334427.4624   23334439.9194
  -1939478.524 9  -1026120.71045  23468357.666    23468357.2944   23468376.2594
   -484760.464 9   -359787.49247  20226325.666    20226325.0864   20226337.1324
  -1997002.195 9  -1526006.71447  21479348.166    21479348.3764   21479361.4974
  -2016764.901 9  -1536510.82846  21698337.766    21698336.8844   21698352.3954
   1543836.242 9   1204205.71145  24330795.180    24330794.9994   24330820.8744
 00  4 17 20  7 11.0000000  0  7 24  4  6  5 30 10  9               -0.000000014
    525527.040 9    418432.10847  20708230.562    20708230.2304   20708242.3704
   1632708.594 9   1273129.96345  23335037.927    23335038.0084   23335050.4534
  -1941799.536 9  -1027929.28745  23467915.997    23467915.6294   23467934.5704
   -484645.895 9   -359698.22147  20226347.478    20226346.9014   20226358.9514
  -1999276.555 9  -1527778.93947  21478915.366    21478915.5764   21478928.7054
  -2019100.467 9  -1538330.75046  21697893.331    21697892.4524   21697907.9474
   1546881.296 9   1206578.46045  24331374.643    24331374.4784   24331400.3574
 00  4 17 20  7 12.0000000  0  7 24  4  6  5 30 10  9               -0.000000014
    527122.206 9    419675.09447  20708534.115    20708533.7904   20708545.9234
   1635917.202 9   1275630.18145  23335648.518    23335648.6174   23335661.0324
  -1944120.431 9  -1029737.78145  23467474.359    23467474.0044   23467492.9264
   -484530.667 9   -359608.43347  20226369.403    20226368.8164   20226380.8654
  -2001550.434 9  -1529550.79547  21478482.687    21478482.8864   21478496.0384
  -2021435.463 9  -1540150.22946  21697449.003    21697448.1104   21697463.6154
   1549926.398 9   1208951.25245  24331954.130    24331953.9774   24331979.8454
 00  4 17 20  7 13.0000000  0  7 24  4  6  5 30 10  9               -0.000000014
    528717.692 9    420918.33447  20708837.730    20708837.3904   20708849.5454
   1639125.848 9   1278130.40145  23336259.097    23336259.1744   23336271.6014
  -1946441.370 9  -1031546.30645  23467032.699    23467032.3614   23467051.2494
   -484414.923 9   -359518.24347  20226391.413    20226390.8314   20226402.8724
  -2003824.014 9  -1531322.40747  21478050.015    21478050.2254   21478063.3654
  -2023770.029 9  -1541969.36646  21697004.735    21697003.8474   21697019.3434
   1552971.371 9   1211323.94645  24332533.569    24332533.4164   24332559.2924
 00  4 17 20  7 14.0000000  0  7 24  4  6  5 30 10  9               -0.000000013
    530313.564 9    422161.87247  20709141.405    20709141.0804   20709153.2084
   1642334.591 9   1280630.71845  23336869.693    23336869.7814   23336882.2024
  -1948762.242 9  -1033354.76845  23466591.057    23466590.7084   23466609.6154
   -484298.559 9   -359427.57147  20226413.551    20226412.9664   20226425.0194
  -2006097.155 9  -1533093.69847  21477617.448    21477617.6454   21477630.7814
  -2026104.073 9  -1543788.09746  21696560.591    21696559.7044   21696575.1874
   1556016.327 9   1213696.61445  24333113.028    24333112.8854   24333138.7544
 00  4 17 20  7 15.0000000  0  7 24  4  6  5 30 10  9               -0.000000013
    531909.814 9    423405.69947  20709445.177    20709444.8504   20709456.9734
   1645543.398 9   1283131.07945  23337480.315    23337480.4084   23337492.8134
  -1951083.083 9  -1035163.21445  23466149.418    23466149.0634   23466167.9654
   -484181.610 9   -359336.43647  20226435.819    20226435.2404   20226447.2844
  -2008369.890 9  -1534864.64847  21477184.963    21477185.1744   21477198.3034
  -2028437.631 9  -1545606.44546  21696116.524    21696115.6414   21696131.1274
   1559061.258 9   1216069.27445  24333692.466    24333692.3244   24333718.2134
 00  4 17 20  7 16.0000000  0  7 24  4  6  5 30 10  9               -0.000000012
    533506.377 9    424649.77547  20709748.979    20709748.6494   20709760.7734
   1648752.228 9   1285631.46645  23338090.926    23338091.0354   23338103.4114
  -1953403.962 9  -1036971.69045  23465707.768    23465707.4004   23465726.3104
   -484064.135 9   -359244.90347  20226458.170    20226457.5954   20226469.6414
  -2010642.296 9  -1536635.35947  21476752.533    21476752.7344   21476765.8654
  -2030770.742 9  -1547424.45546  21695672.545    21695671.6604   21695687.1504
   1562106.113 9   1218441.88045  24334271.901    24334271.7734   24334297.6544
 00  4 17 20  7 17.0000000  0  7 24  4  6  5 30 10  9               -0.000000012
    535103.378 9    425894.19047  20710052.883    20710052.5494   20710064.6804
   1651961.212 9   1288131.97445  23338701.577    23338701.7024   23338714.0594
  -1955724.747 9  -1038780.09345  23465266.121    23465265.7284   23465284.6364
   -483946.009 9   -359152.85847  20226480.655    20226480.0794   20226492.1334
  -2012914.217 9  -1538405.68547  21476320.214    21476320.4134   21476333.5404
  -2033103.290 9  -1549242.01646  21695228.666    21695227.7684   21695243.2654
   1565150.998 9   1220814.50245  24334851.342    24334851.2224   24334877.0934
 00  4 17 20  7 18.0000000  0  7 24  4  6  5 30 10  9               -0.000000012
    536700.657 9    427138.82547  20710356.842    20710356.4994   20710368.6294
   1655170.184 9   1290632.47145  23339312.242    23339312.3614   23339324.7214
  -1958045.597 9  -1040588.52945  23464824.479    23464824.0414   23464842.9634
   -483827.403 9   -359060.43647  20226503.221    20226502.6434   20226514.6844
  -2015185.835 9  -1540175.77247  21475887.955    21475888.1524   21475901.2754
  -2035435.447 9  -1551059.27646  21694784.877    21694783.9844   21694799.4804
   1568195.736 9   1223187.00245  24335430.761    24335430.6414   24335456.5114
 00  4 17 20  7 19.0000000  0  7 24  4  6  5 30 10  9               -0.000000011
    538298.372 9    428383.79647  20710660.875    20710660.5284   20710672.6714
   1658379.289 9   1293133.06845  23339922.929    23339923.0294   23339935.4354
  -1960366.350 9  -1042396.88845  23464382.857    23464382.4254   23464401.3354
   -483708.145 9   -358967.50947  20226525.926    20226525.3484   20226537.3954
  -2017456.996 9  -1541945.50247  21475455.752    21475455.9514   21475469.0764
  -2037767.043 9  -1552876.10046  21694341.176    21694340.2714   21694355.7904
   1571240.499 9   1225559.52945  24336010.169    24336010.0504   24336035.9224
 00  4 17 20  7 20.0000000  0  7 24  4  6  5 30 10  9               -0.000000011
    539896.454 9    429629.05647  20710964.992    20710964.6574   20710976.7824
   1661588.452 9   1295633.72745  23340533.612    23340533.6964   23340546.1404
  -1962687.070 9  -1044205.24745  23463941.256    23463940.8224   23463959.7414
   -483588.308 9   -358874.12947  20226548.732    20226548.1624   20226560.2114
  -2019727.762 9  -1543714.92547  21475023.633    21475023.8404   21475036.9454
  -2040098.149 9  -1554692.53646  21693897.571    21693896.6784   21693912.1744
   1574285.219 9   1227932.01945  24336589.592    24336589.4694   24336615.3474
 00  4 17 20  7 21.0000000  0  7 24  4  6  5 30 10  9               -0.000000010
    541494.894 9    430874.58547  20711269.151    20711268.8174   20711280.9374
   1664797.678 9   1298134.42245  23341144.295    23341144.3714   23341156.8164
  -1965007.810 9  -1046013.59745  23463499.627    23463499.1904   23463518.1244
   -483467.908 9   -358780.30847  20226571.636    20226571.0664   20226583.1114
  -2021998.141 9  -1545484.05747  21474591.592    21474591.7994   21474604.8964
  -2042428.782 9  -1556508.61946  21693454.073    21693453.1754   21693468.6714
   1577329.877 9   1230304.46545  24337168.973    24337168.8484   24337194.7274
 00  4 17 20  7 22.0000000  0  7 24  4  6  5 30 10  9               -0.000000010
    543093.723 9    432120.42247  20711573.405    20711573.0664   20711585.1784
   1668006.970 9   1300635.17345  23341755.005    23341755.0784   23341767.5324
  -1967328.496 9  -1047821.90945  23463057.997    23463057.5264   23463076.5004
   -483346.905 9   -358686.02647  20226594.646    20226594.0804   20226606.1234
  -2024268.122 9  -1547252.86547  21474159.637    21474159.8294   21474172.9334
  -2044758.907 9  -1558324.29046  21693010.668    21693009.7624   21693025.2714
   1580374.488 9   1232676.86745  24337748.360    24337748.2174   24337774.1064
 00  4 17 20  7 23.0000000  0  7 24  4  6  5 30 10  9               -0.000000009
    544692.965 9    433366.59047  20711877.732    20711877.3864   20711889.5114
   1671216.405 9   1303136.02945  23342365.761    23342365.8564   23342378.2654
  -1969649.098 9  -1049630.15645  23462616.398    23462615.9094   23462634.8984
   -483225.256 9   -358591.23447  20226617.814    20226617.2544   20226629.2794
  -2026537.632 9  -1549021.31147  21473727.784    21473727.9684   21473741.0804
  -2047088.484 9  -1560139.53246  21692567.378    21692566.4604   21692581.9774
   1583419.104 9   1235049.27345  24338327.764    24338327.5974   24338353.5084
 00  4 17 20  7 24.0000000  0  7 24  4  6  5 30 10  9               -0.000000009
    546292.488 9    434612.97047  20712182.126    20712181.7854   20712193.9134
   1674425.805 9   1305636.85645  23342976.493    23342976.5934   23342989.0064
  -1971969.804 9  -1051438.48645  23462174.786    23462174.3134   23462193.2864
   -483103.127 9   -358496.06647  20226641.059    20226640.4884   20226652.5254
  -2028806.846 9  -1550789.52547  21473295.966    21473296.1474   21473309.2694
  -2049417.694 9  -1561954.49946  21692124.127    21692123.1964   21692138.7234
   1586463.575 9   1237421.57045  24338907.110    24338906.9164   24338932.8644
 00  4 17 20  7 25.0000000  0  7 24  4  6  5 30 10  9               -0.000000009
    547892.458 9    435859.70447  20712486.578    20712486.2444   20712498.3714
   1677635.320 9   1308137.77245  23343587.245    23343587.3434   23343599.7404
  -1974290.412 9  -1053246.74645  23461733.174    23461732.7294   23461751.6664
   -482980.357 9   -358400.40747  20226664.425    20226663.8624   20226675.8924
  -2031075.620 9  -1552557.39747  21472864.233    21472864.4154   21472877.5264
  -2051746.343 9  -1563769.02646  21691681.014    21691680.0924   21691695.6094
   1589508.035 9   1239793.86145  24339486.465    24339486.2454   24339512.2444
 00  4 17 20  7 26.0000000  0  7 24  4  6  5 30 10  9               -0.000000008
    549492.784 9    437106.71547  20712791.124    20712790.7834   20712802.9144
   1680844.901 9   1310638.75445  23344197.993    23344198.0504   23344210.4854
  -1976611.018 9  -1055055.02745  23461291.588    23461291.1374   23461310.0744
   -482857.024 9   -358304.30647  20226687.883    20226687.3164   20226699.3394
  -2033343.997 9  -1554324.96047  21472432.554    21472432.7344   21472445.8444
  -2054074.526 9  -1565583.19746  21691237.959    21691237.0394   21691252.5444
   1592552.442 9   1242166.11245  24340065.806    24340065.5734   24340091.6034
 00  4 17 20  7 27.0000000  0  7 24  4  6  5 30 10  9               -0.000000008
    551093.451 9    438353.98347  20713095.700    20713095.3524   20713107.4864
   1684054.511 9   1313139.73745  23344808.767    23344808.8074   23344821.2574
  -1978931.623 9  -1056863.29545  23460849.996    23460849.5524   23460868.4624
   -482733.128 9   -358207.76147  20226711.465    20226710.8994   20226722.9244
  -2035611.991 9  -1556092.23447  21472000.977    21472001.1734   21472014.2594
  -2056402.245 9  -1567397.00446  21690795.007    21690794.0764   21690809.6044
   1595596.776 9   1244538.30645  24340645.144    24340644.9014   24340670.9564
 00  4 17 20  7 28.0000000  0  7 24  4  6  5 30 10  9               -0.000000007
    552694.600 9    439601.63247  20713400.413    20713400.0724   20713412.2064
   1687264.288 9   1315640.86045  23345419.586    23345419.6044   23345432.1074
  -1981252.112 9  -1058671.46545  23460408.422    23460407.9974   23460426.9054
   -482608.564 9   -358110.69447  20226735.166    20226734.6034   20226746.6304
  -2037879.495 9  -1557859.12147  21471569.496    21471569.6914   21471582.7694
  -2058729.385 9  -1569210.35446  21690352.165    21690351.2524   21690366.7504
   1598641.150 9   1246910.51545  24341224.501    24341224.2504   24341250.3144
 00  4 17 20  7 29.0000000  0  7 24  4  6  5 30 10  9               -0.000000007
    554296.018 9    440849.48847  20713705.134    20713704.7814   20713716.9334
   1690474.008 9   1318141.94745  23346030.356    23346030.3504   23346042.9164
  -1983572.641 9  -1060479.66445  23459966.825    23459966.3944   23459985.3194
   -482483.517 9   -358013.25747  20226758.980    20226758.4164   20226770.4384
  -2040146.685 9  -1559625.76147  21471138.054    21471138.2504   21471151.3184
  -2061056.144 9  -1571023.39846  21689909.420    21689908.4994   21689923.9964
   1601685.357 9   1249282.60145  24341803.798    24341803.5404   24341829.6194
 00  4 17 20  7 30.0000000  0  7 24  4  6  5 30 10  9               -0.000000007
    555897.802 9    442097.62947  20714009.953    20714009.6104   20714021.7474
   1693683.813 9   1320643.08345  23346641.188    23346641.1864   23346653.7724
  -1985893.177 9  -1062287.86245  23459525.228    23459524.7904   23459543.7254
   -482357.883 9   -357915.35847  20226782.870    20226782.3004   20226794.3304
  -2042413.457 9  -1561392.07547  21470706.713    21470706.9094   21470719.9584
  -2063382.427 9  -1572836.08946  21689466.715    21689465.7854   21689481.2854
   1604729.528 9   1251654.66845  24342383.099    24342382.8284   24342408.9354
 00  4 17 20  7 31.0000000  0  7 24  4  6  5 30 10  9               -0.000000006
    557500.005 9    443346.09847  20714314.855    20714314.5084   20714326.6464
   1696893.732 9   1323144.31545  23347252.008    23347251.9944   23347264.5844
  -1988213.621 9  -1064095.99445  23459083.665    23459083.2054   23459102.1364
   -482231.624 9   -357816.98147  20226806.900    20226806.3334   20226818.3594
  -2044679.809 9  -1563158.05747  21470275.428    21470275.6184   21470288.6684
  -2065708.168 9  -1574648.35246  21689024.144    21689023.2224   21689038.6984
   1607773.692 9   1254026.72645  24342962.418    24342962.1474   24342988.2734
 00  4 17 20  7 32.0000000  0  7 24  4  6  5 30 10  9               -0.000000006
    559102.510 9    444594.80247  20714619.798    20714619.4574   20714631.5984
   1700103.640 9   1325645.53645  23347862.841    23347862.8304   23347875.4044
  -1990534.113 9  -1065904.17445  23458642.080    23458641.6214   23458660.5364
   -482104.844 9   -357718.18947  20226831.024    20226830.4574   20226842.4854
  -2046945.808 9  -1564923.75847  21469844.251    21469844.4274   21469857.4904
  -2068033.488 9  -1576460.28646  21688581.657    21688580.7284   21688596.2024
   1610817.771 9   1256398.71945  24343541.678    24343541.4054   24343567.5774
 00  4 17 20  7 33.0000000  0  7 24  4  6  5 30 10  9               -0.000000005
    560705.462 9    445843.85847  20714924.810    20714924.4764   20714936.6024
   1703313.691 9   1328146.87745  23348473.675    23348473.6794   23348486.2324
  -1992854.496 9  -1067712.25245  23458200.535    23458200.0864   23458218.9964
   -481977.399 9   -357618.88747  20226855.282    20226854.7104   20226866.7394
  -2049211.320 9  -1566689.09747  21469413.130    21469413.2954   21469426.3554
  -2070358.234 9  -1578271.77146  21688139.272    21688138.3354   21688153.8264
   1613861.837 9   1258770.69545  24344120.969    24344120.7144   24344146.9104
 00  4 17 20  7 34.0000000  0  7 24  4  6  5 30 10  9               -0.000000005
    562308.748 9    447093.17047  20715229.907    20715229.5754   20715241.6974
   1706523.756 9   1330648.22645  23349084.556    23349084.5454   23349097.1294
  -1995174.908 9  -1069520.36245  23457758.970    23457758.5324   23457777.4344
   -481849.413 9   -357519.15647  20226879.658    20226879.0834   20226891.0994
  -2051476.484 9  -1568454.16147  21468982.080    21468982.2524   21468995.3014
  -2072682.533 9  -1580082.89846  21687696.984    21687696.0604   21687711.5334
   1616905.803 9   1261142.60445  24344700.220    24344699.9734   24344726.2034
 00  4 17 20  7 35.0000000  0  7 24  4  6  5 30 10  9               -0.000000005
    563912.378 9    448342.74847  20715535.072    20715534.7444   20715546.8524
   1709733.846 9   1333149.59745  23349695.423    23349695.4044   23349708.0164
  -1997495.313 9  -1071328.45445  23457317.411    23457316.9774   23457335.8724
   -481720.863 9   -357418.98647  20226904.119    20226903.5464   20226915.5634
  -2053741.249 9  -1570218.90747  21468551.112    21468551.2914   21468564.3334
  -2075006.364 9  -1581893.67146  21687254.765    21687253.8274   21687269.3094
   1619949.718 9   1263514.46545  24345279.470    24345279.2224   24345305.4764
 00  4 17 20  7 36.0000000  0  7 24  4  6  5 30 10  9               -0.000000004
    565516.427 9    449592.65947  20715840.319    20715839.9924   20715852.1084
   1712944.062 9   1335651.06045  23350306.291    23350306.2504   23350318.8704
  -1999815.650 9  -1073136.50245  23456875.833    23456875.4044   23456894.2854
   -481591.669 9   -357318.31647  20226928.699    20226928.1294   20226940.1494
  -2056005.544 9  -1571983.29647  21468120.240    21468120.4194   21468133.4614
  -2077329.649 9  -1583704.02946  21686812.656    21686811.7034   21686827.1964
   1622993.623 9   1265886.32245  24345858.738    24345858.5014   24345884.7564
 00  4 17 20  7 37.0000000  0  7 24  4  6  5 30 10  9               -0.000000004
    567120.841 9    450842.85147  20716145.650    20716145.3214   20716157.4364
   1716154.290 9   1338152.52945  23350917.183    23350917.1184   23350929.7634
  -2002135.979 9  -1074944.54245  23456434.282    23456433.8494   23456452.7294
   -481461.917 9   -357217.21347  20226953.385    20226952.8024   20226964.8344
  -2058269.471 9  -1573747.39747  21467689.434    21467689.6174   21467702.6484
  -2079652.479 9  -1585514.01946  21686370.644    21686369.6894   21686385.1724
   1626037.450 9   1268258.11245  24346437.981    24346437.7684   24346464.0044
 00  4 17 20  7 38.0000000  0  7 24  4  6  5 30 10  9               -0.000000004
    568725.574 9    452093.29147  20716451.000    20716450.6704   20716462.7854
   1719364.526 9   1340654.00145  23351528.087    23351528.0134   23351540.6614
  -2004456.322 9  -1076752.59045  23455992.751    23455992.3164   23456011.1924
   -481331.612 9   -357115.67547  20226978.208    20226977.6154   20226989.6524
  -2060532.994 9  -1575511.17747  21467258.693    21467258.8764   21467271.8944
  -2081974.843 9  -1587323.65046  21685928.703    21685927.7454   21685943.2284
   1629081.200 9   1270629.84945  24347017.197    24347017.0274   24347043.2354
 00  4 17 20  7 39.0000000  0  7 24  4  6  5 30 10  9               -0.000000003
    570330.708 9    453344.04847  20716756.455    20716756.1284   20716768.2514
   1722574.833 9   1343155.53845  23352138.985    23352138.9204   23352151.5724
  -2006776.621 9  -1078560.61145  23455551.200    23455550.7604   23455569.6314
   -481200.693 9   -357013.66047  20227003.115    20227002.5274   20227014.5684
  -2062796.075 9  -1577274.60747  21466828.034    21466828.2054   21466841.2244
  -2084296.698 9  -1589132.88446  21685486.880    21685485.9304   21685501.3864
   1632124.918 9   1273001.56545  24347596.401    24347596.2574   24347622.4444
 00  4 17 20  7 40.0000000  0  7 24  4  6  5 30 10  9               -0.000000003
    571936.230 9    454595.09947  20717061.973    20717061.6374   20717073.7704
   1725785.184 9   1345657.10645  23352749.904    23352749.8484   23352762.5084
  -2009096.898 9  -1080368.62345  23455109.644    23455109.1964   23455128.0454
   -481069.165 9   -356911.17147  20227028.145    20227027.5604   20227039.5944
  -2065058.736 9  -1579037.71747  21466397.466    21466397.6424   21466410.6754
  -2086618.040 9  -1590941.71246  21685045.131    21685044.1674   21685059.6204
   1635168.573 9   1275373.21845  24348175.606    24348175.4874   24348201.6304
 00  4 17 20  7 41.0000000  0  7 24  4  6  5 30 10  9               -0.000000003
    573542.123 9    455846.44447  20717367.577    20717367.2354   20717379.3764
   1728995.583 9   1348158.71045  23353360.806    23353360.7534   23353373.4164
  -2011417.169 9  -1082176.62145  23454668.111    23454667.6814   23454686.4934
   -480937.060 9   -356808.23347  20227053.276    20227052.6934   20227064.7094
  -2067320.992 9  -1580800.51347  21465966.995    21465967.1604   21465980.1874
  -2088938.901 9  -1592750.17046  21684603.493    21684602.5324   21684617.9984
   1638212.181 9   1277744.84145  24348754.800    24348754.6964   24348780.7954
 00  4 17 20  7 42.0000000  0  7 24  4  6  5 30 10  9               -0.000000003
    575148.353 9    457098.05147  20717673.241    20717672.9044   20717685.0424
   1732205.974 9   1350660.31945  23353971.728    23353971.7004   23353984.3384
  -2013737.438 9  -1083984.60345  23454226.576    23454226.1474   23454244.9534
   -480804.385 9   -356704.85647  20227078.547    20227077.9554   20227089.9824
  -2069582.846 9  -1582562.99547  21465536.584    21465536.7584   21465549.7774
  -2091259.283 9  -1594558.25246  21684161.939    21684160.9784   21684176.4344
   1641255.711 9   1280116.41345  24349333.965    24349333.8844   24349359.9184
 00  4 17 20  7 43.0000000  0  7 24  4  6  5 30 10  9               -0.000000002
    576755.003 9    458349.98647  20717978.958    20717978.6224   20717990.7504
   1735416.473 9   1353161.99645  23354582.672    23354582.6584   23354595.2714
  -2016057.664 9  -1085792.56745  23453785.035    23453784.6234   23453803.3864
   -480671.083 9   -356600.98047  20227103.911    20227103.3084   20227115.3424
  -2071844.254 9  -1584325.12647  21465106.244    21465106.4164   21465119.4464
  -2093579.131 9  -1596365.92446  21683720.473    21683719.5044   21683734.9634
   1644299.231 9   1282487.96545  24349913.139    24349913.0864   24349939.0584
 00  4 17 20  7 44.0000000  0  7 24  4  6  5 30 10  9               -0.000000002
    578361.993 9    459602.18347  20718284.761    20718284.4304   20718296.5554
   1738626.972 9   1355663.68145  23355193.597    23355193.6054   23355206.1874
  -2018377.894 9  -1087600.51945  23453343.520    23453343.1184   23453361.8544
   -480537.216 9   -356496.66547  20227129.386    20227128.7804   20227140.8114
  -2074105.265 9  -1586086.94847  21464675.979    21464676.1444   21464689.1804
  -2095898.515 9  -1598173.23246  21683279.124    21683278.1594   21683293.6204
   1647342.654 9   1284859.44545  24350492.302    24350492.2264   24350518.1854
 00  4 17 20  7 45.0000000  0  7 24  4  6  5 30 10  9               -0.000000002
    579969.380 9    460854.69547  20718590.628    20718590.2884   20718602.4214
   1741837.560 9   1358165.43745  23355804.563    23355804.5634   23355817.1264
  -2020698.117 9  -1089408.49245  23452901.984    23452901.6044   23452920.3104
   -480402.733 9   -356391.87547  20227154.962    20227154.3624   20227166.3984
  -2076365.832 9  -1587848.42947  21464245.821    21464246.0014   21464259.0154
  -2098217.392 9  -1599980.14646  21682837.846    21682836.8844   21682852.3294
   1650386.048 9   1287230.89845  24351071.459    24351071.3744   24351097.3064
 00  4 17 20  7 46.0000000  0  7 24  4  6  5 30 10  9               -0.000000002
    581577.181 9    462107.52647  20718896.605    20718896.2764   20718908.3904
   1745048.194 9   1360667.23945  23356415.545    23356415.5414   23356428.0944
  -2023018.283 9  -1091216.39845  23452460.458    23452460.0704   23452478.7964
   -480267.631 9   -356286.60448  20227180.694    20227180.0944   20227192.1304
  -2078625.968 9  -1589609.57347  21463815.737    21463815.8994   21463828.9264
  -2100535.743 9  -1601786.65146  21682396.677    21682395.7204   21682411.1604
   1653429.406 9   1289602.32945  24351650.605    24351650.5124   24351676.4294
 00  4 17 20  7 47.0000000  0  7 24  4  6  5 30 10  9               -0.000000002
    583185.328 9    463360.62747  20719202.631    20719202.3054   20719214.4234
   1748258.874 9   1363169.06345  23357026.508    23357026.4894   23357039.0464
  -2025338.459 9  -1093024.31245  23452018.915    23452018.5534   23452037.2634
   -480131.948 9   -356180.87648  20227206.511    20227205.9164   20227217.9554
  -2080885.701 9  -1591370.39747  21463385.717    21463385.8874   21463398.9144
  -2102853.620 9  -1603592.78346  21681955.601    21681954.6354   21681970.0714
   1656472.722 9   1291973.72545  24352229.743    24352229.6524   24352255.5294
 00  4 17 20  7 48.0000000  0  7 24  4  6  5 30 10  9               -0.000000001
    584793.885 9    464614.04947  20719508.725    20719508.3934   20719520.5214
   1751469.637 9   1365670.96145  23357637.512    23357637.4654   23357650.0514
  -2027658.577 9  -1094832.17845  23451577.417    23451577.0914   23451595.7894
   -479995.621 9   -356074.64948  20227232.454    20227231.8494   20227243.8954
  -2083144.968 9  -1593130.86147  21462955.780    21462955.9544   21462968.9754
  -2105170.972 9  -1605398.50646  21681514.604    21681513.6414   21681529.0694
   1659516.015 9   1294345.10045  24352808.884    24352808.7914   24352834.6624
 00  4 17 20  7 49.0000000  0  7 24  4  6  5 30 10  9               -0.000000001
    586402.790 9    465867.73847  20719814.877    20719814.5414   20719826.6724
   1754680.435 9   1368172.88345  23358248.490    23358248.4324   23358261.0354
  -2029978.699 9  -1096640.06745  23451135.890    23451135.5574   23451154.2554
   -479858.715 9   -355967.97148  20227258.494    20227257.8914   20227269.9364
  -2085403.850 9  -1594891.02947  21462525.921    21462526.1024   21462539.1134
  -2107487.828 9  -1607203.84546  21681073.728    21681072.7764   21681088.1954
   1662559.228 9   1296716.41545  24353387.993    24353387.8994   24353413.7624
 00  4 17 20  7 50.0000000  0  7 24  4  6  5 30 10  9               -0.000000001
    588012.052 9    467121.70847  20720121.116    20720120.7884   20720132.9074
   1757891.292 9   1370674.86345  23358859.521    23358859.4584   23358872.0644
  -2032298.810 9  -1098447.94045  23450694.383    23450694.0624   23450712.7744
   -479721.204 9   -355860.81848  20227284.676    20227284.0734   20227296.1234
  -2087662.306 9  -1596650.86347  21462096.156    21462096.3204   21462109.3494
  -2109804.192 9  -1609008.79646  21680632.940    21680632.0004   21680647.4034
   1665602.413 9   1299087.71245  24353967.110    24353967.0194   24353992.8904
 00  4 17 20  7 51.0000000  0  7 24  4  6  5 30 10  9               -0.000000001
    589621.675 9    468375.95647  20720427.431    20720427.1074   20720439.2264
   1761102.176 9   1373176.84945  23359470.527    23359470.4744   23359483.0504
  -2034618.902 9  -1100255.80645  23450252.879    23450252.5604   23450271.2644
   -479583.080 9   -355753.18848  20227310.948    20227310.3354   20227322.3984
  -2089920.320 9  -1598410.35447  21461666.483    21461666.6484   21461679.6874
  -2112120.056 9  -1610813.36346  21680192.245    21680191.3064   21680206.6964
   1668645.547 9   1301458.96845  24354546.197    24354546.0794   24354571.9714
 00  4 17 20  7 52.0000000  0  7 24  4  6  5 30 10  9               -0.000000001
    591231.659 9    469630.48747  20720733.787    20720733.4554   20720745.5814
   1764313.099 9   1375678.84945  23360081.556    23360081.5204   23360094.0904
  -2036939.018 9  -1102063.69245  23449811.376    23449811.0354   23449829.7484
   -479444.383 9   -355645.11348  20227337.339    20227336.7364   20227348.7914
  -2092177.933 9  -1600169.52847  21461236.856    21461237.0154   21461250.0444
  -2114435.445 9  -1612617.55346  21679751.646    21679750.7024   21679766.0914
   1671688.623 9   1303830.18345  24355125.287    24355125.1584   24355151.0664
 00  4 17 20  7 53.0000000  0  7 24  4  6  5 30 10  9               -0.000000001
    592841.973 9    470885.28447  20721040.208    20721039.8734   20721052.0054
   1767524.050 9   1378180.88645  23360692.583    23360692.5774   23360705.1344
  -2039259.145 9  -1103871.58945  23449369.858    23449369.5004   23449388.2124
   -479305.117 9   -355536.60248  20227363.848    20227363.2484   20227375.2824
  -2094435.139 9  -1601928.38847  21460807.341    21460807.4934   21460820.5324
  -2116750.368 9  -1614421.38646  21679311.113    21679310.1574   21679325.5524
   1674731.629 9   1306201.33945  24355704.357    24355704.2074   24355730.1324
 00  4 17 20  7 54.0000000  0  7 24  4  6  5 30 10  9               -0.000000001
    594452.728 9    472140.41647  20721346.742    20721346.4004   20721358.5394
   1770735.146 9   1380683.03445  23361303.620    23361303.6354   23361316.1554
  -2041579.175 9  -1105679.40545  23448928.366    23448928.0064   23448946.7024
   -479165.185 9   -355427.56748  20227390.464    20227389.8604   20227401.9114
  -2096691.842 9  -1603686.85747  21460377.876    21460378.0304   21460391.0814
  -2119064.719 9  -1616224.77346  21678870.707    21678869.7514   21678885.1424
   1677774.653 9   1308572.50845  24356283.447    24356283.2764   24356309.1964
 00  4 17 20  7 55.0000000  0  7 24  4  6  5 30 10  9               -0.000000001
    596063.822 9    473395.81147  20721653.318    20721652.9884   20721665.1124
   1773946.258 9   1383185.18845  23361914.682    23361914.6944   23361927.2184
  -2043899.259 9  -1107487.26045  23448486.856    23448486.4914   23448505.1734
   -479024.687 9   -355318.08548  20227417.210    20227416.6014   20227428.6484
  -2098948.158 9  -1605445.02247  21459948.512    21459948.6674   21459961.7134
  -2121378.629 9  -1618027.81746  21678430.392    21678429.4374   21678444.8284
   1680817.624 9   1310943.64245  24356862.534    24356862.3554   24356888.2834
 00  4 17 20  7 56.0000000  0  7 24  4  6  5 30 10  9               -0.000000001
    597675.265 9    474651.48047  20721959.970    20721959.6364   20721971.7644
   1777157.394 9   1385687.37945  23362525.729    23362525.7394   23362538.2684
  -2046219.343 9  -1109295.11645  23448045.353    23448044.9964   23448063.6484
   -478883.625 9   -355208.16348  20227444.057    20227443.4524   20227455.5034
  -2101204.063 9  -1607202.85947  21459519.235    21459519.3844   21459532.4514
  -2123692.078 9  -1619830.48946  21677990.148    21677989.1814   21678004.5854
   1683860.519 9   1313314.71345  24357441.585    24357441.3944   24357467.3124
 00  4 17 20  7 57.0000000  0  7 24  4  6  5 30 10  9               -0.000000001
    599287.147 9    475907.49447  20722266.703    20722266.3734   20722278.4934
   1780368.641 9   1388189.63745  23363136.818    23363136.8364   23363149.3494
  -2048539.357 9  -1111102.90845  23447603.879    23447603.5414   23447622.1694
   -478741.904 9   -355097.73548  20227471.016    20227470.4244   20227482.4714
  -2103459.470 9  -1608960.32047  21459090.059    21459090.2114   21459103.2614
  -2126004.984 9  -1621632.75046  21677550.010    21677549.0354   21677564.4504
   1686903.415 9   1315685.78945  24358020.628    24358020.4244   24358046.3454
 00  4 17 20  7 58.0000000  0  7 24  4  6  5 30 10  9               -0.000000001
    600899.306 9    477163.72147  20722573.498    20722573.1514   20722585.2954
   1783579.820 9   1390691.85745  23363747.908    23363747.9334   23363760.4064
  -2050859.465 9  -1112910.76345  23447162.370    23447162.0294   23447180.6554
   -478599.677 9   -354986.90748  20227498.079    20227497.4854   20227509.5364
  -2105714.540 9  -1610717.51847  21458660.903    21458661.0484   21458674.1174
  -2128317.509 9  -1623434.71446  21677109.942    21677108.9704   21677124.3964
   1689946.178 9   1318056.76045  24358599.663    24358599.4434   24358625.3594
 00  4 17 20  7 59.0000000  0  7 24  4  6  5 30 10  9               -0.000000001
    602511.949 9    478420.32447  20722880.358    20722880.0094   20722892.1534
   1786791.178 9   1393194.20845  23364358.985    23364359.0114   23364371.4534
  -2053179.429 9  -1114718.52645  23446720.877    23446720.5434   23446739.1694
   -478456.737 9   -354875.53048  20227525.275    20227524.6864   20227536.7344
  -2107969.047 9  -1612474.27947  21458231.898    21458232.0554   21458245.1104
  -2130629.436 9  -1625236.22146  21676670.000    21676669.0444   21676684.4464
   1692989.016 9   1320427.77445  24359178.705    24359178.4624   24359204.3914
 00  4 17 20  8  0.0000000  0  7 24  4  6  5 30 10  9               -0.000000001
    604124.946 9    479677.20647  20723187.304    20723186.9564   20723199.1004
   1790002.546 9   1395696.56245  23364970.094    23364970.1094   23364982.5074
  -2055499.417 9  -1116526.29645  23446279.407    23446279.0704   23446297.7024
   -478313.231 9   -354763.70448  20227552.584    20227551.9974   20227564.0524
  -2110223.163 9  -1614230.72847  21457802.953    21457803.1224   21457816.1664
  -2132940.922 9  -1627037.36646  21676230.138    21676229.1894   21676244.5834
   1696031.788 9   1322798.74745  24359757.748    24359757.5104   24359783.4254
 00  4 17 20  8  1.0000000  0  7 24  4  6  5 30 10  9               -0.000000001
    605738.271 9    480934.34447  20723494.328    20723493.9834   20723506.1284
   1793213.935 9   1398198.94045  23365581.225    23365581.2254   23365593.6214
  -2057819.464 9  -1118334.11545  23445837.888    23445837.5444   23445856.1974
   -478169.180 9   -354651.45947  20227579.997    20227579.4084   20227591.4624
  -2112476.881 9  -1615986.87147  21457374.064    21457374.2194   21457387.2734
  -2135251.984 9  -1628838.19246  21675790.346    21675789.3844   21675804.7824
   1699074.447 9   1325169.63045  24360336.755    24360336.4814   24360362.4214
 00  4 17 20  8  2.0000000  0  7 24  4  6  5 30 10  9               -0.000000001
    607352.027 9    482191.81147  20723801.409    20723801.0714   20723813.2054
   1796425.446 9   1400701.41745  23366192.352    23366192.3604   23366204.7294
  -2060139.431 9  -1120141.85645  23445396.419    23445396.0704   23445414.7304
   -478024.454 9   -354538.68948  20227607.534    20227606.9394   20227619.0004
  -2114730.093 9  -1617742.61747  21456945.294    21456945.4564   21456958.4984
  -2137562.496 9  -1630638.59246  21675350.647    21675349.6784   21675365.0804
   1702117.124 9   1327540.53345  24360915.756    24360915.4594   24360941.4184
 00  4 17 20  8  3.0000000  0  7 24  4  6  5 30 10  9               -0.000000001
    608966.120 9    483449.54747  20724108.564    20724108.2084   20724120.3494
   1799636.952 9   1403203.89545  23366803.491    23366803.5174   23366815.8694
  -2062459.429 9  -1121949.62745  23444954.939    23444954.5964   23444973.2524
   -477879.181 9   -354425.48848  20227635.189    20227634.6004   20227646.6584
  -2116982.914 9  -1619498.06347  21456516.605    21456516.7634   21456529.8034
  -2139872.566 9  -1632438.63846  21674911.054    21674910.0824   21674925.4824
   1705159.731 9   1329911.38845  24361494.763    24361494.4584   24361520.4174
 00  4 17 20  8  4.0000000  0  7 24  4  6  5 30 10  9               -0.000000001
    610580.659 9    484707.62847  20724415.787    20724415.4464   20724427.5734
   1802848.566 9   1405706.45545  23367414.640    23367414.6944   23367427.0244
  -2064779.355 9  -1123757.36845  23444513.451    23444513.1134   23444531.7784
   -477733.226 9   -354311.75648  20227662.945    20227662.3614   20227674.4194
  -2119235.230 9  -1621253.11747  21456087.986    21456088.1394   21456101.1824
  -2142182.072 9  -1634238.26046  21674471.570    21674470.6064   21674485.9874
   1708202.340 9   1332282.23245  24362073.762    24362073.4574   24362099.4024
 00  4 17 20  8  5.0000000  0  7 24  4  6  5 30 10  9               -0.000000001
    612195.490 9    485965.93947  20724723.089    20724722.7434   20724734.8894
   1806060.171 9   1408209.01645  23368025.780    23368025.8524   23368038.1824
  -2067099.332 9  -1125565.13945  23444071.991    23444071.6384   23444090.3164
   -477586.736 9   -354197.61348  20227690.829    20227690.2514   20227702.3094
  -2121487.163 9  -1623007.86447  21455659.470    21455659.6264   21455672.6634
  -2144491.153 9  -1636037.54246  21674032.169    21674031.2204   21674046.5744
   1711244.833 9   1334652.98145  24362652.748    24362652.4354   24362678.3834
 00  4 17 20  8  6.0000000  0  7 24  4  6  5 30 10  9               -0.000000001
    613810.748 9    487224.58047  20725030.459    20725030.1204   20725042.2594
   1809271.898 9   1410711.66045  23368636.969    23368637.0484   23368649.3724
  -2069419.244 9  -1127372.85045  23443630.510    23443630.1444   23443648.8314
   -477439.590 9   -354082.95448  20227718.814    20227718.2324   20227730.2974
  -2123738.604 9  -1624762.22347  21455231.020    21455231.1924   21455244.2114
  -2146799.674 9  -1637836.37646  21673592.852    21673591.8954   21673607.2644
   1714287.346 9   1337023.74645  24363231.732    24363231.4164   24363257.3614
 00  4 17 20  8  7.0000000  0  7 24  4  6  5 30 10  9               -0.000000001
    615426.370 9    488483.50847  20725337.919    20725337.5674   20725349.7184
   1812483.661 9   1413214.32145  23369248.142    23369248.2344   23369260.5254
  -2071739.161 9  -1129180.58545  23443189.035    23443188.6674   23443207.3514
   -477291.854 9   -353967.83547  20227746.937    20227746.3634   20227758.4174
  -2125989.626 9  -1626516.27147  21454802.657    21454802.8194   21454815.8534
  -2149107.704 9  -1639634.83046  21673153.646    21673152.6894   21673168.0644
   1717329.785 9   1339394.45745  24363810.697    24363810.3754   24363836.3284
 00  4 17 20  8  8.0000000  0  7 24  4  6  5 30 10  9               -0.000000001
    617042.368 9    489742.72647  20725645.418    20725645.0744   20725657.2174
   1815695.495 9   1415717.05345  23369859.340    23369859.4614   23369871.7324
  -2074059.040 9  -1130988.26545  23442747.567    23442747.2234   23442765.9254
   -477143.503 9   -353852.23847  20227775.172    20227774.5834   20227786.6484
  -2128240.192 9  -1628269.95747  21454374.374    21454374.5464   21454387.5694
  -2151415.226 9  -1641432.90146  21672714.531    21672713.5744   21672728.9414
   1720372.208 9   1341765.16245  24364389.680    24364389.3444   24364415.3124
 00  4 17 20  8  9.0000000  0  7 24  4  6  5 30 10  9               -0.000000001
    618658.680 9    491002.18847  20725952.986    20725952.6414   20725964.7804
   1818907.343 9   1418219.77645  23370470.527    23370470.6794   23370482.9284
  -2076378.922 9  -1132795.95645  23442306.116    23442305.7804   23442324.4854
   -476994.594 9   -353736.20448  20227803.503    20227802.9234   20227814.9884
  -2130490.357 9  -1630023.32747  21453946.202    21453946.3824   21453959.3964
  -2153722.282 9  -1643230.60146  21672275.519    21672274.5574   21672289.9304
   1723414.548 9   1344135.79945  24364968.614    24364968.2634   24364994.2324
 00  4 17 20  8 10.0000000  0  7 24  4  6  5 30 10  9               -0.000000001
    620275.414 9    492261.98347  20726260.645    20726260.2984   20726272.4334
   1822119.293 9   1420722.59545  23371081.745    23371081.9054   23371094.1384
  -2078698.740 9  -1134603.60845  23441864.642    23441864.3054   23441883.0114
   -476845.020 9   -353619.65548  20227831.959    20227831.3834   20227843.4324
  -2132740.018 9  -1631776.30347  21453518.106    21453518.2884   21453531.3054
  -2156028.749 9  -1645027.84446  21671836.619    21671835.6614   21671851.0184
   1726456.904 9   1346506.44845  24365547.579    24365547.2124   24365573.1774
 00  4 17 20  8 11.0000000  0  7 24  4  6  5 30 10  9               -0.000000001
    621892.481 9    493522.03447  20726568.364    20726568.0254   20726580.1474
   1825331.273 9   1423225.43345  23371692.975    23371693.1534   23371705.3754
  -2081018.556 9  -1136411.25145  23441423.211    23441422.8724   23441441.5734
   -476694.866 9   -353502.65048  20227860.545    20227859.9744   20227872.0154
  -2134989.256 9  -1633528.96247  21453090.085    21453090.2654   21453103.2814
  -2158334.747 9  -1646824.70546  21671397.803    21671396.8544   21671412.2124
   1729499.217 9   1348877.06545  24366126.528    24366126.1604   24366152.1134
 00  4 17 20  8 12.0000000  0  7 24  4  6  5 30 10  9               -0.000000001
    623509.876 9    494782.34047  20726876.149    20726875.7924   20726887.9384
   1828543.259 9   1425728.28345  23372304.189    23372304.3414   23372316.5794
  -2083338.381 9  -1138218.90145  23440981.731    23440981.3884   23441000.0884
   -476544.139 9   -353385.20448  20227889.242    20227888.6744   20227900.7164
  -2137238.072 9  -1635281.27447  21452662.143    21452662.3214   21452675.3474
  -2160640.238 9  -1648621.18546  21670959.064    21670958.1084   21670973.4874
   1732541.465 9   1351247.63145  24366705.468    24366705.1194   24366731.0534
